[[{"header":{"parameterUnit":"m.s-1","parameterCategory":1,"la1":30.6,"la2":28.766,"lo1":-90.7593,"lo2":-88.6598,"dx":0.0162,"dy":0.0183,"nx":116,"ny":114,"refTime":"2023-01-22T06:00:00:Z","depth":0,"parameterNumber":2,"parameterNumberName":"U-component_of_WINDS"},"data":[0.0,0.0,0.0,0.0,0.0,0.0,0.0,0.0,0.0,0.0,0.0,0.0,0.0,0.0,0.0,0.0,0.0,0.0,0.0,0.0,0.0,0.0,0.0,0.0,0.0,0.0,0.0,0.0,0.0,0.0,0.0,0.0,0.0,0.0,0.0,0.0,0.0,0.0,0.0,0.0,0.0,0.0,0.0,0.0,0.0,0.0,0.0,0.0,0.0,0.0,0.0,0.0,0.0,0.0,0.0,0.0,0.0,0.0,0.0,0.0,0.0,0.0,0.0,0.0,0.0,0.0,0.0,0.0,0.0,0.0,0.0,0.0,0.0,0.0,0.0,0.0,0.0,0.0,0.0,0.0,0.0,0.0,0.0,0.0,0.0,0.0,0.0,0.0,0.0,0.0,0.0,0.0,0.0,0.0,0.0,0.0,0.0,0.0,0.0,0.0,0.0,0.0,0.0,0.0,0.0,0.0,0.0,0.0,0.0,0.0,0.0,0.0,0.0,0.0,0.0,0.0,0.0,0.0,0.0,0.0,0.0,0.0,0.0,0.0,0.0,0.0,0.0,0.0,0.0,0.0,0.0,0.0,0.0,0.0,0.0,0.0,0.0,0.0,0.0,0.0,0.0,0.0,0.0,0.0,0.0,0.0,0.0,0.0,0.0,0.0,0.0,0.0,0.0,0.0,0.0,0.0,0.0,0.0,0.0,0.0,0.0,0.0,0.0,0.0,0.0,0.0,0.0,0.0,0.0,0.0,0.0,0.0,0.0,0.0,0.0,0.0,0.0,0.0,0.0,0.0,0.0,0.0,0.0,0.0,0.0,0.0,0.0,0.0,0.0,0.0,0.0,0.0,0.0,0.0,0.0,0.0,0.0,0.0,0.0,0.0,0.0,0.0,0.0,0.0,0.0,0.0,0.0,0.0,0.0,0.0,0.0,0.0,0.0,0.0,0.0,0.0,0.0,0.0,0.0,0.0,0.0,0.0,0.0,0.0,0.0,0.0,0.0,0.0,0.0,0.0,0.0,0.0,0.0,0.0,0.0,0.0,0.0,0.0,0.0,0.0,0.0,0.0,0.0,0.0,0.0,0.0,0.0,0.0,0.0,0.0,0.0,0.0,0.0,0.0,0.0,0.0,0.0,0.0,0.0,0.0,0.0,0.0,0.0,0.0,0.0,0.0,0.0,0.0,0.0,0.0,0.0,0.0,0.0,0.0,0.0,0.0,0.0,0.0,0.0,0.0,0.0,0.0,0.0,0.0,0.0,0.0,0.0,0.0,0.0,0.0,0.0,0.0,0.0,0.0,0.0,0.0,0.0,0.0,0.0,0.0,0.0,0.0,0.0,0.0,0.0,0.0,0.0,0.0,0.0,0.0,0.0,0.0,0.0,0.0,0.0,0.0,0.0,0.0,0.0,0.0,0.0,0.0,0.0,0.0,0.0,0.0,0.0,0.0,0.0,0.0,0.0,0.0,0.0,0.0,0.0,0.0,0.0,0.0,0.0,0.0,0.0,0.0,0.0,0.0,0.0,0.0,0.0,0.0,0.0,0.0,0.0,0.0,0.0,0.0,0.0,0.0,0.0,0.0,0.0,0.0,0.0,0.0,0.0,0.0,0.0,0.0,0.0,0.0,0.0,0.0,0.0,0.0,0.0,0.0,0.0,0.0,0.0,0.0,0.0,0.0,0.0,0.0,0.0,0.0,0.0,0.0,0.0,0.0,0.0,0.0,0.0,0.0,0.0,0.0,0.0,0.0,0.0,0.0,0.0,0.0,0.0,0.0,0.0,0.0,0.0,0.0,0.0,0.0,0.0,0.0,0.0,0.0,0.0,0.0,0.0,0.0,0.0,0.0,0.0,0.0,0.0,0.0,0.0,0.0,0.0,0.0,0.0,0.0,0.0,0.0,0.0,0.0,0.0,0.0,0.0,0.0,0.0,0.0,0.0,0.0,0.0,0.0,0.0,0.0,0.0,0.0,0.0,0.0,0.0,0.0,0.0,0.0,0.0,0.0,0.0,0.0,0.0,0.0,0.0,0.0,0.0,0.0,0.0,0.0,0.0,0.0,0.0,0.0,0.0,0.0,0.0,0.0,0.0,0.0,0.0,0.0,0.0,0.0,0.0,0.0,0.0,0.0,0.0,0.0,0.0,0.0,0.0,0.0,0.0,0.0,0.0,0.0,0.0,0.0,0.0,0.0,0.0,0.0,0.0,0.0,0.0,0.0,0.0,0.0,0.0,0.0,0.0,0.0,0.0,0.0,0.0,0.0,0.0,0.0,0.0,0.0,0.0,0.0,0.0,0.0,0.0,0.0,0.0,0.0,0.0,0.0,0.0,0.0,0.0,0.0,0.0,0.0,0.0,0.0,0.0,0.0,0.0,0.0,0.0,0.0,0.0,0.0,0.0,0.0,0.0,0.0,0.0,0.0,0.0,0.0,0.0,0.0,0.0,0.0,0.0,0.0,0.0,0.0,0.0,0.0,0.0,0.0,0.0,0.0,0.0,0.0,0.0,0.0,0.0,0.0,0.0,0.0,0.0,0.0,0.0,0.0,0.0,0.0,0.0,0.0,0.0,0.0,0.0,0.0,0.0,0.0,0.0,0.0,0.0,0.0,0.0,0.0,0.0,0.0,0.0,0.0,0.0,0.0,0.0,0.0,0.0,0.0,0.0,0.0,0.0,0.0,0.0,0.0,0.0,0.0,0.0,0.0,0.0,0.0,0.0,0.0,0.0,0.0,0.0,0.0,0.0,0.0,0.0,0.0,0.0,0.0,0.0,0.0,0.0,0.0,0.0,0.0,0.0,0.0,0.0,0.0,0.0,0.0,0.0,0.0,0.0,0.0,0.0,0.0,0.0,0.0,0.0,0.0,0.0,0.0,0.0,0.0,0.0,0.0,0.0,0.0,0.0,0.0,0.0,0.0,0.0,0.0,0.0,0.0,0.0,0.0,0.0,0.0,0.0,0.0,0.0,0.0,0.0,0.0,0.0,0.0,0.0,0.0,0.0,0.0,0.0,0.0,0.0,0.0,0.0,0.0,0.0,0.0,0.0,0.0,0.0,0.0,0.0,0.0,0.0,0.0,0.0,0.0,0.0,0.0,0.0,0.0,0.0,0.0,0.0,0.0,0.0,0.0,0.0,0.0,0.0,0.0,0.0,0.0,0.0,0.0,0.0,0.0,0.0,0.0,0.0,0.0,0.0,0.0,0.0,0.0,0.0,0.0,0.0,0.0,0.0,0.0,0.0,0.0,0.0,0.0,0.0,0.0,0.0,0.0,0.0,0.0,0.0,0.0,0.0,0.0,0.0,0.0,0.0,0.0,0.0,0.0,0.0,0.0,0.0,0.0,0.0,0.0,0.0,0.0,0.0,0.0,0.0,0.0,0.0,0.0,0.0,0.0,0.0,0.0,0.0,0.0,0.0,0.0,0.0,0.0,0.0,0.0,0.0,0.0,0.0,0.0,0.0,0.0,0.0,0.0,0.0,0.0,0.0,0.0,0.0,0.0,0.0,0.0,0.0,0.0,0.0,0.0,0.0,0.0,0.0,0.0,0.0,0.0,0.0,0.0,0.0,0.0,0.0,0.0,0.0,0.0,0.0,0.0,0.0,0.0,0.0,0.0,0.0,0.0,0.0,0.0,0.0,0.0,0.0,0.0,0.0,0.0,0.0,0.0,0.0,0.0,0.0,0.0,0.0,0.0,0.0,0.0,0.0,0.0,0.0,0.0,0.0,0.0,0.0,0.0,0.0,0.0,0.0,0.0,0.0,0.0,0.0,0.0,0.0,0.0,0.0,0.0,0.0,0.0,0.0,0.0,0.0,0.0,0.0,0.0,0.0,0.0,0.0,0.0,0.0,0.0,0.0,0.0,0.0,0.0,0.0,0.0,0.0,0.0,0.0,0.0,0.0,0.0,0.0,0.0,0.0,0.0,0.0,0.0,0.0,0.0,0.0,0.0,0.0,0.0,0.0,0.0,0.0,0.0,0.0,0.0,0.0,0.0,0.0,0.0,0.0,0.0,0.0,0.0,0.0,0.0,0.0,0.0,0.0,0.0,0.0,0.0,0.0,0.0,0.0,0.0,0.0,0.0,0.0,0.0,0.0,0.0,0.0,0.0,0.0,0.0,0.0,0.0,0.0,0.0,0.0,0.0,0.0,0.0,0.0,0.0,0.0,0.0,0.0,0.0,0.0,0.0,0.0,0.0,0.0,0.0,0.0,0.0,0.0,0.0,0.0,0.0,0.0,0.0,0.0,0.0,0.0,0.0,0.0,0.0,0.0,0.0,0.0,0.0,0.0,0.0,0.0,0.0,0.0,0.0,0.0,0.0,0.0,0.0,0.0,0.0,0.0,0.0,0.0,0.0,0.0,0.0,0.0,0.0,0.0,0.0,0.0,0.0,0.0,0.0,0.0,0.0,0.0,0.0,0.0,0.0,0.0,0.0,0.0,0.0,0.0,0.0,0.0,0.0,0.0,0.0,0.0,0.0,0.0,0.0,0.0,0.0,0.0,0.0,0.0,0.0,0.0,0.0,0.0,0.0,0.0,0.0,0.0,0.0,0.0,0.0,0.0,0.0,0.0,0.0,0.0,0.0,0.0,0.0,0.0,0.0,0.0,0.0,0.0,0.0,0.0,0.0,0.0,0.0,0.0,0.0,0.0,0.0,0.0,0.0,0.0,0.0,0.0,0.0,0.0,0.0,0.0,0.0,0.0,0.0,0.0,0.0,0.0,0.0,0.0,0.0,0.0,0.0,0.0,0.0,0.0,0.0,0.0,0.0,0.0,0.0,0.0,0.0,0.0,0.0,0.0,0.0,0.0,0.0,0.0,0.0,0.0,0.0,0.0,0.0,0.0,0.0,0.0,0.0,0.0,0.0,0.0,0.0,0.0,0.0,0.0,0.0,0.0,0.0,0.0,0.0,0.0,0.0,0.0,0.0,0.0,0.0,0.0,0.0,0.0,0.0,0.0,0.0,0.0,0.0,0.0,0.0,0.0,0.0,0.0,0.0,0.0,0.0,0.0,0.0,0.0,0.0,0.0,0.0,0.0,0.0,0.0,0.0,0.0,0.0,0.0,0.0,0.0,0.0,0.0,0.0,0.0,0.0,0.0,0.0,0.0,0.0,0.0,0.0,0.0,0.0,0.0,0.0,0.0,0.0,0.0,0.0,0.0,0.0,0.0,0.0,0.0,0.0,0.0,0.0,0.0,0.0,0.0,0.0,0.0,0.0,0.0,0.0,0.0,0.0,0.0,0.0,0.0,0.0,0.0,0.0,0.0,0.0,0.0,0.0,0.0,0.0,0.0,0.0,0.0,0.0,0.0,0.0,0.0,0.0,0.0,0.0,0.0,0.0,0.0,0.0,0.0,0.0,0.0,0.0,0.0,0.0,0.0,0.0,0.0,0.0,0.0,0.0,0.0,0.0,0.0,0.0,0.0,0.0,0.0,0.0,0.0,0.0,0.0,0.0,0.0,0.0,0.0,0.0,0.0,0.0,0.0,0.0,0.0,0.0,0.0,0.0,0.0,0.0,0.0,0.0,0.0,0.0,0.0,0.0,0.0,0.0,0.0,0.0,0.0,0.0,0.0,0.0,0.0,0.0,0.0,0.0,0.0,0.0,0.0,0.0,0.0,0.0,0.0,0.0,0.0,0.0,0.0,0.0,0.0,0.0,0.0,0.0,0.0,0.0,0.0,0.0,0.0,0.0,0.0,0.0,0.0,0.0,0.0,0.0,0.0,0.0,0.0,0.0,0.0,0.0,0.0,0.0,0.0,0.0,0.0,0.0,0.0,0.0,0.0,0.0,0.0,0.0,0.0,0.0,0.0,0.0,0.0,0.0,0.0,0.0,0.0,0.0,0.0,0.0,0.0,0.0,0.0,0.0,0.0,0.0,0.0,0.0,0.0,0.0,0.0,0.0,0.0,0.0,0.0,0.0,0.0,0.0,0.0,0.0,0.0,0.0,0.0,0.0,0.0,0.0,0.0,0.0,0.0,0.0,0.0,0.0,0.0,0.0,0.0,0.0,0.0,0.0,0.0,0.0,0.0,0.0,0.0,0.0,0.0,0.0,0.0,0.0,0.0,0.0,0.0,0.0,0.0,0.0,1.4645,0.0,0.0,0.0,0.0,0.0,0.0,0.0,0.0,0.0,0.0,0.0,0.0,0.0,0.0,0.0,0.0,0.0,0.0,0.0,0.0,0.0,0.0,0.0,0.0,0.0,0.0,0.0,0.0,0.0,0.0,0.0,0.0,0.0,0.0,0.0,0.0,0.0,0.0,0.0,2.4983,2.5144,2.5291,2.513,2.5144,2.5291,0.0,0.0,0.0,0.0,0.0,0.0,0.0,0.0,0.0,0.0,0.0,0.0,0.0,0.0,0.0,0.0,0.0,0.0,0.0,0.0,0.0,0.0,0.0,0.0,0.0,0.0,0.0,0.0,0.0,0.0,0.0,0.0,0.0,0.0,0.0,0.0,0.0,0.0,0.0,0.0,0.0,0.0,0.0,0.0,0.0,0.0,0.0,0.0,0.0,0.0,0.0,0.0,0.0,0.0,0.0,0.0,0.0,0.0,0.0,0.0,0.0,0.0,0.0,0.0,0.0,0.0,0.0,0.0,0.0,0.0,0.0,1.474,0.0,0.0,0.0,0.0,0.0,0.0,0.0,0.0,0.0,0.0,0.0,0.0,0.0,0.0,0.0,0.0,0.0,0.0,0.0,0.0,0.0,0.0,0.0,0.0,0.0,0.0,0.0,0.0,0.0,0.0,0.0,0.0,0.0,0.0,0.0,2.501,2.5157,2.5157,2.5451,2.5585,2.5585,2.5638,2.5665,2.5665,2.5611,0.0,0.0,0.0,0.0,0.0,0.0,0.0,0.0,0.0,0.0,0.0,0.0,0.0,0.0,0.0,0.0,0.0,0.0,0.0,0.0,0.0,0.0,0.0,0.0,0.0,0.0,0.0,0.0,0.0,0.0,0.0,0.0,0.0,0.0,0.0,0.0,0.0,0.0,0.0,0.0,0.0,0.0,0.0,0.0,0.0,0.0,0.0,0.0,0.0,0.0,0.0,0.0,0.0,0.0,0.0,0.0,0.0,0.0,0.0,0.0,0.0,0.0,0.0,0.0,1.5072,1.5181,1.5181,1.5181,1.5167,1.4923,1.4814,1.4814,0.0,0.0,0.0,0.0,0.0,0.0,0.0,0.0,0.0,0.0,0.0,0.0,0.0,0.0,0.0,0.0,0.0,0.0,0.0,0.0,0.0,0.0,0.0,2.4636,2.4636,2.4636,2.4636,0.0,0.0,0.0,0.0,0.0,0.0,2.5024,2.5304,2.5451,2.5451,2.5758,2.5892,2.5905,2.6159,2.6266,2.6266,2.6012,2.6066,2.6333,0.0,0.0,0.0,0.0,0.0,0.0,0.0,0.0,0.0,0.0,0.0,0.0,0.0,0.0,0.0,0.0,0.0,0.0,0.0,0.0,0.0,0.0,0.0,0.0,0.0,0.0,0.0,0.0,0.0,0.0,0.0,0.0,0.0,0.0,0.0,0.0,0.0,0.0,0.0,0.0,0.0,1.9596,1.5308,0.0,0.0,0.0,0.0,0.0,0.0,0.0,0.0,0.0,0.0,0.0,0.0,0.0,0.0,1.512,1.5126,1.5133,1.5153,1.5153,1.5167,1.5181,1.5181,1.5181,1.5181,1.514,0.0,1.5126,1.5126,0.0,0.0,0.0,0.0,0.0,0.0,0.0,0.0,0.0,0.0,0.0,0.0,0.0,0.0,0.0,0.0,0.0,0.0,0.0,0.0,0.0,2.4636,2.4636,2.4636,2.4636,2.4636,2.4636,0.0,0.0,0.0,0.0,2.5157,2.5317,2.5611,2.5838,2.6012,2.6132,2.6199,2.6199,2.6333,2.6386,2.6386,2.6253,2.6266,2.6386,2.6386,0.0,0.0,0.0,0.0,0.0,0.0,0.0,0.0,0.0,0.0,0.0,0.0,0.0,0.0,0.0,0.0,0.0,0.0,0.0,0.0,0.0,0.0,0.0,0.0,0.0,0.0,0.0,0.0,0.0,0.0,0.0,0.0,0.0,0.0,0.0,0.0,0.0,0.0,0.0,2.0752,2.054,1.8453,2.1174,2.1781,0.0,0.0,0.0,0.0,0.0,0.0,0.0,0.0,0.0,1.5086,1.5086,1.512,1.5181,1.5181,1.5181,1.5181,1.5181,1.5181,1.5181,1.5181,1.5181,1.5181,1.5181,1.5181,1.5181,1.5181,1.5181,1.5181,0.0,0.0,0.0,0.0,0.0,1.5079,0.0,0.0,0.0,0.0,0.0,0.0,0.0,0.0,0.0,0.0,0.0,0.0,2.4636,2.4636,2.4636,2.4636,2.4636,2.4636,2.4636,0.0,0.0,0.0,0.0,2.5398,2.5625,2.5919,2.6172,2.6386,2.6386,2.6386,2.6386,2.6386,2.6386,2.6386,2.6386,2.6386,2.6386,2.6386,2.6386,2.6386,0.0,0.0,0.0,0.0,0.0,0.0,0.0,0.0,0.0,0.0,0.0,0.0,0.0,0.0,0.0,0.0,0.0,0.0,0.0,0.0,0.0,0.0,0.0,0.0,0.0,0.0,0.0,0.0,0.0,0.0,0.0,0.0,0.0,0.0,0.0,0.0,0.0,2.25,2.1057,1.9869,2.0899,2.0817,0.0,0.0,0.0,0.0,0.0,0.0,1.758,1.604,1.5181,1.5181,1.5181,1.5181,1.5181,1.5181,1.5181,1.5181,1.5181,1.5181,1.5181,1.5181,1.5181,1.5181,1.5181,1.5181,1.5181,1.5181,1.5181,1.5181,1.5181,1.5181,1.5181,1.5181,1.5181,1.5181,0.0,0.0,0.0,0.0,0.0,0.0,0.0,0.0,0.0,0.0,0.0,2.4636,2.4636,2.4636,2.4636,2.4636,2.4636,2.4636,2.4636,2.4903,2.5064,2.5077,2.5611,2.5919,2.5932,2.6226,2.6373,2.6386,2.6386,2.6386,2.6386,2.6386,2.6386,2.6386,2.6386,2.6386,2.6386,2.6386,2.6386,2.6386,2.6386,0.0,0.0,0.0,0.0,0.0,0.0,0.0,0.0,0.0,0.0,0.0,0.0,0.0,0.0,0.0,0.0,0.0,0.0,0.0,0.0,0.0,0.0,0.0,0.0,0.0,0.0,0.0,0.0,0.0,0.0,0.0,0.0,0.0,0.0,0.0,0.0,0.0,0.0,1.5607,1.9024,0.0,0.0,0.0,0.0,1.8392,1.6368,1.5167,1.5355,1.5181,1.5181,1.5181,1.5181,1.5181,1.5181,1.5181,1.5181,1.5181,1.5181,1.5181,1.5181,1.5181,1.5181,1.5181,1.5181,1.5181,1.5181,1.5181,1.5181,1.5181,1.5181,1.5181,1.5181,1.5181,1.5181,1.5181,0.0,0.0,0.0,0.0,0.0,0.0,0.0,0.0,0.0,2.4636,2.4636,2.4636,2.4636,2.4636,2.4636,2.4636,2.4636,2.4636,2.4636,2.4917,2.5157,2.5344,2.5745,2.6039,2.6226,2.6333,2.6386,2.6386,2.6386,2.6386,2.6386,2.6386,2.6386,2.6386,2.6386,2.6386,2.6386,2.6386,2.6386,2.6413,2.6587,2.6734,0.0,0.0,0.0,0.0,0.0,0.0,0.0,0.0,0.0,0.0,0.0,0.0,0.0,0.0,0.0,0.0,0.0,0.0,0.0,0.0,0.0,0.0,0.0,0.0,0.0,0.0,0.0,0.0,0.0,0.0,0.0,0.0,0.0,0.0,0.0,0.0,0.0,1.9563,2.1135,0.0,0.0,1.7821,1.8769,1.8769,1.6442,1.5924,1.7584,1.6104,1.5181,1.5181,1.5181,1.5181,1.5181,1.5181,1.5181,1.5181,1.5181,1.5181,1.5181,1.5181,1.5181,1.5181,1.5181,1.5181,1.5181,1.5181,1.5181,1.5181,1.5181,1.5181,1.5181,1.5181,1.5181,1.5181,0.0,0.0,0.0,0.0,0.0,0.0,0.0,0.0,0.0,2.4636,2.4636,2.4636,2.4636,2.4636,2.4636,2.4636,2.4636,2.4676,2.4783,2.5064,2.5358,2.5651,2.5945,2.6186,2.6386,2.6386,2.6386,2.6386,2.6386,2.6386,2.6386,2.6386,2.6386,2.6386,2.6493,2.6533,2.6547,2.664,2.6627,2.656,2.6854,2.7028,2.7134,0.0,0.0,0.0,0.0,0.0,0.0,0.0,0.0,0.0,0.0,0.0,0.0,0.0,0.0,0.0,0.0,0.0,0.0,0.0,0.0,0.0,0.0,0.0,0.0,0.0,0.0,0.0,0.0,0.0,0.0,0.0,0.0,0.0,0.0,0.0,2.1507,1.9952,1.9894,1.8693,1.5556,1.6658,1.7577,1.7577,1.6104,1.5924,1.7577,1.6104,1.5181,1.5181,1.5181,1.5181,1.5181,1.5181,1.5181,1.5181,1.5181,1.5181,1.5181,1.5181,1.5181,1.5181,1.5181,1.5181,1.5181,1.5181,1.5181,1.5181,1.5181,1.5181,1.5181,1.5181,1.5181,1.5181,0.0,0.0,0.0,0.0,0.0,0.0,0.0,0.0,2.4636,2.4636,2.4636,2.4636,2.4636,2.4636,2.4636,2.4636,2.4649,2.477,2.5064,2.5358,2.5665,2.5959,2.6239,2.6386,2.6386,2.6386,2.6386,2.6386,2.6386,2.6386,2.6386,2.64,2.64,2.6413,2.6707,2.6841,2.6854,2.7148,2.7108,2.6867,2.7161,2.7442,2.7696,0.0,0.0,0.0,0.0,0.0,0.0,0.0,0.0,0.0,0.0,0.0,0.0,0.0,0.0,0.0,0.0,0.0,0.0,0.0,0.0,0.0,0.0,0.0,0.0,0.0,0.0,0.0,0.0,0.0,0.0,0.0,0.0,0.0,2.1698,2.2031,2.0482,1.5903,1.5368,1.5368,1.5181,1.5181,1.5368,1.5181,1.5181,1.5181,1.5181,1.5181,1.5181,1.5181,1.5181,1.5181,1.5181,1.5181,1.5181,1.5181,1.5181,1.5181,1.5181,1.5181,1.5181,1.5181,1.5181,1.5181,1.5181,1.5181,1.5181,1.5181,1.5181,1.5181,1.5181,1.5181,1.5181,1.5181,0.0,0.0,0.0,0.0,0.0,0.0,0.0,2.4636,2.4636,2.4636,2.4636,2.4636,2.4636,2.4636,2.4636,2.4636,2.4836,2.4997,2.5077,2.5558,2.5959,2.6253,2.6346,2.6386,2.6386,2.6386,2.6386,2.6386,2.6386,2.6386,2.6386,2.66,2.6707,2.672,2.7014,2.7148,2.7161,2.7455,2.7535,2.7468,2.7549,2.7629,2.7722,0.0,0.0,0.0,0.0,0.0,0.0,0.0,0.0,0.0,0.0,0.0,0.0,0.0,0.0,0.0,0.0,0.0,0.0,0.0,0.0,0.0,0.0,0.0,0.0,0.0,0.0,0.0,0.0,0.0,0.0,0.0,0.0,2.3075,2.0262,2.1356,2.1201,1.8313,1.9427,1.9065,1.5556,1.6845,1.7211,1.5368,1.5181,1.5181,1.5181,1.5181,1.5181,1.5181,1.5181,1.5181,1.5181,1.5181,1.5181,1.5181,1.5181,1.5181,1.5181,1.5181,1.5181,1.5181,1.5181,1.5181,1.5181,1.5181,1.5181,1.5181,1.5181,1.5181,1.5181,1.5181,1.5181,1.5181,0.0,0.0,0.0,0.0,0.0,0.0,0.0,2.4636,2.4636,2.4636,2.4636,2.4636,2.4636,2.4636,2.469,2.481,2.4983,2.5184,2.5424,2.5879,2.6213,2.6386,2.6386,2.6386,2.6386,2.6386,2.6386,2.6386,2.6386,2.6453,2.6573,2.6747,2.6894,2.7028,2.7308,2.7442,2.7468,2.7762,2.7883,2.7883,2.7883,2.7883,2.7896,2.8083,2.8136,2.8136,2.8136,2.8136,2.8136,2.8136,0.0,0.0,0.0,0.0,0.0,0.0,0.0,0.0,0.0,0.0,0.0,0.0,0.0,0.0,0.0,0.0,0.0,0.0,0.0,0.0,0.0,0.0,0.0,0.0,2.2923,2.2178,1.9233,2.0899,2.1267,1.7763,1.9427,1.9427,1.5549,1.6471,1.6658,1.5368,1.5181,1.5181,1.5181,1.5181,1.5181,1.5181,1.5242,1.5276,1.5276,1.5343,1.5371,1.5371,1.5371,1.5371,1.5371,1.5371,1.5371,0.0,1.5371,1.5371,1.5371,1.5371,1.5371,0.0,0.0,0.0,0.0,0.0,1.5181,1.5181,0.0,0.0,0.0,0.0,0.0,0.0,0.0,0.0,2.4636,2.4636,2.4636,2.4636,2.4636,2.4663,2.4796,2.5064,2.5144,2.5411,2.5972,2.6239,2.6386,2.6386,2.6386,2.6386,2.6386,2.6386,2.6386,2.6386,2.6426,2.6573,2.6827,2.6894,2.7068,2.7321,2.7615,2.7749,2.7762,2.803,2.8136,2.8136,2.8136,2.8136,2.8136,2.8136,2.8136,2.8136,2.8136,2.8136,2.8136,2.8136,0.0,0.0,0.0,0.0,0.0,0.0,0.0,0.0,0.0,0.0,0.0,0.0,0.0,0.0,0.0,0.0,0.0,0.0,0.0,0.0,0.0,0.0,0.0,0.0,2.0159,1.8871,1.8499,2.0529,2.0344,1.5737,1.7398,1.7949,1.5368,1.5368,1.5556,1.5181,1.5181,1.5187,1.5208,0.0,0.0,0.0,0.0,1.5438,1.5438,1.5567,1.5642,1.5642,1.5642,1.5642,1.5642,1.5642,1.5642,1.5642,1.5642,1.5642,1.5642,1.5642,1.5642,1.5615,1.5343,1.5221,1.5208,1.5208,1.5194,1.5181,0.0,0.0,0.0,0.0,0.0,0.0,0.0,0.0,2.4636,2.4636,2.4636,2.4636,2.4636,2.485,2.5024,2.5077,2.5518,2.5932,2.6279,2.636,2.6386,2.6386,2.6386,2.6386,2.6386,2.6386,2.6386,2.6386,2.6627,2.6774,2.6827,2.7308,2.7562,2.7629,2.7923,2.8056,2.8056,2.8123,2.8136,2.8136,2.8136,2.8136,2.8136,2.8136,2.8136,2.8136,2.8136,2.8136,2.8136,2.8136,2.831,2.8524,2.8524,2.8724,0.0,0.0,0.0,0.0,0.0,0.0,0.0,0.0,0.0,0.0,0.0,0.0,0.0,0.0,0.0,0.0,0.0,0.0,0.0,1.7584,1.7949,1.8135,1.6292,1.7949,1.8499,1.5556,1.7398,1.7949,1.5368,1.7025,1.7398,1.5368,1.5181,1.5235,1.5357,1.5364,0.0,1.5547,1.5581,1.5594,1.5594,1.5628,1.5642,1.5642,0.0,0.0,1.5642,1.5642,1.5642,1.5642,1.5642,1.5642,1.5642,1.5642,1.5642,1.5635,1.5574,1.5479,1.5364,1.5364,1.5289,1.5181,0.0,0.0,0.0,0.0,0.0,0.0,0.0,0.0,2.4636,2.4636,2.4636,2.469,2.4836,2.4997,2.5197,2.5491,2.5919,2.6239,2.6373,2.6386,2.6386,2.6386,2.6386,2.6386,2.6386,2.6386,2.6466,2.66,2.6747,2.6974,2.7268,2.7562,2.7776,2.7923,2.8083,2.8136,2.8136,2.8136,2.8136,2.8136,2.8136,2.8136,2.8136,2.8136,2.8136,2.8136,2.8136,2.8243,2.8377,2.8377,2.8577,2.8818,2.8818,2.9018,2.9259,0.0,0.0,0.0,0.0,0.0,0.0,0.0,0.0,0.0,0.0,0.0,0.0,0.0,0.0,2.2178,2.0899,0.0,2.1258,1.7577,1.7025,1.7025,1.7025,1.7025,1.6658,1.5368,1.7398,1.7949,1.5368,1.6365,1.6597,1.5296,1.5364,1.5445,1.552,1.5527,1.556,1.5635,1.571,1.5744,1.5744,1.5825,1.5859,1.5859,1.5859,1.5859,1.5859,1.5859,1.5859,1.5859,1.5859,1.5859,1.5859,1.5859,1.5859,1.5859,1.5859,1.5723,1.5527,1.5527,1.5479,1.5398,0.0,0.0,0.0,0.0,0.0,0.0,0.0,0.0,0.0,2.4636,2.469,2.481,2.505,2.5184,2.5464,2.5999,2.6253,2.6386,2.6386,2.6386,2.6386,2.6386,2.6386,2.6386,2.6386,2.644,2.6587,2.6827,2.6934,2.7228,2.7696,2.7762,2.7909,2.8136,2.8136,2.8136,2.8136,2.8136,2.8136,2.8136,2.8136,2.8136,2.815,2.8217,2.819,2.815,2.8217,2.839,2.8617,2.8671,2.8885,2.9125,2.9125,2.9325,2.9566,2.9566,2.9726,0.0,0.0,0.0,0.0,0.0,0.0,0.0,0.0,0.0,2.3106,2.5127,2.2362,1.9604,1.9604,1.9233,1.8685,1.8313,1.6471,1.5931,1.7997,1.6523,1.5242,1.5269,1.7101,1.746,1.5458,1.5384,1.5452,1.5452,1.5567,1.5649,1.5676,1.5683,1.5696,1.5723,1.5839,1.59,1.59,1.6022,1.6083,1.6083,1.6083,1.6083,1.6083,1.6083,1.6083,1.6083,1.6083,1.6083,1.6083,1.6083,1.6083,1.6083,1.6083,1.5934,1.5723,1.5689,1.5662,1.5622,0.0,0.0,0.0,0.0,0.0,0.0,0.0,0.0,0.0,2.4636,2.4863,2.5037,2.5077,2.5545,2.5985,2.6319,2.6373,2.6386,2.6386,2.6386,2.6386,2.6386,2.6386,2.6386,2.6386,2.664,2.6787,2.6827,2.7348,2.7629,2.7709,2.7963,2.811,2.8136,2.8136,2.8136,2.8136,2.8136,2.8136,2.8136,2.8136,2.8136,2.8177,2.8444,2.8377,2.8177,2.8457,2.8577,2.8644,2.8898,2.9192,2.9432,2.9432,2.9633,2.9873,2.9873,2.9887,2.9913,2.9913,2.8256,2.6604,2.6604,2.4945,2.2739,0.0,0.0,2.2556,2.2933,2.2556,2.2188,2.2188,2.0344,1.8127,1.5917,1.5368,1.5416,1.5737,1.5574,1.5438,1.5574,1.5657,1.5813,1.5574,1.5601,1.5615,1.5615,1.5628,1.5696,1.5825,1.5832,1.5893,1.6029,1.6049,1.6056,1.6056,1.6076,1.6083,1.6083,1.6083,1.6083,1.6083,1.6083,1.6083,1.6083,1.6083,1.6083,1.6083,1.6083,1.6083,1.6083,1.6083,1.6062,1.6015,1.5879,1.575,1.5635,0.0,0.0,0.0,0.0,0.0,0.0,0.0,0.0,0.0,0.0,0.0,2.5398,2.5571,2.5959,2.6253,2.6373,2.6386,2.6386,2.6386,2.6386,2.6386,2.6386,2.6386,2.6466,2.664,2.676,2.6987,2.7335,2.7575,2.7789,2.7963,2.8083,2.8136,2.8136,2.8136,2.8136,2.8136,2.8136,2.8136,2.8136,2.8136,2.8136,2.8177,2.8484,2.8524,2.8457,2.8751,2.8965,0.0,2.9259,2.9486,2.974,2.974,2.982,2.9913,2.9913,2.9913,2.9913,2.9913,2.9169,2.8436,2.8436,2.7521,2.6592,2.5491,2.3838,2.2556,2.2566,2.0353,1.8321,1.8321,1.7398,1.6508,0.0,1.5316,1.5371,1.552,1.5547,1.5601,1.5744,1.571,1.5662,1.5642,1.5716,1.5764,1.5764,1.5845,1.592,1.5981,1.5988,1.6015,1.6083,1.6083,1.6083,1.6083,1.6083,1.6083,1.6083,1.6083,1.6083,1.6083,1.6083,1.6083,1.6083,1.6083,1.6083,1.6083,1.6083,1.6083,1.6083,1.6083,1.6083,1.6076,1.6008,1.5947,1.5886,0.0,0.0,0.0,0.0,0.0,0.0,0.0,0.0,0.0,0.0,0.0,0.0,0.0,2.6266,2.6386,2.6386,2.6386,2.6386,2.6386,2.6386,2.6386,2.6386,2.6386,2.6533,2.6814,2.6907,2.7188,2.7696,2.7776,2.7936,2.8136,2.8136,2.8136,2.8136,2.8136,2.8136,2.8136,2.8136,2.8136,2.8136,2.8136,2.819,2.831,2.8617,2.8778,2.8871,2.9085,2.9299,2.9499,2.9579,2.974,2.9913,2.9913,2.9913,2.9913,2.9913,2.9913,2.9913,2.9913,2.9362,2.8809,2.8809,2.8436,2.7702,2.6966,2.5127,2.3289,2.2739,2.0353,1.7949,1.7398,1.6696,1.6024,1.5581,1.5445,1.5527,1.5676,1.5696,1.575,1.59,1.592,1.5872,1.5771,1.5859,1.592,1.592,1.6022,1.6083,1.6083,1.6083,1.6083,1.6083,1.6083,1.6083,1.6083,1.6083,1.6083,1.6083,1.6083,1.6083,1.6083,1.6083,1.6083,1.6083,1.6083,1.6083,1.6083,1.6083,1.6083,1.6083,1.6083,1.6083,1.6083,1.6083,1.6083,1.6069,0.0,0.0,0.0,0.0,0.0,0.0,0.0,0.0,0.0,0.0,0.0,0.0,0.0,0.0,2.6386,2.6386,2.6386,2.6386,2.6386,2.6386,2.6386,2.6386,2.6386,2.6533,2.6814,2.7108,2.7402,2.7696,2.7989,2.8136,2.8136,2.8136,2.8136,2.8136,2.8136,2.8136,2.8136,2.8136,2.8136,2.8136,2.8136,2.8323,2.8631,2.8911,2.9205,2.9459,2.9459,2.9472,2.9526,2.9806,2.9913,2.9913,2.9913,2.9913,2.9913,2.9913,2.9913,2.9913,2.9913,2.8076,2.6229,2.6229,2.458,2.2188,1.9789,2.2729,2.5491,2.2923,2.4204,2.5127,2.2739,2.0508,1.8214,1.5786,1.5533,1.5683,1.5825,1.5845,1.5906,1.6056,1.6076,1.6076,0.0,1.6076,1.6076,1.6076,1.6083,1.6083,1.6083,1.6083,1.6083,1.6083,1.6083,1.6083,1.6083,1.6083,1.6083,1.6083,1.6083,1.6083,1.6083,1.6083,1.6083,1.6083,1.6083,1.6083,1.6083,1.6083,1.6083,1.6083,1.6083,1.6083,1.6083,1.6083,1.6083,1.6083,0.0,0.0,0.0,0.0,0.0,0.0,0.0,0.0,0.0,0.0,0.0,0.0,0.0,0.0,0.0,0.0,2.6386,2.6386,2.6386,2.6386,2.6386,2.6386,2.6573,2.6814,2.7108,2.7402,2.7696,2.7989,2.8096,2.8136,2.8136,2.8136,2.8136,2.8136,2.8136,2.8136,2.8136,2.8136,2.8136,2.8163,2.8364,2.8511,2.8657,2.9152,2.9392,2.9513,0.0,2.9766,2.978,2.9887,2.9913,2.9913,2.9913,2.9913,2.9913,2.9913,2.9913,2.9913,2.9913,2.9362,2.8629,2.8629,2.8076,2.7148,2.6411,2.6229,2.5491,2.2923,2.3415,2.2778,1.8502,1.865,1.8615,1.607,1.5744,1.5832,1.5981,1.6001,1.6022,1.6076,1.6083,0.0,0.0,0.0,0.0,1.6083,1.6083,1.6083,1.6083,1.6083,1.6083,1.6083,1.6083,1.6083,1.6083,1.6083,1.6083,1.6083,1.6083,1.6083,1.6083,1.6083,1.6083,1.6083,1.6083,1.6083,1.6083,1.6083,1.6083,1.6083,1.6083,1.6083,1.6083,1.6083,1.6083,1.6083,0.0,0.0,0.0,0.0,0.0,0.0,0.0,0.0,0.0,0.0,0.0,0.0,0.0,0.0,0.0,0.0,0.0,2.6386,2.6386,2.6386,2.644,2.6547,2.672,2.7014,2.7415,2.7602,2.7843,2.8136,2.8136,2.8136,2.8136,2.8136,2.8136,2.8136,2.8136,2.8136,2.8136,2.8136,2.8203,2.8323,2.8524,2.8738,2.8965,2.9339,2.9553,0.0,2.9847,2.9913,2.9913,2.9913,2.9913,2.9913,2.9913,2.9913,2.9913,2.9913,2.9913,2.9913,0.0,2.9913,2.9913,2.9913,2.9913,2.9734,2.8809,2.8076,2.6628,2.321,2.4269,2.4027,1.9053,1.9586,2.0141,1.7771,1.6482,1.5967,1.6069,1.6083,1.6083,1.6083,1.6083,1.6083,0.0,0.0,0.0,1.6083,1.6083,1.6083,1.6083,1.6083,1.6083,1.6083,1.6083,1.6083,1.6083,1.6083,1.6083,1.6083,1.6083,1.6083,1.6083,1.6083,1.6083,1.6083,1.6083,1.6083,1.6083,1.6083,1.6083,1.6083,1.6083,1.6083,1.6083,1.6083,1.6083,1.6083,0.0,0.0,0.0,0.0,0.0,0.0,0.0,0.0,0.0,0.0,0.0,0.0,0.0,0.0,0.0,0.0,0.0,0.0,2.6386,2.6386,2.652,2.6814,2.6841,2.7108,2.7682,2.7709,2.7856,2.8136,2.8136,2.8136,2.8136,2.8136,2.8136,2.8136,2.8136,2.8136,2.8136,2.8136,2.8323,2.8604,2.8617,2.8978,2.9486,2.9499,2.9673,2.9913,2.9913,2.9913,2.9913,2.9913,2.9913,2.9913,2.9913,2.9913,2.9913,2.9913,2.9913,2.9913,2.9913,2.9913,2.9913,2.9913,2.9913,2.9362,2.6966,2.8256,2.8513,2.3952,2.6997,2.8958,0.0,0.0,2.2606,2.0113,1.7545,1.6083,1.6083,1.6083,1.6083,0.0,0.0,0.0,0.0,0.0,0.0,1.6083,0.0,1.6083,1.6083,1.6083,1.6083,1.6083,1.6083,1.6083,1.6083,1.6083,1.6083,1.6083,1.6083,1.6083,1.6083,1.6083,1.6083,1.6083,1.6083,1.6083,1.6083,1.6083,1.6083,1.6083,1.6083,1.6083,1.6083,1.6083,1.6083,1.6083,0.0,0.0,0.0,0.0,0.0,0.0,0.0,0.0,0.0,0.0,0.0,0.0,0.0,0.0,0.0,0.0,0.0,0.0,2.6386,2.6386,2.652,2.6814,2.7028,2.7321,2.7696,2.7909,2.807,2.8136,2.8136,2.8136,2.8136,2.8136,2.8136,2.8136,2.8136,2.8136,2.8136,2.8136,2.8323,2.8631,2.8845,2.9152,2.9513,2.9726,2.9847,2.9913,2.9913,2.9913,2.9913,2.9913,2.9913,2.9913,2.9913,2.9913,2.9913,0.0,0.0,2.9913,2.9913,2.9913,2.9913,2.9913,2.9913,2.9734,2.9182,2.9362,2.908,2.6375,2.8457,2.8681,2.1896,0.0,0.0,1.778,1.6446,0.0,1.6083,1.6083,0.0,1.6083,0.0,1.6083,1.6083,1.6083,0.0,0.0,1.6083,1.6083,1.6083,1.6083,1.6083,1.6083,1.6083,1.6083,1.6083,1.6083,1.6083,1.6083,1.6083,1.6083,1.6083,1.6083,1.6083,1.6083,1.6083,1.6083,1.6083,1.6083,1.6083,1.6083,1.6083,1.6083,1.6083,1.6083,1.6083,1.6083,0.0,0.0,0.0,0.0,0.0,0.0,0.0,0.0,0.0,0.0,0.0,0.0,0.0,0.0,0.0,0.0,0.0,0.0,0.0,2.6386,2.6573,2.7001,2.7175,2.7455,2.7883,2.8056,2.8136,2.8136,2.8136,2.8136,2.8136,2.8136,2.8136,2.8136,2.8136,2.8136,2.8136,2.8136,2.8323,0.0,0.0,2.9219,2.9513,2.9806,2.9913,2.9913,2.9913,2.9913,2.9913,2.9913,2.9913,2.9913,2.9913,2.9913,2.9913,2.9913,0.0,2.9913,2.9913,2.9913,2.9913,2.9913,2.9913,2.9953,3.0087,3.0114,2.9482,2.7445,2.9153,2.9355,2.4235,2.4573,0.0,0.0,0.0,0.0,1.6275,1.6083,1.6083,0.0,1.6083,0.0,1.6083,1.6083,1.6083,0.0,1.6083,1.6083,1.6083,1.6144,1.6185,1.6185,1.6239,1.6273,1.6273,1.6273,1.6273,1.6273,1.6273,1.6273,1.6273,1.6212,1.6185,1.6178,0.0,1.6083,1.6083,1.6083,1.6083,1.6083,1.6083,1.6083,1.6083,1.6083,1.6083,1.6083,0.0,0.0,0.0,0.0,0.0,0.0,0.0,0.0,0.0,0.0,0.0,0.0,0.0,0.0,0.0,0.0,0.0,0.0,0.0,0.0,0.0,2.7241,2.7268,2.7535,2.8123,2.8136,2.8136,2.8136,2.8136,2.8136,2.8136,2.8136,2.8136,2.8136,2.8136,2.8136,2.8136,2.8136,2.8323,2.8631,2.8925,2.9219,2.9513,0.0,2.9913,2.9913,2.9913,2.9913,2.9913,2.9913,2.9913,2.9913,2.9913,2.9913,2.9913,2.9913,2.9913,2.9913,2.9913,2.9913,2.9913,2.9913,2.9913,2.9993,3.0287,3.0354,2.9965,2.8241,2.9695,3.0538,2.8308,2.778,2.6999,2.4269,0.0,1.9199,1.6864,1.6275,1.6083,1.6083,1.6083,1.6083,1.6083,1.6083,1.609,1.611,1.611,1.611,1.611,1.6252,1.6341,1.6341,1.6456,1.6524,1.6524,1.6524,1.6524,1.6524,1.6524,1.6524,1.6517,1.6395,1.6341,1.6327,0.0,0.0,1.611,1.609,1.6083,1.6083,1.6083,1.6083,1.6083,1.6083,1.6083,1.6083,0.0,0.0,0.0,0.0,0.0,0.0,0.0,0.0,0.0,0.0,0.0,0.0,0.0,0.0,0.0,0.0,0.0,0.0,0.0,0.0,0.0,0.0,2.7268,2.7535,2.8123,2.8136,2.8136,2.8136,2.8136,2.8136,2.8136,2.8136,2.8136,2.8136,2.8136,2.8136,2.8136,2.8136,2.8323,2.8631,2.8925,2.9219,2.9513,2.9806,0.0,0.0,2.9913,2.9913,2.9913,2.9913,2.9913,2.9913,2.9913,2.9913,2.9913,2.9913,2.9913,2.9913,2.9913,2.9913,2.9913,2.9913,2.9913,2.9993,3.0287,3.0354,3.0332,3.0529,3.0848,3.0538,2.8308,2.778,2.6999,2.4269,2.1735,1.9782,1.9396,1.7452,1.6083,0.0,1.6083,1.6083,1.6083,1.6083,0.0,0.0,0.0,0.0,1.6273,1.6408,1.6483,1.6483,1.651,1.6524,1.6524,1.6524,1.6524,1.6524,1.6524,1.6524,1.6524,1.6497,1.6483,1.6476,0.0,0.0,1.6259,1.6137,1.6083,1.6083,1.6083,1.6083,1.6083,1.6083,1.6083,1.6083,0.0,0.0,0.0,0.0,0.0,0.0,0.0,0.0,0.0,0.0,0.0,0.0,0.0,0.0,0.0,0.0,0.0,0.0,0.0,0.0,0.0,0.0,0.0,0.0,0.0,2.8136,2.8136,2.8136,0.0,2.8136,2.8136,2.8136,2.8136,2.8136,2.8136,2.8136,2.8136,2.8136,2.823,2.8404,2.8858,2.9125,2.9299,0.0,0.0,0.0,0.0,2.9913,2.9913,2.9913,2.9913,2.9913,2.9913,2.9913,2.9913,2.9913,2.9913,2.9913,2.9913,2.9913,2.9913,2.9913,2.9913,3.0034,3.0488,3.0581,3.0755,3.133,3.145,3.1112,3.009,2.9911,2.8943,2.6409,2.3686,2.1539,2.0175,1.784,1.6083,1.6083,1.6083,1.6083,1.6083,1.6083,0.0,0.0,0.0,0.0,1.6422,1.6558,1.6673,1.6761,1.6761,1.6761,1.6761,1.6761,1.6761,1.6761,1.6761,1.6761,1.6761,1.6673,1.6639,1.6632,1.6483,0.0,1.6307,1.6232,1.6151,1.6083,1.6083,1.6083,1.6083,1.6083,1.6083,1.6083,0.0,0.0,0.0,0.0,0.0,0.0,0.0,0.0,0.0,0.0,0.0,0.0,0.0,0.0,0.0,0.0,0.0,0.0,0.0,0.0,0.0,0.0,0.0,0.0,0.0,0.0,0.0,0.0,0.0,0.0,0.0,0.0,0.0,0.0,0.0,2.8136,2.8136,2.8136,2.8136,0.0,0.0,2.8991,0.0,0.0,0.0,0.0,0.0,2.9913,2.9913,2.9913,2.9913,2.9913,2.9913,2.9913,2.9913,2.9913,2.9913,2.9913,2.9913,2.9913,2.9913,2.9913,2.9913,3.0074,3.0662,3.0795,3.0955,3.1543,3.1664,3.1664,3.1664,3.1664,3.108,2.8943,2.6409,2.388,2.1147,1.8616,1.6665,1.6083,1.6083,0.0,1.6083,1.6083,0.0,0.0,0.0,0.0,0.0,1.6734,1.6856,1.6978,1.6978,1.6978,1.6978,1.6978,1.6978,1.6978,1.6978,1.6978,1.6978,1.6856,1.6802,1.6788,1.6639,0.0,0.0,1.632,1.6218,1.6083,1.6083,1.6083,1.6083,1.6083,1.6083,1.6083,0.0,0.0,0.0,0.0,0.0,0.0,0.0,0.0,0.0,0.0,0.0,0.0,0.0,0.0,0.0,0.0,0.0,0.0,0.0,0.0,0.0,0.0,0.0,0.0,0.0,0.0,0.0,0.0,0.0,0.0,0.0,0.0,0.0,0.0,0.0,0.0,0.0,2.8136,0.0,0.0,0.0,0.0,0.0,0.0,0.0,0.0,0.0,0.0,2.9913,2.9913,2.9913,2.9913,2.9913,2.9913,2.9913,2.9913,2.9913,2.9913,2.9913,2.9913,2.9913,2.9913,2.9913,3.0074,3.0662,3.0795,3.0955,3.1543,3.1664,3.1664,3.1664,3.1664,3.1664,3.1474,2.9135,2.6602,2.388,2.1343,1.8813,1.6474,0.0,0.0,1.6083,1.6083,0.0,0.0,0.0,0.0,0.0,1.6951,1.6965,1.6978,1.6978,1.6978,1.6978,1.6978,1.6978,1.6978,1.6978,1.6978,1.6978,1.6965,1.6958,1.6951,0.0,0.0,0.0,1.6361,1.6218,1.6083,1.6083,1.6083,1.6083,1.6083,1.6083,1.6083,0.0,0.0,0.0,0.0,0.0,0.0,0.0,0.0,0.0,0.0,0.0,0.0,0.0,0.0,0.0,0.0,0.0,0.0,0.0,0.0,0.0,0.0,0.0,0.0,0.0,0.0,0.0,0.0,0.0,0.0,0.0,0.0,0.0,0.0,0.0,0.0,0.0,0.0,0.0,0.0,0.0,0.0,0.0,0.0,0.0,0.0,0.0,0.0,0.0,2.9913,2.9913,2.9913,2.9913,2.9913,2.9913,2.9913,2.9913,2.9913,2.9913,2.9913,2.9913,2.9913,2.9913,3.0074,3.0662,3.0795,3.0955,3.1543,3.1664,3.1664,3.1664,3.1664,3.1664,3.1664,2.9529,2.7384,2.6409,2.4074,2.1343,1.8813,1.8418,0.0,0.0,0.0,0.0,0.0,0.0,0.0,0.0,1.6978,1.6978,1.6978,1.6978,1.6978,1.6978,1.6978,1.6978,1.6978,1.6978,1.6978,1.6978,1.6978,1.6978,1.6978,0.0,0.0,0.0,1.6463,1.6293,1.6083,1.6083,1.6083,1.6083,1.6083,1.6083,1.6083,0.0,0.0,0.0,0.0,0.0,0.0,0.0,0.0,0.0,0.0,0.0,0.0,0.0,0.0,0.0,0.0,0.0,0.0,0.0,0.0,0.0,0.0,0.0,0.0,0.0,0.0,0.0,0.0,0.0,0.0,0.0,0.0,0.0,0.0,0.0,0.0,0.0,0.0,0.0,0.0,0.0,0.0,0.0,0.0,0.0,0.0,0.0,0.0,0.0,0.0,0.0,2.9913,2.9913,2.9913,2.9913,2.9913,2.9913,2.9913,2.9913,2.9913,2.9913,2.9913,2.9913,3.0047,3.0555,3.0728,3.0929,3.1436,3.161,3.1664,3.1664,3.1664,3.1664,3.1664,3.0115,2.8752,2.7972,2.6216,2.388,2.0363,0.0,0.0,0.0,0.0,0.0,0.0,0.0,0.0,0.0,1.691,1.6931,1.6978,1.6978,1.6978,1.6978,1.6978,1.6978,1.6978,1.6978,1.6978,1.6978,1.6978,1.6978,1.6978,0.0,0.0,0.0,1.6476,1.6313,1.6083,1.6083,1.6083,1.6083,1.6083,1.6083,1.6083,0.0,0.0,0.0,0.0,0.0,0.0,0.0,0.0,0.0,0.0,0.0,0.0,0.0,0.0,0.0,0.0,0.0,0.0,0.0,0.0,0.0,0.0,0.0,0.0,0.0,0.0,0.0,0.0,0.0,0.0,0.0,0.0,0.0,0.0,0.0,0.0,0.0,0.0,0.0,0.0,0.0,0.0,0.0,0.0,0.0,0.0,0.0,0.0,0.0,0.0,0.0,0.0,0.0,2.9913,2.9913,2.9913,2.9913,2.9913,2.9913,2.9913,2.9913,2.9913,2.9913,2.9993,3.0301,3.0581,3.0875,3.1169,3.1463,3.1664,3.1664,3.1664,3.1664,3.1664,3.1677,3.07,2.8164,2.778,2.5829,0.0,0.0,0.0,0.0,0.0,0.0,0.0,0.0,0.0,0.0,0.0,1.6822,1.6978,1.6978,1.6978,1.6978,1.6978,1.6978,1.6978,1.6978,1.6978,1.6978,1.6978,1.6978,0.0,0.0,0.0,0.0,1.6368,1.6218,1.6083,1.6083,1.6083,1.6083,1.6083,1.6083,1.6083,0.0,0.0,0.0,0.0,0.0,0.0,0.0,0.0,0.0,0.0,0.0,0.0,0.0,0.0,0.0,0.0,0.0,0.0,0.0,0.0,0.0,0.0,0.0,0.0,0.0,0.0,0.0,0.0,0.0,0.0,0.0,0.0,0.0,0.0,0.0,0.0,0.0,0.0,0.0,0.0,0.0,0.0,0.0,0.0,0.0,0.0,0.0,0.0,0.0,0.0,0.0,0.0,0.0,0.0,0.0,2.9913,2.9913,2.9913,2.9913,2.9913,2.9913,2.9913,2.9913,2.9993,3.0287,3.0434,3.0635,3.1129,3.1303,3.1423,3.1637,3.1664,3.1664,3.1664,3.1664,3.1474,3.0509,2.8943,0.0,0.0,0.0,0.0,0.0,0.0,0.0,0.0,0.0,0.0,0.0,0.0,1.6714,1.6971,1.6978,1.6978,1.6978,1.6978,1.6978,1.6978,1.6978,1.6978,1.6978,1.687,0.0,0.0,0.0,0.0,0.0,1.6327,1.6218,1.6083,1.6083,1.6083,1.6083,1.6083,1.6083,1.6083,0.0,0.0,0.0,0.0,0.0,0.0,0.0,0.0,0.0,0.0,0.0,0.0,0.0,0.0,0.0,0.0,0.0,0.0,0.0,0.0,0.0,0.0,0.0,0.0,0.0,0.0,0.0,0.0,0.0,0.0,0.0,0.0,0.0,0.0,0.0,0.0,0.0,0.0,0.0,0.0,0.0,0.0,0.0,0.0,0.0,0.0,0.0,0.0,0.0,0.0,0.0,0.0,0.0,0.0,0.0,0.0,2.9913,2.9913,2.9913,2.9913,2.9913,2.9913,2.9913,2.9967,3.0154,3.0274,3.0461,3.0822,3.1076,3.1276,3.1463,3.1597,3.1664,3.1664,3.1664,3.1664,3.1664,0.0,0.0,0.0,0.0,0.0,0.0,0.0,0.0,0.0,0.0,0.0,0.0,0.0,1.6551,1.6802,1.6809,1.6809,1.6809,1.6809,1.6809,1.6809,1.6809,1.6809,1.6802,1.6707,0.0,0.0,0.0,0.0,0.0,1.6246,1.6171,1.6083,1.6083,1.6083,1.6083,1.6083,1.6083,1.6083,0.0,0.0,0.0,0.0,0.0,0.0,0.0,0.0,0.0,0.0,0.0,0.0,0.0,0.0,0.0,0.0,0.0,0.0,0.0,0.0,0.0,0.0,0.0,0.0,0.0,0.0,0.0,0.0,2.6787,2.6947,2.7241,0.0,0.0,0.0,0.0,0.0,0.0,0.0,0.0,0.0,0.0,0.0,0.0,0.0,0.0,0.0,0.0,0.0,0.0,0.0,0.0,0.0,0.0,0.0,0.0,0.0,0.0,0.0,0.0,2.9913,2.9913,2.9913,2.9913,2.9913,2.9913,3.0127,0.0,3.0354,3.0808,3.1196,3.1223,3.1463,3.1664,3.1664,3.1664,3.1664,3.1664,2.9338,0.0,0.0,0.0,0.0,0.0,0.0,0.0,0.0,0.0,0.0,0.0,0.0,0.0,1.6483,1.649,1.6503,1.6524,1.6524,1.6524,1.6524,1.6524,1.6524,1.6524,1.651,0.0,0.0,0.0,0.0,0.0,1.6137,1.6083,1.6083,1.6083,1.6083,1.6083,1.6083,1.6083,1.6083,0.0,0.0,0.0,0.0,0.0,0.0,0.0,0.0,0.0,0.0,0.0,0.0,0.0,0.0,0.0,0.0,0.0,0.0,0.0,0.0,0.0,0.0,0.0,0.0,0.0,0.0,0.0,2.6493,2.6493,2.664,2.6934,2.7001,0.0,0.0,0.0,0.0,0.0,0.0,0.0,0.0,0.0,0.0,0.0,0.0,0.0,0.0,2.9045,2.9339,0.0,0.0,0.0,0.0,0.0,0.0,0.0,0.0,2.9913,0.0,2.9913,0.0,2.9913,2.9913,2.9913,2.9913,0.0,2.9967,3.0087,3.0314,3.0648,3.0969,3.1183,3.1463,3.1664,3.1664,3.1664,3.1664,3.1664,0.0,0.0,0.0,0.0,0.0,0.0,0.0,0.0,0.0,0.0,0.0,0.0,0.0,0.0,1.6185,1.6185,1.6293,1.6517,1.6524,1.6524,1.6524,1.6524,1.6524,1.6517,1.6408,0.0,0.0,0.0,0.0,1.613,1.6096,1.6083,1.6083,1.6083,1.6083,1.6083,1.6083,1.6083,1.6083,0.0,0.0,0.0,0.0,0.0,0.0,0.0,0.0,0.0,0.0,0.0,0.0,0.0,0.0,0.0,0.0,0.0,0.0,0.0,0.0,0.0,0.0,0.0,0.0,0.0,0.0,0.0,0.0,0.0,2.6466,0.0,0.0,0.0,0.0,0.0,0.0,0.0,0.0,0.0,0.0,0.0,0.0,0.0,0.0,0.0,0.0,2.8778,2.9112,0.0,2.9659,2.9806,2.9913,0.0,0.0,0.0,0.0,2.9913,0.0,0.0,2.9913,2.9913,2.9913,2.9913,2.9913,2.9913,2.9913,2.9967,3.0127,3.0394,3.0688,3.0969,3.1263,3.1517,3.165,3.1664,3.1284,0.0,0.0,0.0,0.0,0.0,0.0,0.0,0.0,0.0,0.0,0.0,0.0,0.0,0.0,0.0,0.0,1.6083,1.6157,1.632,1.632,1.632,1.632,1.632,1.632,1.632,1.6239,0.0,0.0,0.0,0.0,1.6083,1.6083,1.6083,1.6083,1.6083,1.6083,1.6083,1.6083,1.6083,1.6083,0.0,0.0,0.0,0.0,0.0,0.0,0.0,0.0,0.0,0.0,0.0,0.0,0.0,0.0,0.0,0.0,0.0,0.0,0.0,0.0,0.0,0.0,0.0,0.0,0.0,0.0,0.0,0.0,0.0,0.0,0.0,0.0,2.6934,0.0,0.0,0.0,0.0,0.0,0.0,0.0,0.0,0.0,0.0,0.0,0.0,0.0,0.0,0.0,0.0,2.9472,2.9673,2.9913,2.9913,0.0,0.0,0.0,0.0,0.0,2.9913,2.9913,2.9913,2.9913,2.9913,2.9913,2.9913,2.9913,2.9913,2.9913,3.0154,3.0434,3.0675,3.0996,3.1303,3.1557,0.0,0.0,0.0,0.0,0.0,0.0,0.0,0.0,0.0,0.0,0.0,0.0,0.0,0.0,0.0,0.0,0.0,0.0,1.6083,1.6083,1.6083,1.6083,1.6083,1.6083,1.6083,1.6083,1.6083,1.6083,1.6083,0.0,0.0,0.0,1.6083,1.6083,1.6083,1.6083,1.6083,1.6083,1.6083,1.6083,1.6083,1.6083,0.0,0.0,0.0,0.0,0.0,0.0,0.0,0.0,0.0,0.0,0.0,0.0,0.0,0.0,0.0,0.0,0.0,0.0,0.0,0.0,0.0,0.0,0.0,0.0,0.0,0.0,0.0,0.0,0.0,0.0,2.6386,2.644,2.6747,2.7295,0.0,0.0,0.0,0.0,0.0,0.0,0.0,0.0,0.0,0.0,0.0,0.0,0.0,0.0,0.0,2.9392,2.9673,2.9913,2.9913,0.0,0.0,0.0,0.0,0.0,2.9913,2.9913,2.9913,2.9913,2.9913,2.9913,2.9913,2.9913,2.9913,2.9913,3.0154,3.0381,3.0421,3.0862,3.1236,0.0,0.0,0.0,0.0,0.0,0.0,0.0,0.0,0.0,0.0,0.0,0.0,0.0,0.0,0.0,0.0,0.0,0.0,1.6083,1.6083,1.6083,1.6083,1.6083,1.6083,1.6083,1.6083,1.6083,1.6083,1.6083,1.6083,0.0,0.0,1.6083,1.6083,1.6083,1.6083,1.6083,1.6083,1.6083,1.6083,1.6083,1.6083,1.6083,0.0,0.0,0.0,0.0,0.0,0.0,0.0,0.0,0.0,0.0,0.0,0.0,0.0,0.0,0.0,0.0,0.0,0.0,0.0,0.0,0.0,0.0,0.0,0.0,0.0,0.0,0.0,0.0,0.0,2.6386,2.6386,2.6547,2.676,2.7054,0.0,0.0,0.0,0.0,0.0,0.0,0.0,0.0,0.0,0.0,0.0,0.0,0.0,0.0,0.0,0.0,2.9446,2.9713,2.986,0.0,0.0,0.0,0.0,0.0,2.9913,2.9913,2.9913,2.9913,2.9913,2.9913,2.9913,2.9913,2.9913,2.9913,3.002,3.0167,3.0327,0.0,3.0862,3.1169,0.0,0.0,0.0,0.0,0.0,0.0,0.0,0.0,0.0,0.0,0.0,0.0,0.0,0.0,0.0,0.0,0.0,0.0,1.6083,1.6083,1.6083,1.6083,1.6083,1.6083,1.6083,1.6083,1.6083,1.6083,1.6083,1.6083,0.0,1.6083,1.6083,1.6083,1.6083,1.6083,1.6083,1.6083,1.6083,1.6083,1.6083,1.6083,0.0,0.0,0.0,0.0,0.0,0.0,0.0,0.0,0.0,0.0,0.0,0.0,0.0,0.0,0.0,0.0,0.0,0.0,0.0,0.0,0.0,0.0,0.0,0.0,0.0,0.0,2.6386,2.6386,2.6386,2.6386,2.64,2.668,2.6854,0.0,0.0,0.0,0.0,2.8043,2.8136,0.0,0.0,0.0,0.0,0.0,0.0,0.0,0.0,0.0,0.0,0.0,0.0,0.0,0.0,0.0,0.0,2.9913,2.9913,2.9913,2.9913,2.9913,2.9913,2.9913,2.9913,2.9913,2.9913,2.9913,2.9913,2.9913,2.9913,2.998,0.0,3.0368,0.0,0.0,0.0,0.0,0.0,0.0,0.0,0.0,0.0,0.0,0.0,0.0,0.0,0.0,0.0,0.0,0.0,0.0,0.0,0.0,1.6083,1.6083,1.6083,1.6083,1.6083,1.6083,1.6083,1.6083,1.6083,1.6083,1.6083,1.6083,1.6083,1.6083,1.6083,1.6083,1.6083,1.6083,1.6083,1.6083,1.6083,1.6083,1.6083,1.6083,0.0,0.0,0.0,0.0,0.0,0.0,0.0,0.0,0.0,0.0,0.0,0.0,0.0,0.0,0.0,0.0,0.0,0.0,0.0,0.0,0.0,0.0,0.0,0.0,0.0,2.6386,2.6386,2.6386,2.6386,2.6386,2.64,2.668,2.6974,2.7241,0.0,2.7856,2.811,2.8136,2.8136,2.8136,0.0,0.0,0.0,0.0,0.0,0.0,0.0,0.0,0.0,0.0,0.0,0.0,0.0,0.0,2.9913,2.9913,2.9913,2.9913,2.9913,2.9913,2.9913,2.9913,2.9913,2.9913,2.9913,2.9913,2.9913,2.9913,2.9913,2.9927,2.994,3.0394,0.0,0.0,0.0,0.0,0.0,0.0,0.0,0.0,0.0,0.0,0.0,0.0,0.0,0.0,0.0,0.0,0.0,0.0,0.0,0.0,0.0,1.6083,1.6083,1.6083,1.6083,1.6083,1.6083,1.6083,1.6083,1.6083,1.6083,1.6083,1.6083,1.6083,1.6083,1.6083,1.6083,1.6083,1.6083,1.6083,1.6083,1.6083,1.6083,1.6083,0.0,0.0,0.0,0.0,0.0,0.0,0.0,0.0,0.0,0.0,0.0,0.0,0.0,0.0,0.0,0.0,0.0,0.0,0.0,0.0,0.0,0.0,0.0,2.6386,2.6386,2.6386,2.6386,2.6386,2.6386,2.6386,2.64,2.668,0.0,0.0,0.0,2.7869,2.8136,2.8136,2.8136,2.8136,2.8136,0.0,0.0,0.0,0.0,0.0,0.0,0.0,0.0,0.0,2.9112,2.9285,2.9766,2.9913,2.9913,2.9913,2.9913,2.9913,2.9913,2.9913,2.9913,2.9913,2.9913,2.9913,2.9913,2.9913,2.9913,2.9913,2.9913,2.9913,2.9913,0.0,0.0,0.0,0.0,0.0,0.0,0.0,0.0,0.0,0.0,0.0,0.0,0.0,0.0,0.0,0.0,0.0,0.0,0.0,0.0,0.0,0.0,1.6083,1.6083,1.6083,1.6083,1.6083,1.6083,1.6083,1.6083,1.6083,1.6083,1.6083,1.6083,1.6083,1.6083,1.6083,1.6083,1.6083,1.6083,1.6083,1.6083,1.6083,1.6083,1.6083,0.0,0.0,0.0,0.0,0.0,0.0,0.0,0.0,0.0,0.0,0.0,0.0,0.0,0.0,0.0,0.0,0.0,0.0,0.0,0.0,0.0,0.0,0.0,2.6386,2.6386,2.6386,2.6386,2.6386,2.6386,2.6386,2.64,0.0,0.0,0.0,2.7562,2.7869,2.8136,2.8136,2.8136,2.8136,2.8136,2.8136,0.0,0.0,0.0,0.0,0.0,0.0,0.0,0.0,2.9045,2.9138,2.9726,2.9913,2.9913,2.9913,2.9913,2.9913,2.9913,2.9913,2.9913,2.9913,2.9913,2.9913,2.9913,2.9913,2.9913,2.9913,2.9913,2.9913,2.9913,3.0154,0.0,0.0,0.0,0.0,0.0,0.0,0.0,0.0,0.0,0.0,0.0,0.0,0.0,0.0,0.0,0.0,0.0,0.0,0.0,0.0,0.0,0.0,1.6083,1.6083,1.6083,1.6083,1.6083,1.6083,1.6083,1.6083,1.6083,1.6083,1.6083,1.6083,1.6083,1.6083,1.6083,1.6083,1.6083,1.6083,1.6083,1.6083,1.6083,1.6083,0.0,0.0,0.0,0.0,0.0,0.0,0.0,0.0,0.0,0.0,0.0,0.0,0.0,0.0,0.0,0.0,0.0,0.0,0.0,0.0,0.0,0.0,0.0,2.6386,2.6386,2.6386,2.6386,2.6386,2.6386,2.6386,2.64,2.6694,0.0,2.7281,2.7575,2.7869,2.8136,2.8136,2.8136,2.8136,2.8136,2.8136,0.0,0.0,0.0,0.0,0.0,0.0,0.0,0.0,2.9045,2.9138,2.9726,2.9913,2.9913,2.9913,2.9913,2.9913,2.9913,2.9913,2.9913,2.9913,2.9913,2.9913,2.9913,2.9913,2.9913,2.9913,2.9913,2.9913,2.9913,3.0154,0.0,0.0,0.0,0.0,0.0,0.0,0.0,0.0,0.0,0.0,0.0,0.0,0.0,0.0,0.0,0.0,0.0,0.0,0.0,0.0,0.0,0.0,1.6083,1.6083,1.6083,1.6083,1.6083,1.6083,1.6083,1.6083,1.6083,1.6083,1.6083,1.6083,1.6083,1.6083,1.6083,1.6083,1.6083,1.6083,1.6083,1.6083,1.6083,1.6083,0.0,0.0,0.0,0.0,0.0,0.0,0.0,0.0,0.0,0.0,0.0,0.0,0.0,0.0,0.0,0.0,0.0,0.0,0.0,0.0,0.0,0.0,0.0,0.0,0.0,0.0,2.6386,2.6386,2.6386,2.6386,0.0,0.0,2.7175,2.7281,2.7789,2.8056,2.8136,2.8136,2.8136,2.8136,2.8136,2.8136,0.0,0.0,0.0,0.0,0.0,0.0,0.0,0.0,0.0,0.0,2.9726,2.9913,2.9913,2.9913,2.9913,2.9913,2.9913,2.9913,0.0,2.9913,2.9913,2.9913,2.9913,2.9913,2.9913,2.9913,2.9913,2.9913,2.9913,2.9993,0.0,0.0,0.0,0.0,0.0,0.0,0.0,0.0,0.0,0.0,0.0,0.0,0.0,0.0,0.0,0.0,0.0,0.0,0.0,0.0,0.0,0.0,1.6083,1.6083,1.6083,1.6083,1.6083,1.6083,1.6083,1.6083,1.6083,1.6083,1.6083,1.6083,1.6083,1.6083,1.6083,1.6083,1.6083,1.6083,1.6083,1.6083,1.6083,1.6083,0.0,0.0,0.0,0.0,0.0,0.0,0.0,0.0,0.0,0.0,3.7492,3.6423,0.0,0.0,0.0,0.0,0.0,0.0,0.0,0.0,0.0,0.0,0.0,0.0,0.0,2.6386,2.6386,0.0,0.0,0.0,0.0,0.0,2.7321,2.7455,2.7936,2.8136,2.8136,2.8136,2.8136,2.8136,2.8136,2.8136,0.0,0.0,0.0,0.0,0.0,0.0,0.0,0.0,0.0,0.0,2.9766,2.9913,2.9913,2.9913,2.9913,2.9913,2.9913,2.9913,0.0,2.9913,2.9913,2.9913,2.9913,2.9913,2.9913,2.9913,2.9913,2.9913,2.9913,2.9913,0.0,0.0,0.0,0.0,0.0,0.0,0.0,0.0,0.0,0.0,0.0,0.0,0.0,0.0,0.0,0.0,0.0,0.0,0.0,0.0,0.0,0.0,1.6083,1.6083,1.6083,1.6083,1.6083,1.6083,1.6083,1.6083,1.6083,1.6083,1.6083,1.6083,1.6083,1.6083,1.6083,1.6083,1.6083,1.6083,1.6083,1.6083,1.6083,1.6083,0.0,0.0,0.0,0.0,0.0,0.0,0.0,0.0,0.0,0.0,3.8574,3.7951,0.0,0.0,0.0,0.0,0.0,0.0,0.0,0.0,0.0,0.0,0.0,0.0,0.0,0.0,0.0,0.0,0.0,0.0,0.0,2.7121,2.7415,2.7709,2.8003,2.8136,2.8136,2.8136,2.8136,2.8136,2.8136,2.8136,2.8136,0.0,0.0,0.0,0.0,0.0,0.0,0.0,0.0,0.0,2.982,2.9913,2.9913,2.9913,2.9913,2.9913,2.9913,2.9913,0.0,2.9913,2.9913,0.0,2.9913,2.9913,2.9913,2.9913,0.0,2.9913,2.9913,0.0,0.0,0.0,0.0,0.0,0.0,0.0,0.0,0.0,0.0,0.0,0.0,0.0,0.0,0.0,0.0,0.0,0.0,0.0,0.0,0.0,0.0,0.0,1.6083,1.6083,1.6083,0.0,1.6083,1.6083,1.6083,1.6083,1.6083,1.6083,1.6083,1.6083,1.6083,1.6083,1.6083,1.6083,1.6083,1.6083,1.6083,1.6083,1.6083,1.6083,0.0,0.0,0.0,0.0,0.0,0.0,0.0,0.0,0.0,0.0,0.0,0.0,0.0,0.0,0.0,0.0,0.0,0.0,0.0,0.0,0.0,0.0,0.0,0.0,0.0,0.0,0.0,0.0,0.0,0.0,2.6827,2.7121,2.7415,2.7709,2.8003,2.8136,2.8136,2.8136,2.8136,2.8136,2.8136,2.8136,2.8136,2.8136,0.0,0.0,0.0,0.0,0.0,0.0,0.0,0.0,2.982,2.9913,2.9913,2.9913,2.9913,2.9913,2.9913,2.9913,0.0,0.0,2.9913,2.9913,2.9913,2.9913,2.9913,2.9913,2.9913,2.9913,0.0,0.0,0.0,0.0,0.0,0.0,0.0,0.0,0.0,0.0,0.0,0.0,0.0,0.0,0.0,0.0,0.0,0.0,0.0,0.0,0.0,0.0,0.0,1.6083,1.6083,1.6083,1.6083,0.0,1.6083,1.6083,1.6083,1.6083,1.6083,1.6083,1.6083,1.6083,1.6083,1.6083,1.6083,1.6083,1.6083,1.6083,1.6083,1.6083,1.6083,1.6083,0.0,0.0,0.0,0.0,0.0,0.0,0.0,0.0,0.0,0.0,0.0,0.0,0.0,0.0,0.0,0.0,0.0,0.0,0.0,0.0,0.0,0.0,0.0,0.0,0.0,0.0,0.0,0.0,0.0,0.0,2.7041,2.7188,2.7495,2.7923,2.807,2.8136,2.8136,2.8136,2.8136,2.8136,2.8136,2.8136,2.8163,2.831,2.847,2.8631,2.8764,0.0,0.0,0.0,0.0,0.0,0.0,0.0,2.9913,2.9913,2.9913,2.9913,0.0,0.0,0.0,2.9913,0.0,2.9913,2.9913,2.9913,2.9913,2.9913,0.0,0.0,0.0,0.0,0.0,0.0,0.0,0.0,0.0,0.0,0.0,0.0,0.0,0.0,0.0,0.0,0.0,0.0,0.0,0.0,0.0,0.0,0.0,0.0,1.6083,1.6083,1.6083,1.6083,1.6083,1.6083,1.6083,1.6083,1.6083,1.6083,1.6083,1.6083,1.6083,1.6083,1.6083,1.6083,1.6083,1.6083,1.6083,1.6083,1.6083,1.6083,1.6083,1.6083,0.0,0.0,0.0,0.0,0.0,0.0,0.0,0.0,0.0,0.0,0.0,0.0,0.0,0.0,0.0,0.0,0.0,0.0,0.0,0.0,0.0,0.0,0.0,0.0,0.0,0.0,0.0,0.0,0.0,0.0,2.7268,2.7321,2.7629,2.8136,2.8136,2.8136,2.8136,2.8136,2.8136,2.815,2.8203,2.8217,2.8257,2.8564,2.8711,2.8791,2.9032,2.9299,2.9566,2.9566,0.0,0.0,0.0,0.0,2.9913,2.9913,2.9913,0.0,0.0,0.0,2.9913,2.9913,2.9913,0.0,2.9913,2.9913,2.9913,0.0,0.0,0.0,0.0,0.0,0.0,0.0,0.0,0.0,0.0,0.0,0.0,0.0,0.0,0.0,0.0,0.0,0.0,0.0,0.0,0.0,0.0,0.0,1.7062,1.6083,1.6083,1.6083,1.6083,1.6083,1.6083,1.6083,1.6083,1.6083,1.6083,1.6083,1.6083,1.6083,1.6083,1.6083,1.6083,1.6083,1.6083,1.6083,1.6083,1.6083,1.6083,1.6083,1.6083,1.6083,0.0,0.0,0.0,0.0,0.0,0.0,0.0,0.0,0.0,0.0,3.8574,3.8428,0.0,0.0,0.0,0.0,0.0,0.0,0.0,0.0,0.0,0.0,0.0,0.0,0.0,0.0,0.0,0.0,0.0,0.0,2.7268,2.7522,2.7816,2.8136,2.8136,2.8136,2.8136,2.8136,2.8136,2.8163,2.843,2.8551,2.8577,2.8871,2.9138,2.9366,2.9406,2.9606,2.986,2.986,2.9887,0.0,0.0,0.0,2.9913,2.9913,2.9913,0.0,0.0,0.0,2.9913,0.0,2.9913,2.9913,0.0,0.0,0.0,0.0,0.0,0.0,0.0,0.0,0.0,0.0,0.0,0.0,0.0,0.0,0.0,0.0,0.0,0.0,0.0,0.0,0.0,0.0,0.0,0.0,0.0,2.3296,2.0764,1.6275,1.6083,1.6083,1.6083,1.6083,1.6083,1.6083,1.6083,1.6083,1.6083,1.6083,1.6083,1.6083,1.6083,1.6083,1.6083,1.6083,1.6083,1.6083,1.6083,1.6083,1.6083,1.6083,1.6083,1.6083,0.0,0.0,0.0,0.0,0.0,0.0,0.0,0.0,0.0,0.0,0.0,3.8117,0.0,0.0,0.0,0.0,0.0,0.0,0.0,0.0,0.0,0.0,0.0,0.0,0.0,0.0,0.0,0.0,0.0,0.0,0.0,2.7816,2.8016,2.8136,2.8136,2.8136,2.8136,2.8136,2.8243,2.8417,2.8551,2.8711,2.8885,2.9179,2.9366,2.9499,2.9673,2.9806,2.9913,2.9913,2.9913,2.9913,2.9913,0.0,0.0,0.0,2.9913,0.0,2.9913,2.9913,2.9913,0.0,2.9913,2.9913,2.9913,0.0,0.0,0.0,0.0,0.0,0.0,0.0,0.0,0.0,0.0,0.0,0.0,0.0,0.0,0.0,0.0,0.0,0.0,0.0,0.0,0.0,0.0,0.0,2.4074,2.2516,1.9978,1.6282,1.6083,1.6083,1.6083,1.6083,1.6083,1.6083,1.6083,1.6083,1.6083,1.6083,1.6083,1.6083,1.6083,1.6083,1.6083,1.6083,1.6083,1.6083,1.6083,1.6083,1.6083,1.6083,1.6083,1.6083,0.0,0.0,0.0,0.0,0.0,0.0,0.0,0.0,0.0,0.0,0.0,0.0,0.0,0.0,0.0,0.0,0.0,0.0,0.0,0.0,0.0,0.0,0.0,0.0,0.0,0.0,0.0,0.0,0.0,0.0,2.7709,2.8003,2.8136,2.8136,2.8136,2.8136,2.815,2.823,2.839,2.8617,2.8778,2.8965,2.9179,2.9486,2.9593,2.9619,2.9833,2.9913,2.9913,2.9913,2.9913,2.9913,2.9913,2.9913,0.0,0.0,0.0,2.9913,0.0,0.0,2.9913,2.9913,2.9913,2.9913,0.0,0.0,0.0,0.0,0.0,0.0,0.0,0.0,0.0,0.0,0.0,0.0,0.0,0.0,0.0,0.0,0.0,0.0,0.0,0.0,0.0,0.0,0.0,0.0,2.4074,2.2116,1.9396,1.6282,1.6083,1.6083,1.6083,1.6083,1.6083,1.6083,1.6083,1.6083,1.6083,1.6083,1.6083,1.6083,1.6083,1.6083,1.6083,1.6083,1.6083,1.6083,1.6083,1.6083,1.6083,1.6083,1.6083,1.6083,0.0,0.0,0.0,0.0,0.0,0.0,0.0,0.0,0.0,0.0,0.0,0.0,3.8428,3.8574,3.8574,3.8428,0.0,0.0,0.0,0.0,0.0,0.0,0.0,0.0,0.0,0.0,0.0,0.0,0.0,0.0,2.7709,2.8003,2.8136,2.8136,2.8136,2.8136,2.8163,2.8457,2.8591,2.8657,2.9219,2.9446,2.9499,2.978,2.99,2.99,2.9913,2.9913,2.9913,2.9913,2.9913,2.9913,2.9913,2.9913,2.9913,0.0,0.0,0.0,2.9913,2.9913,0.0,2.9913,2.9913,0.0,0.0,0.0,0.0,0.0,0.0,0.0,0.0,0.0,0.0,0.0,0.0,0.0,0.0,0.0,0.0,0.0,0.0,0.0,0.0,0.0,0.0,0.0,0.0,0.0,2.4269,2.3676,2.1352,1.6282,1.6083,1.6083,1.6083,1.6083,1.6083,1.6083,1.6083,1.6083,1.6083,1.6083,1.6083,1.6083,1.6083,1.6083,1.6083,1.6083,1.6083,1.6083,1.6083,1.6083,1.6083,1.6083,1.6083,1.6083,0.0,0.0,0.0,0.0,0.0,0.0,0.0,0.0,0.0,0.0,0.0,0.0,0.0,3.8574,3.8574,3.8574,3.8574,0.0,0.0,0.0,0.0,0.0,0.0,0.0,0.0,0.0,0.0,0.0,0.0,2.9255,2.7989,2.8096,2.8136,2.8136,2.8136,2.8257,2.8444,2.8564,2.8831,2.9192,2.9406,2.9593,2.9766,2.9873,2.9913,2.9913,2.9913,2.9913,2.9913,2.9913,2.9913,2.9913,2.9913,2.9913,2.9913,2.9913,2.9913,2.9913,2.9913,2.9913,0.0,2.9913,2.9913,0.0,0.0,0.0,0.0,0.0,0.0,0.0,0.0,0.0,0.0,0.0,0.0,0.0,0.0,0.0,0.0,0.0,0.0,0.0,0.0,0.0,0.0,0.0,0.0,0.0,2.4258,2.388,2.1548,1.6282,1.6083,1.6083,1.6083,1.6083,1.6083,1.6083,1.6083,1.6083,1.6083,1.6083,1.6083,1.6083,1.6083,1.6083,1.6083,1.6083,1.6083,1.6083,1.6083,1.6083,1.6083,1.6083,1.6083,1.6083,0.0,0.0,0.0,0.0,0.0,0.0,0.0,0.0,0.0,3.8574,0.0,0.0,0.0,0.0,3.8574,3.8574,3.7951,3.7032,3.5646,0.0,0.0,0.0,0.0,0.0,0.0,0.0,0.0,0.0,0.0,0.0,2.9286,2.8473,2.8136,2.815,2.8257,2.8417,2.8617,2.8711,2.9032,2.9486,2.9593,2.974,2.9913,2.9913,2.9913,2.9913,0.0,0.0,2.9913,2.9913,2.9913,2.9913,2.9913,2.9913,2.9913,2.9913,2.9913,2.9913,2.9913,2.9913,2.9913,0.0,0.0,0.0,0.0,0.0,0.0,0.0,0.0,0.0,0.0,0.0,0.0,0.0,0.0,0.0,0.0,0.0,0.0,0.0,0.0,0.0,0.0,0.0,0.0,0.0,0.0,0.0,2.3952,2.3829,2.1548,1.6282,1.6083,1.6083,1.6083,1.6083,1.6083,1.6083,1.6083,1.6083,1.6083,1.6083,1.6083,1.6083,1.6083,1.6083,1.6083,1.6083,1.6083,1.6083,1.6083,1.6083,1.6083,1.6083,1.6083,1.6083,0.0,0.0,0.0,0.0,0.0,0.0,0.0,0.0,3.8574,3.8574,0.0,0.0,0.0,0.0,0.0,3.8574,3.6737,3.5664,3.5664,3.5682,0.0,0.0,0.0,0.0,0.0,3.6741,3.5973,0.0,0.0,0.0,3.1392,2.9286,2.8318,2.8163,2.8641,2.8789,2.8644,2.8938,2.9219,2.9526,2.9806,2.9913,2.9913,2.9913,2.9913,0.0,2.9913,2.9913,0.0,2.9913,2.9913,2.9913,2.9913,2.9913,2.9913,2.9913,2.9913,2.9913,0.0,0.0,0.0,2.9913,0.0,0.0,0.0,0.0,0.0,0.0,0.0,0.0,0.0,0.0,0.0,0.0,0.0,0.0,0.0,0.0,0.0,0.0,0.0,0.0,0.0,0.0,0.0,0.0,0.0,2.8892,2.3728,2.3555,2.1343,1.6282,1.6083,1.6083,1.6083,1.6083,1.6083,1.6083,1.6083,1.6083,1.6083,1.6083,1.6083,1.6083,1.6083,1.6083,1.6083,1.6083,1.6083,1.6083,1.6083,1.6083,1.6083,1.6083,1.6083,1.6083,0.0,0.0,0.0,0.0,0.0,0.0,3.8574,3.8574,3.8574,0.0,0.0,0.0,3.8574,3.8574,3.8574,3.8574,3.8387,3.8245,3.8245,3.8552,3.8801,3.8916,3.9387,3.9581,3.9529,3.9395,3.862,3.6923,3.6286,0.0,0.0,3.2381,3.1375,2.8641,3.2023,3.183,2.9245,2.9325,2.9526,2.9806,2.9887,2.9913,0.0,0.0,0.0,0.0,0.0,2.9913,2.9913,0.0,2.9913,2.9913,2.9913,2.9913,2.9913,2.9913,2.9913,2.9913,2.9913,0.0,0.0,0.0,0.0,0.0,0.0,0.0,0.0,0.0,0.0,0.0,0.0,0.0,0.0,0.0,0.0,0.0,0.0,0.0,0.0,0.0,0.0,0.0,0.0,0.0,0.0,0.0,3.0515,2.8421,2.3483,2.0061,1.7523,1.6076,1.6083,1.6083,1.6083,1.6083,1.6083,1.6083,1.6083,1.6083,1.6083,1.6083,1.6083,1.6083,1.6083,1.6083,1.6083,1.6083,1.6083,1.6083,1.6083,1.6083,1.6083,1.6083,1.6083,1.6083,0.0,0.0,0.0,0.0,0.0,0.0,3.8574,3.8574,3.8574,0.0,0.0,0.0,3.8828,3.9004,3.9121,3.9121,3.9355,3.9492,3.9492,3.9746,3.998,4.0156,4.0156,4.0351,4.0781,4.0625,4.0086,3.9198,3.8225,3.6532,3.4376,3.372,3.2767,3.1616,3.2583,3.2185,3.0853,2.9961,2.9766,0.0,2.9913,0.0,0.0,2.9913,2.9913,0.0,0.0,0.0,2.9913,2.9913,2.9913,2.9913,2.9913,2.9913,2.9913,2.9913,2.9913,2.9913,2.9913,2.9913,2.9913,2.9913,0.0,0.0,0.0,2.9913,0.0,0.0,0.0,0.0,0.0,0.0,0.0,0.0,0.0,0.0,0.0,0.0,0.0,0.0,0.0,0.0,0.0,0.0,0.0,0.0,3.0287,2.8223,2.3381,1.9598,1.7057,1.5981,1.6049,1.6083,1.6083,1.6083,1.6083,1.6083,1.6083,1.6083,1.6083,1.6083,1.6083,1.6083,1.6083,1.6083,1.6083,1.6083,1.6083,1.6083,1.6083,1.6083,1.6083,1.6083,1.6083,1.6083,0.0,0.0,0.0,0.0,0.0,0.0,0.0,3.8574,3.8594,0.0,3.8691,3.8867,3.9238,3.9648,3.9902,3.9902,3.9941,3.9961,3.9961,4.0019,4.0195,4.0586,4.0586,4.0781,4.1172,4.0801,4.0781,4.1172,3.89,3.7964,3.8473,3.4718,3.4096,3.579,3.2249,0.0,3.2788,3.1366,0.0,3.0258,2.9913,3.0093,0.0,0.0,2.9913,2.9913,2.9913,2.9913,2.9913,2.9913,2.9913,2.9913,2.9913,2.9913,2.9913,2.9913,2.9913,2.9913,2.9913,2.9913,2.9913,2.9913,2.9913,0.0,2.9913,2.9913,0.0,0.0,0.0,0.0,0.0,0.0,0.0,0.0,0.0,0.0,0.0,0.0,0.0,0.0,0.0,0.0,0.0,0.0,2.9913,2.9913,2.9973,2.7989,2.3717,2.0882,1.8511,1.6433,1.6179,1.6062,1.6083,1.6083,1.6083,1.6083,1.6083,1.6083,1.6083,1.6083,1.6083,1.6083,1.6083,1.6083,1.6083,1.6083,1.6083,1.6083,1.6083,1.6083,1.6083,1.6083,1.6083,1.6083,0.0,0.0,0.0,0.0,0.0,0.0,0.0,3.8574,3.8691,3.9043,3.9414,3.9668,3.9746,3.9844,3.9902,3.9902,4.0195,4.041,4.041,4.0723,0.0,4.1035,4.1055,4.1094,4.1172,4.1094,4.1094,4.1172,4.0936,4.0141,3.8491,3.9807,3.8848,3.6356,3.7267,3.6093,3.3466,0.0,0.0,3.2528,3.0616,0.0,3.2528,3.0616,2.9913,2.9913,2.9913,2.9913,2.9913,2.9913,2.9913,2.9913,2.9913,2.9913,2.9913,2.9913,2.9913,2.9913,2.9913,2.9913,2.9913,2.9913,2.9913,0.0,2.9913,2.9913,0.0,0.0,0.0,0.0,0.0,0.0,0.0,0.0,0.0,0.0,0.0,0.0,0.0,0.0,0.0,0.0,0.0,0.0,2.9913,2.9913,2.8126,2.66,2.5914,2.1677,1.9013,1.8729,1.6846,1.5954,1.6083,1.6083,1.6083,1.6083,1.6083,1.6083,1.6083,1.6083,1.6083,1.6083,1.6083,1.6083,1.6083,1.6083,1.6083,1.6083,1.6083,1.6083,1.6083,1.6083,1.6083,1.6083,0.0,3.8574,0.0,0.0,0.0,0.0,0.0,3.875,3.8965,3.918,3.9785,4.0215,4.0215,4.041,4.0527,4.0527,4.0723,4.084,4.084,4.1055,0.0,4.1172,4.1172,4.1269,4.1484,4.1484,4.1582,4.1797,4.2012,4.1708,4.0752,4.0959,4.0602,3.997,3.8775,3.7674,3.683,0.0,3.614,3.494,3.2514,0.0,3.3219,3.0781,2.9913,2.9913,2.9913,2.9913,2.9913,2.9913,2.9913,0.0,2.9913,2.9913,2.9913,2.9913,2.9913,2.9913,2.9913,2.9913,2.9913,2.9913,2.9913,0.0,0.0,2.9913,0.0,0.0,0.0,0.0,0.0,0.0,0.0,0.0,0.0,0.0,0.0,0.0,0.0,0.0,0.0,0.0,0.0,0.0,2.9913,2.9913,2.8809,2.7571,2.6406,2.4116,2.1668,1.942,1.8269,1.7245,1.5967,1.6042,1.6083,1.6083,1.6083,1.6083,1.6083,1.6083,1.6083,1.6083,1.6083,1.6083,1.6083,1.6083,1.6083,1.6083,1.6083,1.6083,1.6083,1.6083,1.6083,1.6083,3.8574,3.8574,3.8574,0.0,0.0,0.0,0.0,0.0,3.9355,3.9453,4.0156,4.0644,4.0644,4.0957,4.1172,4.1172,4.125,4.1289,4.1289,4.1367,4.1406,4.1406,4.1406,4.1562,4.1914,4.1914,4.209,4.2422,4.25,4.2734,4.3086,4.1264,4.1654,4.3526,3.9395,3.8545,4.0259,0.0,0.0,3.7347,0.0,3.4242,3.3219,3.1301,3.0258,2.9913,2.9913,2.9913,2.9913,2.9913,2.9913,2.9913,2.9913,2.9913,2.9913,2.9913,2.9913,2.9913,2.9913,2.9913,2.9913,2.9913,2.9913,2.9913,0.0,0.0,0.0,0.0,0.0,0.0,0.0,0.0,0.0,0.0,0.0,0.0,0.0,0.0,0.0,0.0,0.0,0.0,0.0,0.0,2.9913,2.9913,2.9913,2.8989,2.6966,2.6612,2.4323,1.9894,1.9663,1.8324,1.5852,1.6001,1.6083,1.6083,1.6083,1.6083,1.6083,1.6083,1.6083,1.6083,1.6083,1.6083,1.6083,1.6083,1.6083,1.6083,1.6083,1.6083,1.6083,1.6083,1.6083,1.6083,3.8574,3.8574,3.8574,0.0,0.0,0.0,0.0,0.0,3.9961,4.0332,4.0801,4.1094,4.1094,4.1152,4.1172,4.1172,4.1523,4.1738,4.1738,0.0,4.2285,4.2285,4.2285,4.2305,4.2344,4.2363,4.2383,4.2422,4.2812,4.3027,4.3086,4.3109,4.3487,4.3526,4.1118,4.0072,0.0,0.0,3.9939,0.0,3.9564,3.6986,0.0,3.3043,3.1657,2.9913,2.9913,2.9913,2.9913,0.0,2.9913,2.9913,0.0,2.9913,2.9913,2.9913,2.9913,2.9913,2.9913,2.9913,2.9913,2.9913,2.9913,2.9913,0.0,0.0,2.9913,0.0,0.0,0.0,0.0,0.0,0.0,0.0,0.0,0.0,0.0,0.0,0.0,0.0,0.0,0.0,0.0,0.0,0.0,2.9913,2.9913,2.9734,2.9541,2.7365,2.5079,2.2496,2.0295,1.8206,1.5852,1.6001,1.6083,1.6083,1.6083,1.6083,1.6083,1.6083,1.6083,1.6083,1.6083,1.6083,1.6083,1.6083,1.6083,1.6083,1.6083,1.6083,1.6083,1.6083,1.6083,1.6083,3.8672,3.8769,3.8945,3.8945,0.0,0.0,0.0,3.998,4.041,4.084,4.1055,4.1269,4.1504,4.1543,4.1641,4.1875,0.0,4.2168,0.0,0.0,4.2422,4.2422,4.2422,4.2539,4.2793,4.2812,4.293,4.3164,4.3359,4.3437,4.3437,4.3633,4.3711,4.3711,4.2659,0.0,4.2326,0.0,4.0782,0.0,0.0,0.0,0.0,3.2867,3.1997,2.9913,2.9913,2.9913,2.9913,0.0,2.9913,0.0,0.0,0.0,2.9913,2.9913,2.9913,2.9913,2.9913,2.9913,2.9913,0.0,0.0,0.0,2.9913,0.0,2.9913,0.0,0.0,0.0,0.0,0.0,0.0,0.0,0.0,0.0,0.0,0.0,0.0,0.0,0.0,0.0,0.0,0.0,0.0,0.0,0.0,2.9913,2.9913,2.8989,2.7196,2.4907,2.2526,2.0304,1.7828,1.665,1.5995,1.6083,1.6083,1.6083,1.6083,1.6083,1.6083,1.6083,1.6083,1.6083,1.6083,1.6083,1.6083,1.6083,1.6083,1.6083,1.6083,1.6083,1.6083,1.6083,3.9062,3.918,3.9394,3.9394,0.0,0.0,0.0,0.0,4.0859,4.1289,4.1348,0.0,4.1933,4.1973,0.0,4.2402,4.2539,4.2598,0.0,0.0,4.2773,0.0,0.0,0.0,4.3242,4.3242,4.3398,4.3711,4.3711,4.3711,4.3711,4.3711,4.3711,4.3711,0.0,4.3711,4.3711,0.0,4.1472,3.7861,3.9564,3.6469,3.0959,3.1997,3.1301,2.9913,2.9913,2.9913,2.9913,2.9913,2.9913,0.0,2.9913,2.9913,2.9913,2.9913,2.9913,2.9913,2.9913,0.0,0.0,0.0,0.0,0.0,0.0,0.0,0.0,0.0,0.0,0.0,0.0,0.0,0.0,2.9913,0.0,0.0,0.0,0.0,0.0,0.0,0.0,0.0,0.0,0.0,0.0,0.0,2.9913,2.9913,2.9913,2.9913,2.8809,2.6229,2.4063,2.1649,1.9353,1.7105,1.5906,1.6022,1.6062,1.6083,1.6083,1.6083,1.6083,1.6083,1.6083,1.6083,1.6083,1.6083,1.6083,1.6083,1.6083,1.6083,1.6083,1.6083,1.6083,1.6083,3.9863,3.9863,3.9883,3.9883,0.0,0.0,0.0,0.0,0.0,0.0,0.0,0.0,0.0,0.0,0.0,0.0,0.0,4.3047,4.3047,0.0,4.3672,0.0,0.0,4.3672,4.3691,4.3691,4.3691,4.3711,4.3711,4.3711,4.3711,4.3711,4.3711,4.3711,4.3711,4.3711,4.3711,4.3711,4.2326,4.0259,4.0259,3.7501,3.3043,0.0,2.9913,2.9913,2.9913,0.0,0.0,2.9913,2.9913,0.0,0.0,0.0,0.0,0.0,0.0,0.0,0.0,0.0,0.0,2.9913,0.0,0.0,0.0,0.0,2.9913,0.0,0.0,0.0,0.0,2.9913,2.9913,2.9913,2.9913,0.0,0.0,0.0,0.0,0.0,0.0,0.0,0.0,0.0,0.0,2.9913,2.9913,2.9913,2.9913,2.9913,2.8809,2.6229,2.4063,2.1582,1.9158,1.7046,1.5852,1.5859,1.6008,1.6083,1.6083,1.6083,1.6083,1.6083,1.6083,1.6083,1.6083,1.6083,1.6083,1.6083,1.6083,1.6083,1.6083,1.6083,1.6083,1.6083,4.0742,4.0742,4.0644,4.0351,0.0,0.0,0.0,4.1406,0.0,0.0,0.0,0.0,0.0,4.2851,4.2969,0.0,0.0,4.3496,4.3496,4.3633,0.0,0.0,0.0,4.3711,4.3711,4.3711,4.3711,4.3711,4.3711,4.3711,4.3711,4.3711,4.3711,4.3711,4.3711,4.3711,0.0,0.0,0.0,0.0,0.0,3.2514,3.0959,0.0,0.0,2.9913,2.9913,2.9913,0.0,2.9913,2.9913,2.9913,2.9913,2.9913,2.9913,2.9913,2.9913,0.0,0.0,0.0,2.9913,2.9913,0.0,0.0,0.0,0.0,0.0,0.0,0.0,0.0,2.9913,2.9913,2.9913,2.9913,2.9913,2.9913,0.0,0.0,0.0,0.0,0.0,0.0,0.0,0.0,0.0,2.9913,2.9913,2.9913,0.0,2.9913,2.9541,2.8629,2.6312,2.3846,2.1573,1.9212,1.7486,1.5852,1.6008,1.6083,1.6083,1.6083,1.6083,1.6083,1.6083,1.6083,1.6083,1.6083,1.6083,1.6083,1.6083,1.6083,1.6083,1.6083,1.6083,1.6083,4.1172,4.1172,4.1074,0.0,0.0,0.0,0.0,0.0,0.0,0.0,4.25,0.0,4.3262,0.0,4.3418,0.0,4.3711,4.3711,4.3711,4.3711,0.0,4.3711,4.3711,4.3711,4.3711,4.3711,4.3711,4.3711,4.3711,4.3711,4.3711,4.3711,4.3711,4.3711,4.3711,4.3711,4.3711,0.0,4.095,0.0,0.0,2.9913,0.0,0.0,2.9913,2.9913,0.0,2.9913,2.9913,2.9913,2.9913,2.9913,2.9913,2.9913,2.9913,2.9913,2.9913,2.9913,2.9913,2.9913,0.0,2.9913,2.9913,0.0,2.9913,0.0,2.9913,0.0,0.0,0.0,2.9913,2.9913,2.9913,2.9913,2.9913,2.9913,0.0,2.9913,0.0,0.0,0.0,0.0,0.0,0.0,2.9913,2.9913,2.9913,2.9913,0.0,0.0,2.9913,2.9913,2.7521,2.5571,2.4063,2.0736,1.848,1.712,1.6314,1.6029,1.6083,1.6083,1.6083,1.6083,1.6083,1.6083,1.6083,1.6083,1.6083,1.6083,1.6083,1.6083,1.6083,1.6083,1.6083,1.6083,4.1211,0.0,0.0,0.0,4.1543,0.0,0.0,0.0,4.2617,0.0,4.3105,4.3262,4.3652,4.3711,4.3711,4.3711,4.3711,4.3711,4.3711,4.3711,0.0,0.0,4.3711,4.3711,4.3711,4.3711,4.3711,4.3711,4.3711,4.3711,4.3711,4.3711,4.3711,4.3711,4.3711,0.0,4.3711,4.3711,4.095,3.6313,3.182,2.9913,2.9913,2.9913,2.9913,2.9913,2.9913,2.9913,2.9913,2.9913,2.9913,2.9913,2.9913,2.9913,2.9913,2.9913,2.9913,2.9913,2.9913,2.9913,2.9913,2.9913,0.0,0.0,0.0,0.0,2.9913,0.0,0.0,0.0,0.0,2.9913,2.9913,2.9913,2.9913,2.9913,2.9913,2.9913,0.0,0.0,0.0,0.0,0.0,2.9913,2.9913,2.9913,2.9913,2.9913,0.0,0.0,2.9913,2.9913,2.7521,2.6229,2.6229,2.1663,1.9243,1.9229,1.6933,1.5927,1.6069,1.6076,1.6083,1.6083,1.6083,1.6083,1.6083,1.6083,1.6083,1.6083,1.6083,1.6083,1.6083,1.6083,1.6083,1.6083,4.1582,4.1894,4.2109,0.0,4.1933,4.1894,0.0,0.0,0.0,0.0,4.3359,4.3594,4.3691,4.3711,4.3711,4.3711,4.3711,0.0,0.0,0.0,0.0,4.3711,4.3711,4.3711,4.3711,4.3711,4.3711,4.3711,4.3711,4.3711,4.3711,4.3711,4.3711,4.3711,4.3711,0.0,4.3711,4.3711,4.095,3.6313,3.182,2.9913,0.0,0.0,2.9913,2.9913,2.9913,2.9913,2.9913,2.9913,2.9913,2.9913,2.9913,2.9913,2.9913,2.9913,2.9913,2.9913,2.9913,2.9913,2.9913,2.9913,2.9913,2.9913,0.0,0.0,0.0,0.0,0.0,0.0,0.0,0.0,2.9913,2.9913,2.9913,2.9913,2.9913,2.9913,0.0,2.9913,0.0,0.0,2.9913,2.9913,2.9913,2.9913,2.9913,0.0,0.0,0.0,0.0,2.9913,2.9362,2.8076,2.6229,2.3324,2.0851,1.9037,1.6882,1.5872,1.5913,1.6029,1.6083,1.6083,1.6083,1.6083,1.6083,1.6083,1.6083,1.6083,1.6083,1.6083,1.6083,1.6083,1.6083,1.6083,4.2031,0.0,0.0,4.2676,0.0,0.0,4.2676,0.0,0.0,4.3359,4.3555,0.0,4.3711,4.3711,4.3711,4.3711,4.3711,0.0,4.3711,0.0,0.0,4.3711,4.3711,4.3711,4.3711,4.3711,4.3711,4.3711,4.3711,4.3711,4.3711,4.3711,4.3711,4.3711,4.3711,4.3711,4.3691,4.2659,4.009,3.6485,3.2867,0.0,0.0,2.9913,2.9913,2.9913,2.9913,2.9913,2.9913,2.9913,2.9913,2.9913,2.9913,2.9913,2.9913,2.9913,2.9913,2.9913,2.9913,2.9913,2.9913,2.9913,2.9913,2.9913,2.9913,2.9913,2.9913,0.0,0.0,0.0,0.0,0.0,0.0,2.9913,2.9913,2.9913,2.9913,2.9913,0.0,0.0,2.9913,0.0,2.9913,2.9913,2.9913,2.9913,0.0,0.0,0.0,0.0,0.0,2.9913,2.9913,2.9182,2.7883,2.5445,2.3714,2.232,1.8879,1.7329,1.7396,1.6595,1.6083,1.6083,1.6083,1.6083,1.6083,1.6083,1.6083,1.6083,1.6083,1.6083,1.6083,1.6083,1.6083,1.6083,4.25,0.0,0.0,0.0,0.0,0.0,0.0,4.3476,0.0,4.3711,0.0,4.3711,4.3711,4.3711,4.3711,4.3711,0.0,4.3711,4.3711,4.3711,4.3711,4.3711,4.3711,4.3711,4.3711,4.3711,4.3711,4.3711,4.3711,4.3711,4.3711,4.3711,4.3711,4.3711,4.3711,0.0,0.0,4.095,3.8715,3.6485,3.3907,3.1657,2.9913,2.9967,2.998,2.998,3.002,2.998,2.9927,2.9967,2.998,2.998,3.002,3.0034,3.0034,3.0034,3.0034,3.0034,3.0034,3.0034,3.0034,3.0034,3.0034,3.0034,3.0034,3.0007,2.998,2.998,2.994,2.9913,0.0,0.0,0.0,2.9913,2.9913,2.9913,0.0,0.0,2.9913,2.9913,0.0,0.0,0.0,2.9913,2.9913,0.0,0.0,0.0,0.0,0.0,0.0,2.9913,2.9913,0.0,2.9913,0.0,2.6335,2.6375,2.1593,1.9321,1.948,1.7173,1.6083,1.6083,1.6083,1.6083,1.6083,1.6083,1.6083,1.6083,1.6083,1.6083,1.6083,1.6083,1.6083,1.6083,4.2891,0.0,0.0,0.0,0.0,4.3594,4.3594,4.3652,4.3711,4.3711,4.3711,4.3711,4.3711,4.3711,4.3711,4.3711,4.3711,0.0,0.0,0.0,0.0,4.3711,4.3711,4.3711,4.3711,4.3711,4.3711,4.3711,4.3711,4.3711,4.3711,4.3711,4.3711,4.3711,0.0,0.0,4.3361,3.9225,0.0,3.6485,3.2174,3.0258,2.994,3.0194,3.0287,3.0314,3.0555,3.0327,2.9953,3.0207,3.0287,3.0327,3.0568,3.0635,3.0635,3.0635,3.0635,3.0635,3.0635,3.0635,3.0635,3.0635,3.0635,3.0635,3.0635,3.0461,3.0287,3.0287,3.0087,2.9913,2.9913,0.0,0.0,0.0,0.0,0.0,0.0,0.0,2.9913,2.9913,2.9913,2.9913,0.0,0.0,0.0,0.0,0.0,0.0,0.0,0.0,0.0,0.0,2.9913,0.0,0.0,0.0,2.6253,2.6118,2.1527,1.9263,1.9305,1.7122,1.6083,1.6083,1.6083,1.6083,1.6083,1.6083,1.6083,1.6083,1.6083,1.6083,1.6083,1.6083,1.6083,1.6083,0.0,0.0,0.0,0.0,0.0,0.0,0.0,4.3711,0.0,4.3711,4.3711,4.3711,4.3711,4.3711,4.3711,4.3711,4.3711,4.3711,4.3711,4.3711,4.3711,4.3711,4.3711,4.3711,4.3711,4.3711,4.3711,4.3711,4.3711,4.3711,4.3711,4.3711,4.3711,4.3711,0.0,4.3711,0.0,0.0,0.0,3.6674,3.4617,3.2241,3.0181,3.0474,3.0581,3.0595,3.0742,3.0608,3.0394,3.0541,3.0581,3.0608,3.0755,3.0795,3.0795,3.0795,3.0795,3.0795,3.0795,3.0795,3.0795,3.0795,3.0795,3.0795,3.0795,3.0688,3.0581,3.0581,3.0354,3.01,2.994,2.9913,0.0,0.0,0.0,0.0,0.0,0.0,2.9913,2.9913,2.9913,2.9913,0.0,0.0,0.0,0.0,0.0,0.0,0.0,0.0,0.0,0.0,0.0,0.0,0.0,0.0,0.0,2.8076,2.3375,2.1136,2.1146,1.769,1.6083,1.6083,1.6083,1.6083,1.6083,1.6083,1.6083,1.6083,1.6083,1.6083,1.6083,1.6083,1.6083,1.6083,0.0,4.3711,0.0,0.0,4.3711,0.0,0.0,4.3711,4.3711,4.3711,4.3711,4.3711,4.3711,4.3711,4.3711,4.3711,4.3711,4.3711,4.3711,4.3711,4.3711,4.3711,4.3711,4.3711,4.3711,4.3711,4.3711,4.3711,4.3808,4.3848,4.3848,4.3848,4.3789,0.0,0.0,0.0,0.0,0.0,4.0778,3.7078,3.685,3.4157,3.0488,3.0768,3.0889,3.0889,3.0955,3.0982,3.0982,3.0982,3.0942,3.0889,3.0955,3.0982,3.0982,3.0982,3.0982,3.0982,3.0982,3.0982,3.0982,3.0982,3.0982,3.0982,3.0982,3.0929,3.0889,3.0889,3.0662,3.0368,3.006,3.0007,0.0,0.0,0.0,0.0,0.0,0.0,2.9913,2.9913,2.9913,2.9913,2.9913,0.0,0.0,0.0,0.0,0.0,0.0,0.0,0.0,0.0,0.0,2.9913,2.9913,0.0,2.9953,0.0,2.5273,2.3054,2.2914,1.8286,1.6083,1.6083,1.6083,1.6083,1.6083,1.6083,1.6083,1.6083,1.6083,1.6083,1.6083,1.6083,1.6083,1.6083,0.0,0.0,0.0,0.0,0.0,0.0,0.0,4.3711,4.3711,4.3711,4.3711,4.3711,4.3711,4.3711,4.3711,4.3711,4.3711,4.3711,4.3711,4.3711,4.3711,4.3711,4.3711,4.3711,4.3711,4.3711,4.3711,4.3711,4.4121,4.4336,4.4336,4.4336,0.0,0.0,0.0,0.0,0.0,4.2048,3.9791,3.7627,3.5537,3.3067,3.0782,3.1076,3.1183,3.1223,3.149,3.1583,3.1583,3.1583,3.141,3.1236,3.1503,3.1583,3.1583,3.1583,3.1583,3.1583,3.1583,3.1583,3.1583,3.1583,3.1583,3.1583,3.1583,3.1383,3.1183,3.1183,3.0955,3.0662,3.0368,3.0314,3.0234,0.0,0.0,0.0,0.0,0.0,2.9913,2.9913,2.9913,2.9913,0.0,0.0,0.0,0.0,0.0,0.0,0.0,0.0,0.0,2.9913,0.0,2.9913,2.9913,2.9913,3.0047,3.0327,2.5362,2.3134,2.3143,1.834,1.6083,1.6083,1.6083,1.6083,1.6083,1.6083,1.6083,1.6083,1.6083,1.6083,1.6083,1.6083,1.6083,1.6083,0.0,0.0,0.0,0.0,0.0,0.0,0.0,4.4492,4.4492,4.4492,4.4023,4.3808,4.4082,4.4121,4.4219,4.4473,4.4492,4.4492,4.4492,4.4492,4.4492,4.4492,4.4492,4.4492,4.4492,4.4492,4.4492,4.4492,4.4687,4.4766,4.4766,4.4766,0.0,0.0,0.0,4.459,4.4596,4.2284,3.9914,3.7759,3.5469,3.3214,3.1089,3.1383,3.149,3.1503,3.1623,3.1664,3.1664,3.1664,3.1597,3.1517,3.1637,3.1664,3.1664,3.1664,3.1664,3.1664,3.1664,3.1664,3.1664,3.1664,3.1664,3.1664,3.1664,3.1583,3.149,3.149,3.1263,3.0969,3.0675,3.0621,3.0581,0.0,0.0,0.0,0.0,0.0,0.0,2.9913,2.9913,2.9913,2.9913,0.0,0.0,0.0,0.0,0.0,0.0,0.0,0.0,2.9913,0.0,2.9913,2.9913,2.9913,3.006,3.0368,2.5373,2.3144,2.3163,1.8348,1.6083,1.6083,1.6083,1.6083,1.6083,1.6083,1.6083,1.6083,1.6083,1.6083,1.6083,1.6083,1.6083,1.6083,4.4512,0.0,4.4687,0.0,4.5019,4.5019,4.5019,4.5019,4.5019,4.5019,4.4473,4.4219,4.4551,4.459,4.4707,4.5,4.5019,4.5019,4.5019,4.5019,4.5019,4.5019,4.5019,0.0,4.5019,4.5019,4.5019,4.5019,4.5156,4.5215,4.5215,0.0,0.0,0.0,4.5019,4.5098,4.5044,4.342,4.0983,3.8071,3.6521,3.4085,3.1383,3.1583,3.1664,3.1664,3.1664,3.1664,3.1664,3.1664,3.1664,3.1664,3.1664,3.1664,3.1664,3.1664,3.1664,3.1664,3.1664,3.1664,3.1664,3.1664,3.1664,3.1664,3.1664,3.1664,3.1664,3.1664,3.1503,3.1263,3.0969,3.0915,3.0889,3.0808,0.0,0.0,0.0,3.0234,0.0,3.0047,2.9967,2.9913,2.9913,0.0,0.0,0.0,0.0,0.0,0.0,0.0,0.0,0.0,0.0,0.0,0.0,3.0047,3.0234,3.0621,2.6268,2.3997,2.3455,1.8371,1.6083,1.6083,1.6083,1.6083,1.6083,1.6083,1.6083,1.6083,1.6083,1.6083,1.6083,1.6083,1.6083,1.6083,4.5019,4.5019,4.5019,4.5019,4.5019,4.5019,4.5019,4.5019,4.5019,4.5019,4.5019,4.5019,4.5019,4.5019,4.5019,4.5019,4.5019,4.5019,4.5019,4.5019,4.5019,0.0,0.0,4.5019,4.5019,4.5019,4.5019,4.5019,4.5449,0.0,4.5664,0.0,4.543,4.5019,4.5019,4.5254,4.5664,4.5664,4.3004,3.8977,3.8977,3.6051,3.1664,3.1664,3.1664,3.1664,3.1664,3.1664,3.1664,3.1664,3.1664,3.1664,3.1664,3.1664,3.1664,3.1664,3.1664,3.1664,3.1664,3.1664,3.1664,3.1664,3.1664,3.1664,3.1664,3.1664,3.1664,3.1664,3.1664,3.157,3.1276,3.1223,3.1129,3.0835,0.0,0.0,0.0,3.0541,0.0,3.0354,3.01,2.9913,2.9913,0.0,0.0,0.0,0.0,0.0,0.0,0.0,0.0,2.9913,2.9913,0.0,3.0354,3.0354,3.0648,3.1209,2.8539,2.5972,2.3676,1.8426,1.6083,1.6083,1.6083,1.6083,1.6083,1.6083,1.6083,1.6083,1.6083,1.6083,1.6083,1.6083,1.6083,1.6083,4.541,4.5469,4.5566,4.584,4.5898,4.5898,4.5898,4.5898,4.5898,4.5898,4.5898,4.5898,4.5898,4.5644,4.5586,0.0,4.5898,4.5898,0.0,4.5898,4.5898,4.5898,4.5898,4.5898,4.5898,4.5898,4.5898,4.5898,0.0,0.0,0.0,4.6113,4.6035,4.5898,4.5898,4.5976,4.5919,4.2637,4.0344,3.8628,3.5338,3.3135,3.1664,3.1664,3.1664,3.1664,3.1664,3.1664,3.1664,3.1664,3.1664,3.1664,3.1664,3.1664,3.1664,3.1664,3.1664,3.1664,3.1664,3.1664,3.1664,3.1664,3.1664,3.1664,3.1664,3.1664,3.1664,3.1664,3.1664,3.1637,3.1543,3.153,3.149,3.141,3.1223,0.0,3.1089,0.0,3.0662,3.0662,3.0394,3.0221,0.0,3.0034,0.0,0.0,0.0,0.0,0.0,0.0,0.0,0.0,3.0114,0.0,3.0354,3.0555,3.0849,3.1223,2.8539,2.5206,2.1147,1.7642,1.6083,1.6083,1.6083,1.6083,1.6083,1.6083,1.6083,1.6083,1.6083,1.6083,1.6083,1.6083,1.6083,1.6083,4.5859,4.5918,4.5996,4.625,4.6308,4.6308,4.6308,4.6308,4.6308,4.6308,4.6308,4.6308,4.6308,4.6074,0.0,4.6289,4.6308,4.6308,4.6308,4.6308,4.6308,4.6308,4.6308,4.6308,4.6308,0.0,0.0,4.6308,4.6308,4.6308,4.6308,4.6308,4.6308,4.6308,4.6308,4.5744,4.4649,4.1726,3.9341,3.7344,3.4233,3.2597,3.1664,3.1664,3.1664,3.1664,3.1664,3.1664,3.1664,3.1664,3.1664,3.1664,3.1664,3.1664,3.1664,3.1664,3.1664,3.1664,3.1664,3.1664,3.1664,3.1664,3.1664,3.1664,3.1664,3.1664,3.1664,3.1664,3.1664,3.1664,3.1664,3.1664,3.1664,3.1664,3.1517,3.1396,3.1396,0.0,3.0955,3.0955,0.0,0.0,0.0,3.0354,0.0,0.0,0.0,0.0,0.0,0.0,0.0,3.0074,3.0261,0.0,3.0688,3.0862,3.1102,3.1383,2.7724,2.4521,2.1343,1.7642,1.6083,1.6083,1.6083,1.6083,1.6083,1.6083,1.6083,1.6083,1.6083,1.6083,1.6083,1.6083,1.6083,1.6083,4.6308,4.6308,0.0,0.0,4.6348,0.0,4.6387,4.6387,4.6387,4.6387,4.6387,4.6387,4.6387,4.6387,4.6387,4.6348,0.0,0.0,0.0,4.6308,4.6308,4.6308,4.6308,4.6308,4.6308,4.6308,4.6308,4.6308,4.6308,4.6308,4.6308,4.6308,4.6308,4.6308,4.6308,4.5021,4.2818,4.2443,3.9704,3.5509,3.5137,3.3685,3.1664,3.1664,3.1664,3.1664,3.1664,3.1664,3.1664,3.1664,3.1664,3.1664,3.1664,3.1664,3.1664,3.1664,3.1664,3.1664,3.1664,3.1664,3.1664,3.1664,3.1664,3.1664,3.1664,3.1664,3.1664,3.1664,3.1664,3.1664,3.1664,3.1664,3.1664,3.1664,3.1664,3.1664,3.1664,3.1436,3.1249,0.0,0.0,0.0,0.0,3.0808,3.0795,0.0,0.0,0.0,0.0,0.0,3.01,3.0381,3.0408,3.0675,3.1223,3.1249,3.1396,3.1664,2.6602,2.4074,2.3686,1.8623,1.6275,1.6083,1.6083,1.6083,1.6083,1.6083,1.6083,1.6083,1.6083,1.6083,1.6083,1.6083,1.6083,1.6083,0.0,0.0,4.6406,4.6719,4.6777,4.6894,4.7226,4.7285,4.7285,4.7285,4.7285,4.7285,4.7285,4.7285,4.7148,4.6816,4.6484,4.6308,4.6308,4.6308,4.6308,4.6308,4.6308,4.6308,4.6308,4.6308,4.6308,4.6308,4.6308,4.6308,4.6308,4.6308,4.6308,4.6308,4.6308,4.5939,4.5197,4.1366,3.9159,3.7895,3.406,3.2219,3.1664,3.1664,3.1664,3.1664,3.1664,3.1664,3.1664,3.1664,3.1664,3.1664,3.1664,3.1664,3.1664,3.1664,3.1664,3.1664,3.1664,3.1664,3.1664,3.1664,3.1664,3.1664,3.1664,3.1664,3.1664,3.1664,3.1664,3.1664,3.1664,3.1664,3.1664,3.1664,3.1664,3.1664,3.1664,3.161,3.157,0.0,3.1303,3.1129,3.1129,3.0929,3.0795,0.0,0.0,0.0,0.0,3.0662,3.0621,3.0688,3.0902,3.1089,3.1223,3.145,3.1597,3.1664,2.8356,2.5829,2.388,2.0568,1.8031,1.6083,1.6083,1.6083,1.6083,1.6083,1.6083,1.6083,1.6083,1.6083,1.6083,1.6083,1.6083,1.6083,4.6894,4.6894,4.6953,4.7187,4.7226,4.7305,4.7539,4.7578,4.7578,4.7578,4.7578,4.7578,4.7578,4.7578,4.748,4.7246,4.6836,4.6504,4.6308,4.6308,4.6308,4.6308,4.6308,4.6308,4.6308,4.6308,4.6308,4.6308,4.6308,4.6308,4.6308,4.6308,4.6308,4.6308,4.6308,4.5744,4.4454,4.1726,3.9341,3.716,3.442,3.2772,3.1664,3.1664,3.1664,3.1664,3.1664,3.1664,3.169,3.1824,3.1864,3.1891,3.2024,3.2064,3.2064,3.2064,3.1877,3.1664,3.1664,3.1664,3.1664,3.1664,3.1664,3.1664,3.1664,3.1664,3.1664,3.1664,3.1664,3.1664,3.1664,3.1664,3.1664,3.1664,3.1664,3.1664,3.1664,3.1664,0.0,3.1664,3.153,3.1423,3.1423,3.1289,3.1196,3.1196,3.1196,0.0,3.1196,3.1196,3.1129,3.0996,3.1142,3.1289,3.1423,3.1583,3.1664,3.1664,2.9135,2.6409,2.387,2.1147,1.8616,1.6083,1.6083,1.6083,1.6083,1.6083,1.6083,1.6083,1.6083,1.6083,1.6083,1.6083,1.6083,1.6083,4.7578,4.7578,4.7598,4.7656,4.7676,4.7695,4.7773,4.7773,4.7773,4.7773,4.7773,4.7773,4.7773,4.7773,4.7754,4.7676,4.7344,4.6953,4.6523,4.6504,4.6504,4.6504,4.6426,4.6406,4.6406,4.6328,4.6308,4.6308,4.6308,4.6308,4.6308,4.6308,4.6308,4.6308,4.6308,4.5197,4.3175,4.2818,4.0067,3.5881,3.5509,3.3873,3.1664,3.1664,3.1704,3.173,3.173,3.1757,3.1837,3.2091,3.2171,3.2211,3.2465,3.2545,3.2545,3.2545,3.2198,3.1797,3.1744,3.1704,3.1664,3.1664,3.1664,3.1664,3.1664,3.1664,3.1664,3.1664,3.1664,3.1664,3.1664,3.1664,3.1664,3.1664,3.1664,3.1664,3.1664,0.0,3.1664,3.1664,3.1664,3.1664,3.1664,3.1664,3.1664,3.1664,3.1664,3.1664,0.0,3.1664,3.1557,3.1303,3.1289,3.141,3.1664,3.1664,3.1664,3.1664,2.9529,2.6795,2.388,2.1539,1.901,1.6083,1.6083,1.6083,1.6083,1.6083,1.6083,1.6083,1.6083,1.6083,1.6083,1.6083,1.6083,1.6083,4.7578,4.7578,4.7695,4.8047,4.8105,4.8242,4.8594,4.8652,4.8652,4.8652,4.8652,4.8652,4.8652,4.8652,4.8516,4.8144,4.8047,4.7832,4.7402,4.7383,4.7383,4.7383,4.7031,4.6836,4.6836,4.6484,4.6308,4.6308,4.6308,4.6308,4.6308,4.6308,4.6308,4.6308,4.6308,4.6114,4.5568,4.3549,4.0988,3.8262,3.6051,3.3873,3.1664,3.1664,3.1824,3.2038,3.2038,3.2198,3.2412,3.2465,3.2478,3.2492,3.2532,3.2545,3.2545,3.2545,3.2478,3.2358,3.2104,3.1851,3.1664,3.1664,3.1664,3.1664,3.1664,3.1664,3.1664,3.1664,3.1664,3.1664,3.1664,3.1664,3.1664,3.1664,3.1664,3.1664,3.1664,0.0,3.1664,3.1664,3.1664,3.1664,3.1664,3.1664,3.1664,3.1664,3.1664,3.1664,3.1664,3.1664,3.165,3.1597,3.1597,3.1623,3.1664,3.1664,3.1664,3.1664,3.1284,2.8548,2.388,2.3491,2.0568,1.6083,1.6083,1.6083,1.6083,1.6083,1.6083,1.6083,1.6083,1.6083,1.6083,1.6083,1.6083,1.6083,4.8262,4.8262,4.832,4.8516,4.8555,4.8633,4.8828,4.8867,4.8867,4.8867,4.8867,4.8867,4.8867,4.8867,4.8769,4.8574,4.8555,4.8476,4.8281,4.7832,4.7578,4.7578,4.7383,4.7285,4.7285,4.6855,4.6641,4.6641,4.6406,4.6308,4.6308,4.6308,4.6308,4.6308,4.6308,4.6308,4.6289,4.5021,4.2461,3.8993,3.7903,3.5217,3.1917,3.2078,3.2225,3.2345,3.2345,3.2425,3.2572,3.2732,3.2786,3.2799,3.2959,3.3013,3.3013,3.3013,3.2786,3.2478,3.2185,3.2011,3.1864,3.1704,3.1664,3.1664,3.1664,3.1664,3.1664,3.1664,3.1664,3.1664,3.1664,3.1664,3.1664,3.1664,3.1664,0.0,0.0,3.1664,3.1664,3.1664,3.1664,3.1664,3.1664,3.1664,3.1664,3.1664,3.1664,3.1664,3.1664,3.1664,3.1664,3.1664,3.1664,3.1664,3.1664,3.1664,3.1664,3.1664,3.1664,2.8931,2.388,2.388,2.096,1.6083,1.6083,1.6083,1.6083,1.6083,1.6083,1.6083,1.6083,1.6083,1.6083,1.6083,1.6083,1.6083,4.8867,4.8867,4.8867,4.8867,4.8867,4.8867,4.8867,4.8867,4.8867,4.8867,4.8867,4.8867,4.8867,4.8867,4.8867,4.8867,4.8867,4.8867,4.8867,4.8242,4.7871,4.7871,4.7773,4.7676,4.7578,4.7246,4.709,4.709,4.6758,4.6601,4.6601,4.6601,4.6601,4.6601,4.6601,4.6601,4.6601,4.6034,4.3269,3.9257,3.8796,3.611,3.2225,3.2452,3.2585,3.2652,3.2652,3.2692,3.2786,3.3,3.308,3.312,3.3347,3.3414,3.3414,3.3414,3.3093,3.2666,3.2305,3.2158,3.2051,3.1824,3.1717,3.1664,3.1664,3.1664,3.1664,3.1664,3.1664,3.1664,3.1664,3.1664,3.1664,3.1664,0.0,0.0,0.0,3.1664,3.1664,3.1664,3.1664,3.1664,3.1664,3.1664,3.1664,3.1664,3.1664,3.1664,3.1664,3.1664,3.1664,3.1664,3.1664,3.1664,3.1664,3.1664,3.1664,3.1664,3.1664,2.8931,2.388,2.388,2.096,1.6083,1.6083,1.6083,1.6083,1.6083,1.6083,1.6083,1.6083,1.6083,1.6083,1.6083,1.6083,1.6083,4.8867,4.8867,4.8867,4.8867,4.8867,4.8867,4.8867,4.8867,4.8867,4.8867,4.8867,4.8867,4.8867,4.8867,4.8867,4.8867,4.8867,4.8867,4.8867,4.8808,4.8769,4.8769,4.8379,4.7969,4.7578,4.7558,4.7539,4.7539,4.75,4.748,4.748,4.748,4.748,4.748,4.748,4.748,4.7301,4.4854,4.2417,3.9796,3.7393,3.4967,3.2519,3.2532,3.2706,3.2946,3.2946,3.312,3.3347,3.3374,3.3374,3.3387,3.34,3.3414,3.3414,3.3414,3.3387,3.3227,3.2666,3.2318,3.2104,3.2078,3.1864,3.1664,3.1664,3.1664,3.1664,3.1664,3.1664,3.1664,3.1664,3.1664,3.1664,3.1664,0.0,0.0,3.1664,3.1664,3.1664,3.1664,3.1664,3.1664,3.1664,3.1664,3.1664,3.1664,3.1664,3.1664,3.1664,3.1664,3.1664,3.1664,3.1664,3.1664,3.1664,3.1664,3.1664,3.1664,3.1664,2.8931,2.388,2.388,2.096,1.6083,1.6083,1.6083,1.6083,1.6083,1.6083,1.6083,1.6083,1.6083,1.6083,1.6083,1.6083,1.6083,4.8867,4.8867,4.8867,4.8867,4.8867,4.8867,4.8867,4.8867,4.8867,4.8867,4.8867,4.8867,4.8867,4.8867,4.8867,4.8867,4.8867,4.8867,4.8867,4.8867,4.8867,4.8867,4.8691,4.8535,4.8379,4.8105,4.7969,4.7969,4.7715,4.7578,4.7578,4.7578,4.7578,4.7578,4.7578,4.7578,4.7398,4.4746,4.2302,3.9895,3.7463,3.509,3.2839,3.3013,3.3146,3.324,3.324,3.332,3.3414,3.3414,3.3414,3.3414,3.3414,3.3414,3.3414,3.3414,3.3414,3.336,3.3146,3.2866,3.2559,3.2198,3.2024,3.1891,3.1704,3.1664,3.1664,3.1664,3.1664,3.1664,3.1664,3.1664,3.1664,3.1664,0.0,3.1664,3.1664,3.1664,3.1664,3.1664,3.1664,3.1664,3.1664,3.1664,3.1664,3.1664,3.1664,3.1664,3.1664,3.1664,3.1664,3.1664,3.1664,3.1664,3.1664,3.1664,3.1664,3.1664,3.1664,2.8931,2.388,2.388,2.096,1.6083,1.6083,1.6083,1.6083,1.6083,1.6083,1.6083,1.6083,1.6083,1.6083,1.6083,1.6083,1.6083,4.8867,4.8867,4.8867,4.8867,4.8867,4.8867,4.8867,4.8867,4.8867,4.8867,4.8867,4.8867,4.8867,4.8867,4.8867,4.8867,4.8867,4.8867,4.8867,4.8867,4.8867,4.8867,4.8867,4.8867,4.8867,4.8555,4.8418,4.8418,4.8125,4.7988,4.7988,4.7988,4.7988,4.7988,4.7988,4.7988,4.7787,4.4376,4.1919,4.024,3.6848,3.4647,3.3133,3.3334,3.3414,3.3414,3.3414,3.3414,3.3414,3.3414,3.3414,3.3414,3.3414,3.3414,3.3414,3.3414,3.3414,3.3414,3.3414,3.3267,3.2973,3.2385,3.2171,3.2024,3.173,3.1664,3.1664,3.1664,3.1664,3.1664,3.1664,3.1664,3.1664,3.1664,3.1664,3.1664,3.1664,3.1664,3.1664,3.1664,3.1664,3.1664,3.1664,3.1664,3.1664,3.1664,3.1664,3.1664,3.1664,3.1664,3.1664,3.1664,3.1664,3.1664,3.1664,3.1664,3.1664,3.1664,3.1664,2.9326,2.5045,2.4269,2.1539,1.7253,1.6474,1.6083,1.6083,1.6083,1.6083,1.6083,1.6083,1.6083,1.6083,1.6083,1.6083,1.6083,4.8867,4.8867,4.8867,4.8867,4.8867,4.8867,4.8867,4.8867,4.8867,4.8867,4.8867,4.8867,4.8867,4.8867,4.8867,4.8867,4.8867,4.8867,4.8867,4.8867,4.8867,4.8867,4.8867,4.8867,4.8867,4.8867,4.8867,4.8867,4.8867,4.8867,4.8867,4.8867,4.8867,4.8867,4.8867,4.8867,4.8478,4.3452,4.1139,4.0754,3.555,3.3414,3.3414,3.3414,3.3414,3.3414,3.3414,3.3414,3.3414,3.3414,3.3414,3.3414,3.3414,3.3414,3.3414,3.3414,3.3414,3.3414,3.3414,3.3414,3.328,3.2692,3.2318,3.2024,3.1744,3.1664,3.1664,3.1664,3.1664,3.1664,3.1664,3.1664,3.1664,3.1664,3.1664,3.1664,3.1664,3.1664,3.1664,3.1664,3.1664,3.1664,3.1664,3.1664,3.1664,3.1664,3.1664,3.1664,3.1664,3.1664,3.1664,3.1664,3.1664,3.1664,3.1664,3.1664,3.1664,3.1664,3.1664,3.0306,2.7588,2.5045,2.2507,1.9782,1.7253,1.6083,1.6083,1.6083,1.6083,1.6083,1.6083,1.6083,1.6083,1.6083,1.6083,1.6083,4.9336,4.9082,4.8867,4.8867,4.8867,4.8867,4.8867,4.8867,4.8867,4.8867,4.8867,4.8867,4.8867,4.8867,4.8867,4.8867,4.8867,4.8867,4.8867,4.8867,4.8867,4.8867,4.8867,4.8867,4.8867,4.8867,4.8867,4.8867,4.8867,4.8867,4.8867,4.8867,4.8867,4.8867,4.8867,4.8867,4.8478,4.3452,4.1139,4.0754,3.555,3.3414,3.3414,3.3414,3.3414,3.3414,3.3414,3.3414,3.3414,3.3414,3.3414,3.3414,3.3414,3.3414,3.3414,3.3414,3.3414,3.3414,3.3414,3.3414,3.332,3.2946,3.2625,3.2332,3.2038,3.1824,3.1664,3.1664,3.1664,3.1664,3.1664,3.1664,3.1664,3.1664,3.1664,3.1664,3.1664,3.1664,3.1664,3.1664,3.1664,3.1664,3.1664,3.1664,3.1664,3.1664,3.1664,3.1664,3.1664,3.1664,3.1664,3.1664,3.1664,3.1664,3.1664,3.1664,3.1664,3.1664,3.1664,2.9326,2.5045,2.4269,2.1539,1.7253,1.6474,1.6083,1.6083,1.6083,1.6083,1.6083,1.6083,1.6083,1.6083,1.6083,1.6083,1.6083,4.9785,4.9433,4.9121,4.9121,4.8984,4.8867,4.8867,4.8867,4.8867,4.8867,4.8867,4.8867,4.8867,4.8867,4.8867,4.8867,4.8867,4.8867,4.8867,4.8867,4.8867,4.8867,4.8867,4.8867,4.8867,4.8867,4.8867,4.8867,4.8867,4.8867,4.8867,4.8867,4.8867,4.8867,4.8867,4.8867,4.8663,4.4418,4.2099,4.0754,3.6721,3.4386,3.3414,3.3414,3.3414,3.3414,3.3414,3.3414,3.3414,3.3414,3.3414,3.3414,3.3414,3.3414,3.3414,3.3414,3.3414,3.3414,3.3414,3.3414,3.3374,3.32,3.2839,3.2465,3.2171,3.1877,3.1664,3.1664,3.1664,3.1664,3.1664,3.1664,3.1664,3.1664,3.1664,3.1664,3.1664,3.1664,3.1664,3.1664,3.1664,3.1664,3.1664,3.1664,3.1664,3.1664,3.1664,3.1664,3.1664,3.1664,3.1664,3.1664,3.1664,3.1664,3.1664,3.1664,3.1664,3.1664,3.1664,3.0102,2.6987,2.4851,2.2126,1.901,1.7062,1.6083,1.6083,1.6083,1.6083,1.6083,1.6083,1.6083,1.6083,1.6083,1.6083,1.6083,5.0234,4.9883,4.957,4.9531,4.918,4.8906,4.8867,4.8867,4.8867,4.8867,4.8867,4.8867,4.8867,4.8867,4.8867,4.8867,4.8867,4.8867,4.8867,4.8867,4.8867,4.8867,4.8867,4.8867,4.8867,4.8867,4.8867,4.8867,4.8867,4.8867,4.8867,4.8867,4.8867,4.8867,4.8867,4.8867,4.8663,4.6149,4.3452,4.0947,3.8277,3.5748,3.3414,3.3414,3.3414,3.3414,3.3414,3.3414,3.3414,3.3414,3.3414,3.3414,3.3414,3.3414,3.3414,3.3414,3.3414,3.3414,3.3414,3.3414,3.3414,3.3414,3.2986,3.2505,3.2211,3.1917,3.1704,3.1677,3.1664,3.1664,3.1664,3.1664,3.1664,3.1664,3.1664,3.1664,3.1664,3.1664,3.1664,3.1664,3.1664,3.1664,3.1664,3.1664,3.1664,3.1664,3.1664,3.1664,3.1664,3.1664,3.1664,3.1664,3.1664,3.1664,3.1664,3.1664,3.1664,3.1664,3.1664,3.1664,3.127,2.6205,2.3676,2.3286,1.8228,1.6083,1.6083,1.6083,1.6083,1.6083,1.6083,1.6083,1.6083,1.6083,1.6083,1.6083,5.0664,5.0332,4.9922,4.959,4.9453,4.9258,4.8906,4.8867,4.8867,4.8867,4.8867,4.8867,4.8867,4.8867,4.8867,4.8867,4.8867,4.8867,4.8867,4.8867,4.8867,4.8867,4.8867,4.8867,4.8867,4.8867,4.8867,4.8867,4.8867,4.8867,4.8867,4.8867,4.8867,4.8867,4.8867,4.8867,4.8663,4.6149,4.3452,4.0947,3.8441,3.5748,3.3414,3.3414,3.3414,3.3414,3.3414,3.3414,3.3414,3.3414,3.3414,3.3414,3.3414,3.3414,3.3414,3.3414,3.3414,3.3414,3.3414,3.3414,3.3414,3.3414,3.3146,3.2812,3.2519,3.2225,3.1944,3.1717,3.1664,3.1664,3.1664,3.1664,3.1664,3.1664,3.1664,3.1664,3.1664,3.1664,3.1664,3.1664,3.1664,3.1664,3.1664,3.1664,3.1664,3.1664,3.1664,3.1664,3.1664,3.1664,3.1664,3.1664,3.1664,3.1664,3.1664,3.1664,3.1664,3.1664,3.1664,3.0687,2.856,2.5432,2.2711,2.0755,1.7452,1.6083,1.6083,1.6083,1.6083,1.6083,1.6083,1.6083,1.6083,1.6083,1.6083,1.6083,5.1094,5.0762,5.0351,4.9902,4.9668,4.9375,4.8926,4.8867,4.8867,4.8867,4.8867,4.8867,4.8867,4.8867,4.8867,4.8867,4.8867,4.8867,4.8867,4.8867,4.8867,4.8867,4.8867,4.8867,4.8867,4.8867,4.8867,4.8867,4.8867,4.8867,4.8867,4.8867,4.8867,4.8867,4.8867,4.8867,4.8848,4.7493,4.5379,4.2863,4.0174,3.7674,3.5153,3.38,3.3414,3.3414,3.3414,3.3414,3.3414,3.3414,3.3414,3.3414,3.3414,3.3414,3.3414,3.3414,3.3414,3.3414,3.3414,3.3414,3.3414,3.3414,3.3293,3.3066,3.2639,3.2318,3.2024,3.173,3.1664,3.1664,3.1664,3.1664,3.1664,3.1664,3.1664,3.1664,3.1664,3.1664,3.1664,3.1664,3.1664,3.1664,3.1664,3.1664,3.1664,3.1664,3.1664,3.1664,3.1664,3.1664,3.1664,3.1664,3.1664,3.1664,3.1664,3.1664,3.1664,3.1664,3.1664,3.089,2.9529,2.5625,2.3092,2.1735,1.784,1.6083,1.6083,1.6083,1.6083,1.6083,1.6083,1.6083,1.6083,1.6083,1.6083,1.6083,5.1426,5.1152,5.0762,5.0273,4.9883,4.9453,4.8945,4.8867,4.8867,4.8867,4.8867,4.8867,4.8867,4.8867,4.8867,4.8867,4.8867,4.8867,4.8867,4.8867,4.8867,4.8867,4.8867,4.8867,4.8867,4.8867,4.8867,4.8867,4.8867,4.8867,4.8867,4.8867,4.8867,4.8867,4.8867,4.8867,4.8867,4.8867,4.7307,4.4796,4.229,3.9593,3.7085,3.4386,3.3414,3.3414,3.3414,3.3414,3.3414,3.3414,3.3414,3.3414,3.3414,3.3414,3.3414,3.3414,3.3414,3.3414,3.3414,3.3414,3.3414,3.3414,3.3414,3.3253,3.2679,3.2358,3.2078,3.1744,3.1664,3.1664,3.1664,3.1664,3.1664,3.1664,3.1664,3.1664,3.1664,3.1664,3.1664,3.1664,3.1664,3.1664,3.1664,3.1664,3.1664,3.1664,3.1664,3.1664,3.1664,3.1664,3.1664,3.1664,3.1664,3.1664,3.1664,3.1664,3.1664,3.1664,3.1664,3.1664,3.1474,2.6205,2.388,2.3686,1.8426,1.6083,1.6083,1.6083,1.6083,1.6083,1.6083,1.6083,1.6083,1.6083,1.6083,1.6083,5.1426,5.1387,5.1094,5.0312,5.0137,4.9805,4.8984,4.8867,4.8867,4.8867,4.8867,4.8867,4.8867,4.8867,4.8867,4.8867,4.8867,4.8867,4.8867,4.8867,4.8867,4.8867,4.8867,4.8867,4.8867,4.8867,4.8867,4.8867,4.8867,4.8867,4.8867,4.8867,4.8867,4.8867,4.8867,4.8867,4.8867,4.8867,4.7307,4.4796,4.229,3.9593,3.7085,3.4386,3.3414,3.3414,3.3414,3.3414,3.3414,3.3414,3.3414,3.3414,3.3414,3.3414,3.3414,3.3414,3.3414,3.3414,3.3414,3.3414,3.3414,3.3414,3.3414,3.3253,3.2679,3.2519,3.2332,3.1784,3.1664,3.1664,3.1664,3.1664,3.1664,3.1664,3.1664,3.1664,3.1664,3.1664,3.1664,3.1664,3.1664,3.1664,3.1664,3.1664,3.1664,3.1664,3.1664,3.1664,3.1664,3.1664,3.1664,3.1664,3.1664,3.1664,3.1664,3.1664,3.1664,3.1664,3.1664,3.1664,3.1474,2.6205,2.388,2.3686,1.8426,1.6083,1.6083,1.6083,1.6083,1.6083,1.6083,1.6083,1.6083,1.6083,1.6083,1.6083,5.1426,5.1426,5.1172,5.0332,5.0176,4.9883,4.9004,4.8867,4.8867,4.8867,4.8867,4.8867,4.8867,4.8867,4.8867,4.8867,4.8867,4.8867,4.8867,4.8867,4.8867,4.8867,4.8867,4.8867,4.8867,4.8867,4.8867,4.8867,4.8867,4.8867,4.8867,4.8867,4.8867,4.8867,4.8867,4.8867,4.8867,4.8867,4.8273,4.6915,4.2863,4.0561,3.9026,3.4955,3.3414,3.3414,3.3414,3.3414,3.3414,3.3414,3.3414,3.3414,3.3414,3.3414,3.3414,3.3414,3.3414,3.3414,3.3414,3.3414,3.3414,3.3414,3.3293,3.3066,3.2639,3.2412,3.2171,3.1757,3.1664,3.1664,3.1664,3.1664,3.1664,3.1664,3.1664,3.1664,3.1664,3.1664,3.1664,3.1664,3.1664,3.1664,3.1664,3.1664,3.1664,3.1664,3.1664,3.1664,3.1664,3.1664,3.1664,3.1664,3.1664,3.1664,3.1664,3.1664,3.1664,3.1664,3.1664,3.1664,3.1474,2.7768,2.5238,2.3686,1.9978,1.7452,1.6083,1.6083,1.6083,1.6083,1.6083,1.6083,1.6083,1.6083,1.6083,1.6083]},{"header":{"parameterUnit":"m.s-1","parameterCategory":1,"la1":30.6,"la2":28.766,"lo1":-90.7593,"lo2":-88.6598,"dx":0.0162,"dy":0.0183,"nx":116,"ny":114,"refTime":"2023-01-22T06:00:00:Z","depth":0,"parameterNumber":3,"parameterNumberName":"V-component_of_WINDS"},"data":[0.0,0.0,0.0,0.0,0.0,0.0,0.0,0.0,0.0,0.0,0.0,0.0,0.0,0.0,0.0,0.0,0.0,0.0,0.0,0.0,0.0,0.0,0.0,0.0,0.0,0.0,0.0,0.0,0.0,0.0,0.0,0.0,0.0,0.0,0.0,0.0,0.0,0.0,0.0,0.0,0.0,0.0,0.0,0.0,0.0,0.0,0.0,0.0,0.0,0.0,0.0,0.0,0.0,0.0,0.0,0.0,0.0,0.0,0.0,0.0,0.0,0.0,0.0,0.0,0.0,0.0,0.0,0.0,0.0,0.0,0.0,0.0,0.0,0.0,0.0,0.0,0.0,0.0,0.0,0.0,0.0,0.0,0.0,0.0,0.0,0.0,0.0,0.0,0.0,0.0,0.0,0.0,0.0,0.0,0.0,0.0,0.0,0.0,0.0,0.0,0.0,0.0,0.0,0.0,0.0,0.0,0.0,0.0,0.0,0.0,0.0,0.0,0.0,0.0,0.0,0.0,0.0,0.0,0.0,0.0,0.0,0.0,0.0,0.0,0.0,0.0,0.0,0.0,0.0,0.0,0.0,0.0,0.0,0.0,0.0,0.0,0.0,0.0,0.0,0.0,0.0,0.0,0.0,0.0,0.0,0.0,0.0,0.0,0.0,0.0,0.0,0.0,0.0,0.0,0.0,0.0,0.0,0.0,0.0,0.0,0.0,0.0,0.0,0.0,0.0,0.0,0.0,0.0,0.0,0.0,0.0,0.0,0.0,0.0,0.0,0.0,0.0,0.0,0.0,0.0,0.0,0.0,0.0,0.0,0.0,0.0,0.0,0.0,0.0,0.0,0.0,0.0,0.0,0.0,0.0,0.0,0.0,0.0,0.0,0.0,0.0,0.0,0.0,0.0,0.0,0.0,0.0,0.0,0.0,0.0,0.0,0.0,0.0,0.0,0.0,0.0,0.0,0.0,0.0,0.0,0.0,0.0,0.0,0.0,0.0,0.0,0.0,0.0,0.0,0.0,0.0,0.0,0.0,0.0,0.0,0.0,0.0,0.0,0.0,0.0,0.0,0.0,0.0,0.0,0.0,0.0,0.0,0.0,0.0,0.0,0.0,0.0,0.0,0.0,0.0,0.0,0.0,0.0,0.0,0.0,0.0,0.0,0.0,0.0,0.0,0.0,0.0,0.0,0.0,0.0,0.0,0.0,0.0,0.0,0.0,0.0,0.0,0.0,0.0,0.0,0.0,0.0,0.0,0.0,0.0,0.0,0.0,0.0,0.0,0.0,0.0,0.0,0.0,0.0,0.0,0.0,0.0,0.0,0.0,0.0,0.0,0.0,0.0,0.0,0.0,0.0,0.0,0.0,0.0,0.0,0.0,0.0,0.0,0.0,0.0,0.0,0.0,0.0,0.0,0.0,0.0,0.0,0.0,0.0,0.0,0.0,0.0,0.0,0.0,0.0,0.0,0.0,0.0,0.0,0.0,0.0,0.0,0.0,0.0,0.0,0.0,0.0,0.0,0.0,0.0,0.0,0.0,0.0,0.0,0.0,0.0,0.0,0.0,0.0,0.0,0.0,0.0,0.0,0.0,0.0,0.0,0.0,0.0,0.0,0.0,0.0,0.0,0.0,0.0,0.0,0.0,0.0,0.0,0.0,0.0,0.0,0.0,0.0,0.0,0.0,0.0,0.0,0.0,0.0,0.0,0.0,0.0,0.0,0.0,0.0,0.0,0.0,0.0,0.0,0.0,0.0,0.0,0.0,0.0,0.0,0.0,0.0,0.0,0.0,0.0,0.0,0.0,0.0,0.0,0.0,0.0,0.0,0.0,0.0,0.0,0.0,0.0,0.0,0.0,0.0,0.0,0.0,0.0,0.0,0.0,0.0,0.0,0.0,0.0,0.0,0.0,0.0,0.0,0.0,0.0,0.0,0.0,0.0,0.0,0.0,0.0,0.0,0.0,0.0,0.0,0.0,0.0,0.0,0.0,0.0,0.0,0.0,0.0,0.0,0.0,0.0,0.0,0.0,0.0,0.0,0.0,0.0,0.0,0.0,0.0,0.0,0.0,0.0,0.0,0.0,0.0,0.0,0.0,0.0,0.0,0.0,0.0,0.0,0.0,0.0,0.0,0.0,0.0,0.0,0.0,0.0,0.0,0.0,0.0,0.0,0.0,0.0,0.0,0.0,0.0,0.0,0.0,0.0,0.0,0.0,0.0,0.0,0.0,0.0,0.0,0.0,0.0,0.0,0.0,0.0,0.0,0.0,0.0,0.0,0.0,0.0,0.0,0.0,0.0,0.0,0.0,0.0,0.0,0.0,0.0,0.0,0.0,0.0,0.0,0.0,0.0,0.0,0.0,0.0,0.0,0.0,0.0,0.0,0.0,0.0,0.0,0.0,0.0,0.0,0.0,0.0,0.0,0.0,0.0,0.0,0.0,0.0,0.0,0.0,0.0,0.0,0.0,0.0,0.0,0.0,0.0,0.0,0.0,0.0,0.0,0.0,0.0,0.0,0.0,0.0,0.0,0.0,0.0,0.0,0.0,0.0,0.0,0.0,0.0,0.0,0.0,0.0,0.0,0.0,0.0,0.0,0.0,0.0,0.0,0.0,0.0,0.0,0.0,0.0,0.0,0.0,0.0,0.0,0.0,0.0,0.0,0.0,0.0,0.0,0.0,0.0,0.0,0.0,0.0,0.0,0.0,0.0,0.0,0.0,0.0,0.0,0.0,0.0,0.0,0.0,0.0,0.0,0.0,0.0,0.0,0.0,0.0,0.0,0.0,0.0,0.0,0.0,0.0,0.0,0.0,0.0,0.0,0.0,0.0,0.0,0.0,0.0,0.0,0.0,0.0,0.0,0.0,0.0,0.0,0.0,0.0,0.0,0.0,0.0,0.0,0.0,0.0,0.0,0.0,0.0,0.0,0.0,0.0,0.0,0.0,0.0,0.0,0.0,0.0,0.0,0.0,0.0,0.0,0.0,0.0,0.0,0.0,0.0,0.0,0.0,0.0,0.0,0.0,0.0,0.0,0.0,0.0,0.0,0.0,0.0,0.0,0.0,0.0,0.0,0.0,0.0,0.0,0.0,0.0,0.0,0.0,0.0,0.0,0.0,0.0,0.0,0.0,0.0,0.0,0.0,0.0,0.0,0.0,0.0,0.0,0.0,0.0,0.0,0.0,0.0,0.0,0.0,0.0,0.0,0.0,0.0,0.0,0.0,0.0,0.0,0.0,0.0,0.0,0.0,0.0,0.0,0.0,0.0,0.0,0.0,0.0,0.0,0.0,0.0,0.0,0.0,0.0,0.0,0.0,0.0,0.0,0.0,0.0,0.0,0.0,0.0,0.0,0.0,0.0,0.0,0.0,0.0,0.0,0.0,0.0,0.0,0.0,0.0,0.0,0.0,0.0,0.0,0.0,0.0,0.0,0.0,0.0,0.0,0.0,0.0,0.0,0.0,0.0,0.0,0.0,0.0,0.0,0.0,0.0,0.0,0.0,0.0,0.0,0.0,0.0,0.0,0.0,0.0,0.0,0.0,0.0,0.0,0.0,0.0,0.0,0.0,0.0,0.0,0.0,0.0,0.0,0.0,0.0,0.0,0.0,0.0,0.0,0.0,0.0,0.0,0.0,0.0,0.0,0.0,0.0,0.0,0.0,0.0,0.0,0.0,0.0,0.0,0.0,0.0,0.0,0.0,0.0,0.0,0.0,0.0,0.0,0.0,0.0,0.0,0.0,0.0,0.0,0.0,0.0,0.0,0.0,0.0,0.0,0.0,0.0,0.0,0.0,0.0,0.0,0.0,0.0,0.0,0.0,0.0,0.0,0.0,0.0,0.0,0.0,0.0,0.0,0.0,0.0,0.0,0.0,0.0,0.0,0.0,0.0,0.0,0.0,0.0,0.0,0.0,0.0,0.0,0.0,0.0,0.0,0.0,0.0,0.0,0.0,0.0,0.0,0.0,0.0,0.0,0.0,0.0,0.0,0.0,0.0,0.0,0.0,0.0,0.0,0.0,0.0,0.0,0.0,0.0,0.0,0.0,0.0,0.0,0.0,0.0,0.0,0.0,0.0,0.0,0.0,0.0,0.0,0.0,0.0,0.0,0.0,0.0,0.0,0.0,0.0,0.0,0.0,0.0,0.0,0.0,0.0,0.0,0.0,0.0,0.0,0.0,0.0,0.0,0.0,0.0,0.0,0.0,0.0,0.0,0.0,0.0,0.0,0.0,0.0,0.0,0.0,0.0,0.0,0.0,0.0,0.0,0.0,0.0,0.0,0.0,0.0,0.0,0.0,0.0,0.0,0.0,0.0,0.0,0.0,0.0,0.0,0.0,0.0,0.0,0.0,0.0,0.0,0.0,0.0,0.0,0.0,0.0,0.0,0.0,0.0,0.0,0.0,0.0,0.0,0.0,0.0,0.0,0.0,0.0,0.0,0.0,0.0,0.0,0.0,0.0,0.0,0.0,0.0,0.0,0.0,0.0,0.0,0.0,0.0,0.0,0.0,0.0,0.0,0.0,0.0,0.0,0.0,0.0,0.0,0.0,0.0,0.0,0.0,0.0,0.0,0.0,0.0,0.0,0.0,0.0,0.0,0.0,0.0,0.0,0.0,0.0,0.0,0.0,0.0,0.0,0.0,0.0,0.0,0.0,0.0,0.0,0.0,0.0,0.0,0.0,0.0,0.0,0.0,0.0,0.0,0.0,0.0,0.0,0.0,0.0,0.0,0.0,0.0,0.0,0.0,0.0,0.0,0.0,0.0,0.0,0.0,0.0,0.0,0.0,0.0,0.0,0.0,0.0,0.0,0.0,0.0,0.0,0.0,0.0,0.0,0.0,0.0,0.0,0.0,0.0,0.0,0.0,0.0,0.0,0.0,0.0,0.0,0.0,0.0,0.0,0.0,0.0,0.0,0.0,0.0,0.0,0.0,0.0,0.0,0.0,0.0,0.0,0.0,0.0,0.0,0.0,0.0,0.0,0.0,0.0,0.0,0.0,0.0,0.0,0.0,0.0,0.0,0.0,0.0,0.0,0.0,0.0,0.0,0.0,0.0,0.0,0.0,0.0,0.0,0.0,0.0,0.0,0.0,0.0,0.0,0.0,0.0,0.0,0.0,0.0,0.0,0.0,0.0,0.0,0.0,0.0,0.0,0.0,0.0,0.0,0.0,0.0,0.0,0.0,0.0,0.0,0.0,0.0,0.0,0.0,0.0,0.0,0.0,0.0,0.0,0.0,0.0,0.0,0.0,0.0,0.0,0.0,0.0,0.0,0.0,0.0,0.0,0.0,0.0,0.0,0.0,0.0,0.0,0.0,0.0,0.0,0.0,0.0,0.0,0.0,0.0,0.0,0.0,0.0,0.0,0.0,0.0,0.0,0.0,0.0,0.0,0.0,0.0,0.0,0.0,0.0,0.0,0.0,0.0,0.0,0.0,0.0,0.0,0.0,0.0,0.0,0.0,0.0,0.0,0.0,0.0,0.0,0.0,0.0,0.0,0.0,0.0,0.0,0.0,0.0,0.0,0.0,0.0,0.0,0.0,0.0,0.0,0.0,0.0,0.0,0.0,0.0,0.0,0.0,0.0,0.0,0.0,0.0,0.0,0.0,0.0,0.0,0.0,0.0,0.0,0.0,0.0,0.0,0.0,0.0,0.0,0.0,0.0,0.0,0.0,0.0,0.0,0.0,0.0,0.0,0.0,0.0,0.0,0.0,0.0,0.0,0.0,0.0,0.0,0.0,0.0,0.0,0.0,0.0,0.0,0.0,0.0,0.0,0.0,0.0,0.0,0.0,0.0,0.0,0.0,0.0,0.0,0.0,0.0,0.0,0.0,0.0,0.0,0.0,0.0,0.0,0.0,0.0,0.0,0.0,0.0,0.0,0.0,0.0,0.0,0.0,0.0,0.0,0.0,0.0,0.0,0.0,0.0,0.0,0.0,0.0,0.0,0.0,0.0,0.0,0.0,0.0,0.0,0.0,0.0,0.0,0.0,0.0,0.0,0.0,0.0,0.0,0.0,0.0,0.0,0.0,0.0,0.0,0.0,0.0,0.0,0.0,0.0,0.0,0.0,0.0,0.0,0.0,0.0,0.0,0.0,0.0,-8.3054,0.0,0.0,0.0,0.0,0.0,0.0,0.0,0.0,0.0,0.0,0.0,0.0,0.0,0.0,0.0,0.0,0.0,0.0,0.0,0.0,0.0,0.0,0.0,0.0,0.0,0.0,0.0,0.0,0.0,0.0,0.0,0.0,0.0,0.0,0.0,0.0,0.0,0.0,0.0,-6.8641,-6.9082,-6.9486,-6.9045,-6.9082,-6.9486,0.0,0.0,0.0,0.0,0.0,0.0,0.0,0.0,0.0,0.0,0.0,0.0,0.0,0.0,0.0,0.0,0.0,0.0,0.0,0.0,0.0,0.0,0.0,0.0,0.0,0.0,0.0,0.0,0.0,0.0,0.0,0.0,0.0,0.0,0.0,0.0,0.0,0.0,0.0,0.0,0.0,0.0,0.0,0.0,0.0,0.0,0.0,0.0,0.0,0.0,0.0,0.0,0.0,0.0,0.0,0.0,0.0,0.0,0.0,0.0,0.0,0.0,0.0,0.0,0.0,0.0,0.0,0.0,0.0,0.0,0.0,-8.3593,0.0,0.0,0.0,0.0,0.0,0.0,0.0,0.0,0.0,0.0,0.0,0.0,0.0,0.0,0.0,0.0,0.0,0.0,0.0,0.0,0.0,0.0,0.0,0.0,0.0,0.0,0.0,0.0,0.0,0.0,0.0,0.0,0.0,0.0,0.0,-6.8715,-6.9119,-6.9119,-6.9926,-7.0293,-7.0293,-7.044,-7.0513,-7.0513,-7.0367,0.0,0.0,0.0,0.0,0.0,0.0,0.0,0.0,0.0,0.0,0.0,0.0,0.0,0.0,0.0,0.0,0.0,0.0,0.0,0.0,0.0,0.0,0.0,0.0,0.0,0.0,0.0,0.0,0.0,0.0,0.0,0.0,0.0,0.0,0.0,0.0,0.0,0.0,0.0,0.0,0.0,0.0,0.0,0.0,0.0,0.0,0.0,0.0,0.0,0.0,0.0,0.0,0.0,0.0,0.0,0.0,0.0,0.0,0.0,0.0,0.0,0.0,0.0,0.0,-8.5478,-8.6094,-8.6094,-8.6094,-8.6017,-8.4632,-8.4016,-8.4016,0.0,0.0,0.0,0.0,0.0,0.0,0.0,0.0,0.0,0.0,0.0,0.0,0.0,0.0,0.0,0.0,0.0,0.0,0.0,0.0,0.0,0.0,0.0,-6.7687,-6.7687,-6.7687,-6.7687,0.0,0.0,0.0,0.0,0.0,0.0,-6.8752,-6.9522,-6.9926,-6.9926,-7.077,-7.1138,-7.1174,-7.1872,-7.2165,-7.2165,-7.1468,-7.1615,-7.2349,0.0,0.0,0.0,0.0,0.0,0.0,0.0,0.0,0.0,0.0,0.0,0.0,0.0,0.0,0.0,0.0,0.0,0.0,0.0,0.0,0.0,0.0,0.0,0.0,0.0,0.0,0.0,0.0,0.0,0.0,0.0,0.0,0.0,0.0,0.0,0.0,0.0,0.0,0.0,0.0,0.0,-7.9334,-8.063,0.0,0.0,0.0,0.0,0.0,0.0,0.0,0.0,0.0,0.0,0.0,0.0,0.0,0.0,-8.5747,-8.5786,-8.5824,-8.594,-8.594,-8.6017,-8.6094,-8.6094,-8.6094,-8.6094,-8.5863,0.0,-8.5786,-8.5786,0.0,0.0,0.0,0.0,0.0,0.0,0.0,0.0,0.0,0.0,0.0,0.0,0.0,0.0,0.0,0.0,0.0,0.0,0.0,0.0,0.0,-6.7687,-6.7687,-6.7687,-6.7687,-6.7687,-6.7687,0.0,0.0,0.0,0.0,-6.9119,-6.9559,-7.0367,-7.0991,-7.1468,-7.1798,-7.1982,-7.1982,-7.2349,-7.2496,-7.2496,-7.2129,-7.2165,-7.2496,-7.2496,0.0,0.0,0.0,0.0,0.0,0.0,0.0,0.0,0.0,0.0,0.0,0.0,0.0,0.0,0.0,0.0,0.0,0.0,0.0,0.0,0.0,0.0,0.0,0.0,0.0,0.0,0.0,0.0,0.0,0.0,0.0,0.0,0.0,0.0,0.0,0.0,0.0,0.0,0.0,-7.9524,-8.0144,-8.073,-8.0423,-8.0585,0.0,0.0,0.0,0.0,0.0,0.0,0.0,0.0,0.0,-8.5555,-8.5555,-8.5747,-8.6094,-8.6094,-8.6094,-8.6094,-8.6094,-8.6094,-8.6094,-8.6094,-8.6094,-8.6094,-8.6094,-8.6094,-8.6094,-8.6094,-8.6094,-8.6094,0.0,0.0,0.0,0.0,0.0,-8.5517,0.0,0.0,0.0,0.0,0.0,0.0,0.0,0.0,0.0,0.0,0.0,0.0,-6.7687,-6.7687,-6.7687,-6.7687,-6.7687,-6.7687,-6.7687,0.0,0.0,0.0,0.0,-6.9779,-7.0403,-7.1211,-7.1908,-7.2496,-7.2496,-7.2496,-7.2496,-7.2496,-7.2496,-7.2496,-7.2496,-7.2496,-7.2496,-7.2496,-7.2496,-7.2496,0.0,0.0,0.0,0.0,0.0,0.0,0.0,0.0,0.0,0.0,0.0,0.0,0.0,0.0,0.0,0.0,0.0,0.0,0.0,0.0,0.0,0.0,0.0,0.0,0.0,0.0,0.0,0.0,0.0,0.0,0.0,0.0,0.0,0.0,0.0,0.0,0.0,-7.9778,-8.0696,-8.1198,-8.1544,-8.1968,0.0,0.0,0.0,0.0,0.0,0.0,-8.4519,-8.5501,-8.6094,-8.6094,-8.6094,-8.6094,-8.6094,-8.6094,-8.6094,-8.6094,-8.6094,-8.6094,-8.6094,-8.6094,-8.6094,-8.6094,-8.6094,-8.6094,-8.6094,-8.6094,-8.6094,-8.6094,-8.6094,-8.6094,-8.6094,-8.6094,-8.6094,-8.6094,0.0,0.0,0.0,0.0,0.0,0.0,0.0,0.0,0.0,0.0,0.0,-6.7687,-6.7687,-6.7687,-6.7687,-6.7687,-6.7687,-6.7687,-6.7687,-6.8421,-6.8862,-6.8898,-7.0367,-7.1211,-7.1248,-7.2055,-7.2459,-7.2496,-7.2496,-7.2496,-7.2496,-7.2496,-7.2496,-7.2496,-7.2496,-7.2496,-7.2496,-7.2496,-7.2496,-7.2496,-7.2496,0.0,0.0,0.0,0.0,0.0,0.0,0.0,0.0,0.0,0.0,0.0,0.0,0.0,0.0,0.0,0.0,0.0,0.0,0.0,0.0,0.0,0.0,0.0,0.0,0.0,0.0,0.0,0.0,0.0,0.0,0.0,0.0,0.0,0.0,0.0,0.0,0.0,0.0,-8.3197,-8.2403,0.0,0.0,0.0,0.0,-8.3826,-8.52,-8.6017,-8.5983,-8.6094,-8.6094,-8.6094,-8.6094,-8.6094,-8.6094,-8.6094,-8.6094,-8.6094,-8.6094,-8.6094,-8.6094,-8.6094,-8.6094,-8.6094,-8.6094,-8.6094,-8.6094,-8.6094,-8.6094,-8.6094,-8.6094,-8.6094,-8.6094,-8.6094,-8.6094,-8.6094,0.0,0.0,0.0,0.0,0.0,0.0,0.0,0.0,0.0,-6.7687,-6.7687,-6.7687,-6.7687,-6.7687,-6.7687,-6.7687,-6.7687,-6.7687,-6.7687,-6.8458,-6.9119,-6.9633,-7.0734,-7.1541,-7.2055,-7.2349,-7.2496,-7.2496,-7.2496,-7.2496,-7.2496,-7.2496,-7.2496,-7.2496,-7.2496,-7.2496,-7.2496,-7.2496,-7.2496,-7.2569,-7.3046,-7.345,0.0,0.0,0.0,0.0,0.0,0.0,0.0,0.0,0.0,0.0,0.0,0.0,0.0,0.0,0.0,0.0,0.0,0.0,0.0,0.0,0.0,0.0,0.0,0.0,0.0,0.0,0.0,0.0,0.0,0.0,0.0,0.0,0.0,0.0,0.0,0.0,0.0,-8.3079,-8.3217,0.0,0.0,-8.4748,-8.4663,-8.4663,-8.5583,-8.5919,-8.5475,-8.5846,-8.6094,-8.6094,-8.6094,-8.6094,-8.6094,-8.6094,-8.6094,-8.6094,-8.6094,-8.6094,-8.6094,-8.6094,-8.6094,-8.6094,-8.6094,-8.6094,-8.6094,-8.6094,-8.6094,-8.6094,-8.6094,-8.6094,-8.6094,-8.6094,-8.6094,-8.6094,0.0,0.0,0.0,0.0,0.0,0.0,0.0,0.0,0.0,-6.7687,-6.7687,-6.7687,-6.7687,-6.7687,-6.7687,-6.7687,-6.7687,-6.7797,-6.8091,-6.8862,-6.9669,-7.0477,-7.1284,-7.1945,-7.2496,-7.2496,-7.2496,-7.2496,-7.2496,-7.2496,-7.2496,-7.2496,-7.2496,-7.2496,-7.2789,-7.2899,-7.2936,-7.3193,-7.3156,-7.2973,-7.378,-7.4258,-7.4551,0.0,0.0,0.0,0.0,0.0,0.0,0.0,0.0,0.0,0.0,0.0,0.0,0.0,0.0,0.0,0.0,0.0,0.0,0.0,0.0,0.0,0.0,0.0,0.0,0.0,0.0,0.0,0.0,0.0,0.0,0.0,0.0,0.0,0.0,0.0,-8.3162,-8.391,-8.4486,-8.52,-8.6026,-8.57,-8.5437,-8.5437,-8.5846,-8.5919,-8.5437,-8.5846,-8.6094,-8.6094,-8.6094,-8.6094,-8.6094,-8.6094,-8.6094,-8.6094,-8.6094,-8.6094,-8.6094,-8.6094,-8.6094,-8.6094,-8.6094,-8.6094,-8.6094,-8.6094,-8.6094,-8.6094,-8.6094,-8.6094,-8.6094,-8.6094,-8.6094,-8.6094,0.0,0.0,0.0,0.0,0.0,0.0,0.0,0.0,-6.7687,-6.7687,-6.7687,-6.7687,-6.7687,-6.7687,-6.7687,-6.7687,-6.7724,-6.8054,-6.8862,-6.9669,-7.0513,-7.1321,-7.2092,-7.2496,-7.2496,-7.2496,-7.2496,-7.2496,-7.2496,-7.2496,-7.2496,-7.2532,-7.2532,-7.2569,-7.3377,-7.3744,-7.378,-7.4588,-7.4478,-7.3817,-7.4625,-7.5395,-7.6093,0.0,0.0,0.0,0.0,0.0,0.0,0.0,0.0,0.0,0.0,0.0,0.0,0.0,0.0,0.0,0.0,0.0,0.0,0.0,0.0,0.0,0.0,0.0,0.0,0.0,0.0,0.0,0.0,0.0,0.0,0.0,0.0,0.0,-8.3153,-8.2944,-8.3702,-8.5804,-8.606,-8.606,-8.6094,-8.6094,-8.606,-8.6094,-8.6094,-8.6094,-8.6094,-8.6094,-8.6094,-8.6094,-8.6094,-8.6094,-8.6094,-8.6094,-8.6094,-8.6094,-8.6094,-8.6094,-8.6094,-8.6094,-8.6094,-8.6094,-8.6094,-8.6094,-8.6094,-8.6094,-8.6094,-8.6094,-8.6094,-8.6094,-8.6094,-8.6094,-8.6094,-8.6094,0.0,0.0,0.0,0.0,0.0,0.0,0.0,-6.7687,-6.7687,-6.7687,-6.7687,-6.7687,-6.7687,-6.7687,-6.7687,-6.7687,-6.8238,-6.8678,-6.8898,-7.022,-7.1321,-7.2129,-7.2386,-7.2496,-7.2496,-7.2496,-7.2496,-7.2496,-7.2496,-7.2496,-7.2496,-7.3083,-7.3377,-7.3413,-7.4221,-7.4588,-7.4625,-7.5432,-7.5652,-7.5469,-7.5689,-7.5909,-7.6166,0.0,0.0,0.0,0.0,0.0,0.0,0.0,0.0,0.0,0.0,0.0,0.0,0.0,0.0,0.0,0.0,0.0,0.0,0.0,0.0,0.0,0.0,0.0,0.0,0.0,0.0,0.0,0.0,0.0,0.0,0.0,0.0,-8.3916,-8.4398,-8.4088,-8.4248,-8.5242,-8.4995,-8.5117,-8.6026,-8.5664,-8.5551,-8.606,-8.6094,-8.6094,-8.6094,-8.6094,-8.6094,-8.6094,-8.6094,-8.6094,-8.6094,-8.6094,-8.6094,-8.6094,-8.6094,-8.6094,-8.6094,-8.6094,-8.6094,-8.6094,-8.6094,-8.6094,-8.6094,-8.6094,-8.6094,-8.6094,-8.6094,-8.6094,-8.6094,-8.6094,-8.6094,-8.6094,0.0,0.0,0.0,0.0,0.0,0.0,0.0,-6.7687,-6.7687,-6.7687,-6.7687,-6.7687,-6.7687,-6.7687,-6.7834,-6.8164,-6.8641,-6.9192,-6.9853,-7.1101,-7.2018,-7.2496,-7.2496,-7.2496,-7.2496,-7.2496,-7.2496,-7.2496,-7.2496,-7.2679,-7.301,-7.3487,-7.3891,-7.4258,-7.5028,-7.5395,-7.5469,-7.6276,-7.6607,-7.6607,-7.6607,-7.6607,-7.6644,-7.7157,-7.7304,-7.7304,-7.7304,-7.7304,-7.7304,-7.7304,0.0,0.0,0.0,0.0,0.0,0.0,0.0,0.0,0.0,0.0,0.0,0.0,0.0,0.0,0.0,0.0,0.0,0.0,0.0,0.0,0.0,0.0,0.0,0.0,-8.408,-8.4239,-8.4999,-8.4605,-8.4513,-8.5399,-8.4995,-8.4995,-8.5988,-8.5737,-8.57,-8.606,-8.6094,-8.6094,-8.6094,-8.6094,-8.6094,-8.6094,-8.644,-8.6632,-8.6632,-8.7017,-8.7171,-8.7171,-8.7171,-8.7171,-8.7171,-8.7171,-8.7171,0.0,-8.7171,-8.7171,-8.7171,-8.7171,-8.7171,0.0,0.0,0.0,0.0,0.0,-8.6094,-8.6094,0.0,0.0,0.0,0.0,0.0,0.0,0.0,0.0,-6.7687,-6.7687,-6.7687,-6.7687,-6.7687,-6.776,-6.8128,-6.8862,-6.9082,-6.9816,-7.1358,-7.2092,-7.2496,-7.2496,-7.2496,-7.2496,-7.2496,-7.2496,-7.2496,-7.2496,-7.2606,-7.301,-7.3707,-7.3891,-7.4368,-7.5065,-7.5873,-7.624,-7.6276,-7.7011,-7.7304,-7.7304,-7.7304,-7.7304,-7.7304,-7.7304,-7.7304,-7.7304,-7.7304,-7.7304,-7.7304,-7.7304,0.0,0.0,0.0,0.0,0.0,0.0,0.0,0.0,0.0,0.0,0.0,0.0,0.0,0.0,0.0,0.0,0.0,0.0,0.0,0.0,0.0,0.0,0.0,0.0,-8.4785,-8.5121,-8.5202,-8.4696,-8.474,-8.5954,-8.5514,-8.536,-8.606,-8.606,-8.6026,-8.6094,-8.6094,-8.6132,-8.6247,0.0,0.0,0.0,0.0,-8.7555,-8.7555,-8.8286,-8.8709,-8.8709,-8.8709,-8.8709,-8.8709,-8.8709,-8.8709,-8.8709,-8.8709,-8.8709,-8.8709,-8.8709,-8.8709,-8.8556,-8.7017,-8.6324,-8.6247,-8.6247,-8.617,-8.6094,0.0,0.0,0.0,0.0,0.0,0.0,0.0,0.0,-6.7687,-6.7687,-6.7687,-6.7687,-6.7687,-6.8274,-6.8752,-6.8898,-7.011,-7.1248,-7.2202,-7.2422,-7.2496,-7.2496,-7.2496,-7.2496,-7.2496,-7.2496,-7.2496,-7.2496,-7.3156,-7.356,-7.3707,-7.5028,-7.5726,-7.5909,-7.6717,-7.7084,-7.7084,-7.7268,-7.7304,-7.7304,-7.7304,-7.7304,-7.7304,-7.7304,-7.7304,-7.7304,-7.7304,-7.7304,-7.7304,-7.7304,-7.7781,-7.8369,-7.8369,-7.8919,0.0,0.0,0.0,0.0,0.0,0.0,0.0,0.0,0.0,0.0,0.0,0.0,0.0,0.0,0.0,0.0,0.0,0.0,0.0,-8.5475,-8.536,-8.532,-8.5811,-8.536,-8.5202,-8.6026,-8.5514,-8.536,-8.606,-8.5589,-8.5514,-8.606,-8.6094,-8.6401,-8.7094,-8.7132,0.0,-8.8171,-8.8363,-8.844,-8.844,-8.8632,-8.8709,-8.8709,0.0,0.0,-8.8709,-8.8709,-8.8709,-8.8709,-8.8709,-8.8709,-8.8709,-8.8709,-8.8709,-8.8671,-8.8325,-8.7786,-8.7132,-8.7132,-8.6709,-8.6094,0.0,0.0,0.0,0.0,0.0,0.0,0.0,0.0,-6.7687,-6.7687,-6.7687,-6.7834,-6.8238,-6.8678,-6.9229,-7.0036,-7.1211,-7.2092,-7.2459,-7.2496,-7.2496,-7.2496,-7.2496,-7.2496,-7.2496,-7.2496,-7.2716,-7.3083,-7.3487,-7.4111,-7.4918,-7.5726,-7.6313,-7.6717,-7.7157,-7.7304,-7.7304,-7.7304,-7.7304,-7.7304,-7.7304,-7.7304,-7.7304,-7.7304,-7.7304,-7.7304,-7.7304,-7.7598,-7.7965,-7.7965,-7.8516,-7.9176,-7.9176,-7.9727,-8.0388,0.0,0.0,0.0,0.0,0.0,0.0,0.0,0.0,0.0,0.0,0.0,0.0,0.0,0.0,-8.4239,-8.4605,0.0,-8.4475,-8.5437,-8.5589,-8.5589,-8.5589,-8.5589,-8.57,-8.606,-8.5514,-8.536,-8.606,-8.6194,-8.6389,-8.6748,-8.7132,-8.7594,-8.8017,-8.8055,-8.8248,-8.8671,-8.9094,-8.9286,-8.9286,-8.9748,-8.994,-8.994,-8.994,-8.994,-8.994,-8.994,-8.994,-8.994,-8.994,-8.994,-8.994,-8.994,-8.994,-8.994,-8.994,-8.9171,-8.8055,-8.8055,-8.7786,-8.7325,0.0,0.0,0.0,0.0,0.0,0.0,0.0,0.0,0.0,-6.7687,-6.7834,-6.8164,-6.8825,-6.9192,-6.9963,-7.1431,-7.2129,-7.2496,-7.2496,-7.2496,-7.2496,-7.2496,-7.2496,-7.2496,-7.2496,-7.2642,-7.3046,-7.3707,-7.4001,-7.4808,-7.6093,-7.6276,-7.668,-7.7304,-7.7304,-7.7304,-7.7304,-7.7304,-7.7304,-7.7304,-7.7304,-7.7304,-7.7341,-7.7524,-7.7451,-7.7341,-7.7524,-7.8002,-7.8626,-7.8772,-7.936,-8.0021,-8.0021,-8.0571,-8.1232,-8.1232,-8.1672,0.0,0.0,0.0,0.0,0.0,0.0,0.0,0.0,0.0,-8.4029,-8.3488,-8.419,-8.4915,-8.4915,-8.4999,-8.5162,-8.5242,-8.5737,-8.5958,-8.5589,-8.6005,-8.644,-8.6594,-8.5972,-8.582,-8.656,-8.7248,-8.7632,-8.7632,-8.8286,-8.8748,-8.8902,-8.894,-8.9017,-8.9171,-8.9825,-9.0171,-9.0171,-9.0864,-9.121,-9.121,-9.121,-9.121,-9.121,-9.121,-9.121,-9.121,-9.121,-9.121,-9.121,-9.121,-9.121,-9.121,-9.121,-9.0364,-8.9171,-8.8979,-8.8825,-8.8594,0.0,0.0,0.0,0.0,0.0,0.0,0.0,0.0,0.0,-6.7687,-6.8311,-6.8788,-6.8898,-7.0183,-7.1394,-7.2312,-7.2459,-7.2496,-7.2496,-7.2496,-7.2496,-7.2496,-7.2496,-7.2496,-7.2496,-7.3193,-7.3597,-7.3707,-7.5139,-7.5909,-7.613,-7.6827,-7.7231,-7.7304,-7.7304,-7.7304,-7.7304,-7.7304,-7.7304,-7.7304,-7.7304,-7.7304,-7.7414,-7.8148,-7.7965,-7.7414,-7.8185,-7.8516,-7.8699,-7.9396,-8.0204,-8.0865,-8.0865,-8.1415,-8.2076,-8.2076,-8.2113,-8.2186,-8.2186,-8.2647,-8.3111,-8.3111,-8.3543,-8.4129,0.0,0.0,-8.4179,-8.4117,-8.4179,-8.4276,-8.4276,-8.474,-8.5282,-8.5881,-8.606,-8.6329,-8.7026,-8.7214,-8.7555,-8.8325,-8.7675,-8.7449,-8.8325,-8.8479,-8.8556,-8.8556,-8.8632,-8.9017,-8.9748,-8.9787,-9.0133,-9.0902,-9.1018,-9.1056,-9.1056,-9.1171,-9.121,-9.121,-9.121,-9.121,-9.121,-9.121,-9.121,-9.121,-9.121,-9.121,-9.121,-9.121,-9.121,-9.121,-9.121,-9.1095,-9.0825,-9.0056,-8.9325,-8.8671,0.0,0.0,0.0,0.0,0.0,0.0,0.0,0.0,0.0,0.0,0.0,-6.9779,-7.0257,-7.1321,-7.2129,-7.2459,-7.2496,-7.2496,-7.2496,-7.2496,-7.2496,-7.2496,-7.2496,-7.2716,-7.3193,-7.3523,-7.4147,-7.5102,-7.5763,-7.635,-7.6827,-7.7157,-7.7304,-7.7304,-7.7304,-7.7304,-7.7304,-7.7304,-7.7304,-7.7304,-7.7304,-7.7304,-7.7414,-7.8259,-7.8369,-7.8185,-7.8993,-7.958,0.0,-8.0388,-8.1012,-8.1709,-8.1709,-8.1929,-8.2186,-8.2186,-8.2186,-8.2186,-8.2186,-8.237,-8.2585,-8.2585,-8.2853,-8.3074,-8.3378,-8.3824,-8.4179,-8.4216,-8.4778,-8.528,-8.528,-8.5514,-8.5928,0.0,-8.6863,-8.7171,-8.8017,-8.8171,-8.8479,-8.9286,-8.9094,-8.8825,-8.8709,-8.9133,-8.9402,-8.9402,-8.9863,-9.0287,-9.0633,-9.0671,-9.0825,-9.121,-9.121,-9.121,-9.121,-9.121,-9.121,-9.121,-9.121,-9.121,-9.121,-9.121,-9.121,-9.121,-9.121,-9.121,-9.121,-9.121,-9.121,-9.121,-9.121,-9.121,-9.1171,-9.0787,-9.0441,-9.0094,0.0,0.0,0.0,0.0,0.0,0.0,0.0,0.0,0.0,0.0,0.0,0.0,0.0,-7.2165,-7.2496,-7.2496,-7.2496,-7.2496,-7.2496,-7.2496,-7.2496,-7.2496,-7.2496,-7.2899,-7.367,-7.3927,-7.4698,-7.6093,-7.6313,-7.6754,-7.7304,-7.7304,-7.7304,-7.7304,-7.7304,-7.7304,-7.7304,-7.7304,-7.7304,-7.7304,-7.7304,-7.7451,-7.7781,-7.8626,-7.9066,-7.9323,-7.991,-8.0498,-8.1048,-8.1269,-8.1709,-8.2186,-8.2186,-8.2186,-8.2186,-8.2186,-8.2186,-8.2186,-8.2186,-8.2343,-8.2497,-8.2497,-8.2585,-8.2793,-8.2994,-8.3488,-8.3979,-8.4129,-8.4778,-8.536,-8.5514,-8.5892,-8.6457,-8.7252,-8.7594,-8.8055,-8.8902,-8.9017,-8.9325,-9.0171,-9.0287,-9.0017,-8.944,-8.994,-9.0287,-9.0287,-9.0864,-9.121,-9.121,-9.121,-9.121,-9.121,-9.121,-9.121,-9.121,-9.121,-9.121,-9.121,-9.121,-9.121,-9.121,-9.121,-9.121,-9.121,-9.121,-9.121,-9.121,-9.121,-9.121,-9.121,-9.121,-9.121,-9.121,-9.121,-9.121,-9.1133,0.0,0.0,0.0,0.0,0.0,0.0,0.0,0.0,0.0,0.0,0.0,0.0,0.0,0.0,-7.2496,-7.2496,-7.2496,-7.2496,-7.2496,-7.2496,-7.2496,-7.2496,-7.2496,-7.2899,-7.367,-7.4478,-7.5285,-7.6093,-7.69,-7.7304,-7.7304,-7.7304,-7.7304,-7.7304,-7.7304,-7.7304,-7.7304,-7.7304,-7.7304,-7.7304,-7.7304,-7.7818,-7.8662,-7.9433,-8.0241,-8.0938,-8.0938,-8.0975,-8.1122,-8.1893,-8.2186,-8.2186,-8.2186,-8.2186,-8.2186,-8.2186,-8.2186,-8.2186,-8.2186,-8.2708,-8.3189,-8.3189,-8.3651,-8.4276,-8.4872,-8.4092,-8.3378,-8.408,-8.372,-8.3488,-8.4129,-8.5424,-8.6621,-8.7295,-8.8094,-8.894,-8.9748,-8.9863,-9.021,-9.1056,-9.1171,-9.1171,0.0,-9.1171,-9.1171,-9.1171,-9.121,-9.121,-9.121,-9.121,-9.121,-9.121,-9.121,-9.121,-9.121,-9.121,-9.121,-9.121,-9.121,-9.121,-9.121,-9.121,-9.121,-9.121,-9.121,-9.121,-9.121,-9.121,-9.121,-9.121,-9.121,-9.121,-9.121,-9.121,-9.121,-9.121,0.0,0.0,0.0,0.0,0.0,0.0,0.0,0.0,0.0,0.0,0.0,0.0,0.0,0.0,0.0,0.0,-7.2496,-7.2496,-7.2496,-7.2496,-7.2496,-7.2496,-7.301,-7.367,-7.4478,-7.5285,-7.6093,-7.69,-7.7194,-7.7304,-7.7304,-7.7304,-7.7304,-7.7304,-7.7304,-7.7304,-7.7304,-7.7304,-7.7304,-7.7378,-7.7928,-7.8332,-7.8736,-8.0094,-8.0755,-8.1085,0.0,-8.1782,-8.1819,-8.2113,-8.2186,-8.2186,-8.2186,-8.2186,-8.2186,-8.2186,-8.2186,-8.2186,-8.2186,-8.2343,-8.256,-8.256,-8.2708,-8.2935,-8.3132,-8.3189,-8.3378,-8.408,-8.443,-8.5009,-8.6121,-8.6808,-8.7575,-8.8871,-8.9286,-8.9787,-9.0633,-9.0748,-9.0864,-9.1171,-9.121,0.0,0.0,0.0,0.0,-9.121,-9.121,-9.121,-9.121,-9.121,-9.121,-9.121,-9.121,-9.121,-9.121,-9.121,-9.121,-9.121,-9.121,-9.121,-9.121,-9.121,-9.121,-9.121,-9.121,-9.121,-9.121,-9.121,-9.121,-9.121,-9.121,-9.121,-9.121,-9.121,-9.121,-9.121,0.0,0.0,0.0,0.0,0.0,0.0,0.0,0.0,0.0,0.0,0.0,0.0,0.0,0.0,0.0,0.0,0.0,-7.2496,-7.2496,-7.2496,-7.2642,-7.2936,-7.3413,-7.4221,-7.5322,-7.5836,-7.6497,-7.7304,-7.7304,-7.7304,-7.7304,-7.7304,-7.7304,-7.7304,-7.7304,-7.7304,-7.7304,-7.7304,-7.7488,-7.7818,-7.8369,-7.8956,-7.958,-8.0608,-8.1195,0.0,-8.2003,-8.2186,-8.2186,-8.2186,-8.2186,-8.2186,-8.2186,-8.2186,-8.2186,-8.2186,-8.2186,-8.2186,0.0,-8.2186,-8.2186,-8.2186,-8.2186,-8.2251,-8.2497,-8.2708,-8.3186,-8.4406,-8.4636,-8.5192,-8.684,-8.7443,-8.8118,-8.9343,-9.0027,-9.0556,-9.1133,-9.121,-9.121,-9.121,-9.121,-9.121,0.0,0.0,0.0,-9.121,-9.121,-9.121,-9.121,-9.121,-9.121,-9.121,-9.121,-9.121,-9.121,-9.121,-9.121,-9.121,-9.121,-9.121,-9.121,-9.121,-9.121,-9.121,-9.121,-9.121,-9.121,-9.121,-9.121,-9.121,-9.121,-9.121,-9.121,-9.121,-9.121,-9.121,0.0,0.0,0.0,0.0,0.0,0.0,0.0,0.0,0.0,0.0,0.0,0.0,0.0,0.0,0.0,0.0,0.0,0.0,-7.2496,-7.2496,-7.2863,-7.367,-7.3744,-7.4478,-7.6056,-7.613,-7.6533,-7.7304,-7.7304,-7.7304,-7.7304,-7.7304,-7.7304,-7.7304,-7.7304,-7.7304,-7.7304,-7.7304,-7.7818,-7.8589,-7.8626,-7.9617,-8.1012,-8.1048,-8.1525,-8.2186,-8.2186,-8.2186,-8.2186,-8.2186,-8.2186,-8.2186,-8.2186,-8.2186,-8.2186,-8.2186,-8.2186,-8.2186,-8.2186,-8.2186,-8.2186,-8.2186,-8.2186,-8.2343,-8.2994,-8.2647,-8.2807,-8.4929,-8.4339,-8.4099,0.0,0.0,-8.8204,-8.8885,-9.0263,-9.121,-9.121,-9.121,-9.121,0.0,0.0,0.0,0.0,0.0,0.0,-9.121,0.0,-9.121,-9.121,-9.121,-9.121,-9.121,-9.121,-9.121,-9.121,-9.121,-9.121,-9.121,-9.121,-9.121,-9.121,-9.121,-9.121,-9.121,-9.121,-9.121,-9.121,-9.121,-9.121,-9.121,-9.121,-9.121,-9.121,-9.121,-9.121,-9.121,0.0,0.0,0.0,0.0,0.0,0.0,0.0,0.0,0.0,0.0,0.0,0.0,0.0,0.0,0.0,0.0,0.0,0.0,-7.2496,-7.2496,-7.2863,-7.367,-7.4258,-7.5065,-7.6093,-7.668,-7.7121,-7.7304,-7.7304,-7.7304,-7.7304,-7.7304,-7.7304,-7.7304,-7.7304,-7.7304,-7.7304,-7.7304,-7.7818,-7.8662,-7.925,-8.0094,-8.1085,-8.1672,-8.2003,-8.2186,-8.2186,-8.2186,-8.2186,-8.2186,-8.2186,-8.2186,-8.2186,-8.2186,-8.2186,0.0,0.0,-8.2186,-8.2186,-8.2186,-8.2186,-8.2186,-8.2186,-8.2251,-8.2407,-8.2343,-8.2692,-8.429,-8.4435,-8.5101,-8.7819,0.0,0.0,-9.0417,-9.0947,0.0,-9.121,-9.121,0.0,-9.121,0.0,-9.121,-9.121,-9.121,0.0,0.0,-9.121,-9.121,-9.121,-9.121,-9.121,-9.121,-9.121,-9.121,-9.121,-9.121,-9.121,-9.121,-9.121,-9.121,-9.121,-9.121,-9.121,-9.121,-9.121,-9.121,-9.121,-9.121,-9.121,-9.121,-9.121,-9.121,-9.121,-9.121,-9.121,-9.121,0.0,0.0,0.0,0.0,0.0,0.0,0.0,0.0,0.0,0.0,0.0,0.0,0.0,0.0,0.0,0.0,0.0,0.0,0.0,-7.2496,-7.301,-7.4184,-7.4661,-7.5432,-7.6607,-7.7084,-7.7304,-7.7304,-7.7304,-7.7304,-7.7304,-7.7304,-7.7304,-7.7304,-7.7304,-7.7304,-7.7304,-7.7304,-7.7818,0.0,0.0,-8.0277,-8.1085,-8.1893,-8.2186,-8.2186,-8.2186,-8.2186,-8.2186,-8.2186,-8.2186,-8.2186,-8.2186,-8.2186,-8.2186,-8.2186,0.0,-8.2186,-8.2186,-8.2186,-8.2186,-8.2186,-8.2186,-8.2296,-8.2663,-8.2737,-8.3254,-8.5098,-8.5271,-8.5862,-8.8135,-8.8609,0.0,0.0,0.0,0.0,-9.1136,-9.121,-9.121,0.0,-9.121,0.0,-9.121,-9.121,-9.121,0.0,-9.121,-9.121,-9.121,-9.1556,-9.1787,-9.1787,-9.2095,-9.2287,-9.2287,-9.2287,-9.2287,-9.2287,-9.2287,-9.2287,-9.2287,-9.1941,-9.1787,-9.1748,0.0,-9.121,-9.121,-9.121,-9.121,-9.121,-9.121,-9.121,-9.121,-9.121,-9.121,-9.121,0.0,0.0,0.0,0.0,0.0,0.0,0.0,0.0,0.0,0.0,0.0,0.0,0.0,0.0,0.0,0.0,0.0,0.0,0.0,0.0,0.0,-7.4845,-7.4918,-7.5652,-7.7268,-7.7304,-7.7304,-7.7304,-7.7304,-7.7304,-7.7304,-7.7304,-7.7304,-7.7304,-7.7304,-7.7304,-7.7304,-7.7304,-7.7818,-7.8662,-7.947,-8.0277,-8.1085,0.0,-8.2186,-8.2186,-8.2186,-8.2186,-8.2186,-8.2186,-8.2186,-8.2186,-8.2186,-8.2186,-8.2186,-8.2186,-8.2186,-8.2186,-8.2186,-8.2186,-8.2186,-8.2186,-8.2186,-8.2406,-8.3214,-8.3398,-8.4036,-8.6276,-8.6241,-8.6237,-8.7774,-8.8107,-8.8309,-8.9016,0.0,-9.0326,-9.0989,-9.1136,-9.121,-9.121,-9.121,-9.121,-9.121,-9.121,-9.1248,-9.1364,-9.1364,-9.1364,-9.1364,-9.2172,-9.2672,-9.2672,-9.3326,-9.371,-9.371,-9.371,-9.371,-9.371,-9.371,-9.371,-9.3672,-9.2979,-9.2672,-9.2595,0.0,0.0,-9.1364,-9.1248,-9.121,-9.121,-9.121,-9.121,-9.121,-9.121,-9.121,-9.121,0.0,0.0,0.0,0.0,0.0,0.0,0.0,0.0,0.0,0.0,0.0,0.0,0.0,0.0,0.0,0.0,0.0,0.0,0.0,0.0,0.0,0.0,-7.4918,-7.5652,-7.7268,-7.7304,-7.7304,-7.7304,-7.7304,-7.7304,-7.7304,-7.7304,-7.7304,-7.7304,-7.7304,-7.7304,-7.7304,-7.7304,-7.7818,-7.8662,-7.947,-8.0277,-8.1085,-8.1893,0.0,0.0,-8.2186,-8.2186,-8.2186,-8.2186,-8.2186,-8.2186,-8.2186,-8.2186,-8.2186,-8.2186,-8.2186,-8.2186,-8.2186,-8.2186,-8.2186,-8.2186,-8.2186,-8.2406,-8.3214,-8.3398,-8.3904,-8.5618,-8.5919,-8.6237,-8.7774,-8.8107,-8.8309,-8.9016,-8.9669,-9.016,-9.0284,-9.0839,-9.121,0.0,-9.121,-9.121,-9.121,-9.121,0.0,0.0,0.0,0.0,-9.2287,-9.3056,-9.348,-9.348,-9.3633,-9.371,-9.371,-9.371,-9.371,-9.371,-9.371,-9.371,-9.371,-9.3557,-9.348,-9.3441,0.0,0.0,-9.221,-9.1518,-9.121,-9.121,-9.121,-9.121,-9.121,-9.121,-9.121,-9.121,0.0,0.0,0.0,0.0,0.0,0.0,0.0,0.0,0.0,0.0,0.0,0.0,0.0,0.0,0.0,0.0,0.0,0.0,0.0,0.0,0.0,0.0,0.0,0.0,0.0,-7.7304,-7.7304,-7.7304,0.0,-7.7304,-7.7304,-7.7304,-7.7304,-7.7304,-7.7304,-7.7304,-7.7304,-7.7304,-7.7561,-7.8038,-7.9286,-8.0021,-8.0498,0.0,0.0,0.0,0.0,-8.2186,-8.2186,-8.2186,-8.2186,-8.2186,-8.2186,-8.2186,-8.2186,-8.2186,-8.2186,-8.2186,-8.2186,-8.2186,-8.2186,-8.2186,-8.2186,-8.2517,-8.3765,-8.4022,-8.4499,-8.6077,-8.6407,-8.6654,-8.7386,-8.7489,-8.7773,-8.8446,-8.9173,-8.9716,-9.0073,-9.0723,-9.121,-9.121,-9.121,-9.121,-9.121,-9.121,0.0,0.0,0.0,0.0,-9.3133,-9.3903,-9.4557,-9.5057,-9.5057,-9.5057,-9.5057,-9.5057,-9.5057,-9.5057,-9.5057,-9.5057,-9.5057,-9.4557,-9.4364,-9.4326,-9.348,0.0,-9.2479,-9.2056,-9.1595,-9.121,-9.121,-9.121,-9.121,-9.121,-9.121,-9.121,0.0,0.0,0.0,0.0,0.0,0.0,0.0,0.0,0.0,0.0,0.0,0.0,0.0,0.0,0.0,0.0,0.0,0.0,0.0,0.0,0.0,0.0,0.0,0.0,0.0,0.0,0.0,0.0,0.0,0.0,0.0,0.0,0.0,0.0,0.0,-7.7304,-7.7304,-7.7304,-7.7304,0.0,0.0,-7.9653,0.0,0.0,0.0,0.0,0.0,-8.2186,-8.2186,-8.2186,-8.2186,-8.2186,-8.2186,-8.2186,-8.2186,-8.2186,-8.2186,-8.2186,-8.2186,-8.2186,-8.2186,-8.2186,-8.2186,-8.2627,-8.4242,-8.4609,-8.5049,-8.6664,-8.6995,-8.6995,-8.6995,-8.6995,-8.7163,-8.7773,-8.8446,-8.9122,-8.9809,-9.0488,-9.1026,-9.121,-9.121,0.0,-9.121,-9.121,0.0,0.0,0.0,0.0,0.0,-9.4903,-9.5595,-9.6288,-9.6288,-9.6288,-9.6288,-9.6288,-9.6288,-9.6288,-9.6288,-9.6288,-9.6288,-9.5595,-9.5288,-9.5211,-9.4364,0.0,0.0,-9.2556,-9.1979,-9.121,-9.121,-9.121,-9.121,-9.121,-9.121,-9.121,0.0,0.0,0.0,0.0,0.0,0.0,0.0,0.0,0.0,0.0,0.0,0.0,0.0,0.0,0.0,0.0,0.0,0.0,0.0,0.0,0.0,0.0,0.0,0.0,0.0,0.0,0.0,0.0,0.0,0.0,0.0,0.0,0.0,0.0,0.0,0.0,0.0,-7.7304,0.0,0.0,0.0,0.0,0.0,0.0,0.0,0.0,0.0,0.0,-8.2186,-8.2186,-8.2186,-8.2186,-8.2186,-8.2186,-8.2186,-8.2186,-8.2186,-8.2186,-8.2186,-8.2186,-8.2186,-8.2186,-8.2186,-8.2627,-8.4242,-8.4609,-8.5049,-8.6664,-8.6995,-8.6995,-8.6995,-8.6995,-8.6995,-8.7064,-8.7709,-8.8388,-8.9122,-8.9763,-9.0447,-9.11,0.0,0.0,-9.121,-9.121,0.0,0.0,0.0,0.0,0.0,-9.6134,-9.6211,-9.6288,-9.6288,-9.6288,-9.6288,-9.6288,-9.6288,-9.6288,-9.6288,-9.6288,-9.6288,-9.6211,-9.6172,-9.6134,0.0,0.0,0.0,-9.2787,-9.1979,-9.121,-9.121,-9.121,-9.121,-9.121,-9.121,-9.121,0.0,0.0,0.0,0.0,0.0,0.0,0.0,0.0,0.0,0.0,0.0,0.0,0.0,0.0,0.0,0.0,0.0,0.0,0.0,0.0,0.0,0.0,0.0,0.0,0.0,0.0,0.0,0.0,0.0,0.0,0.0,0.0,0.0,0.0,0.0,0.0,0.0,0.0,0.0,0.0,0.0,0.0,0.0,0.0,0.0,0.0,0.0,0.0,0.0,-8.2186,-8.2186,-8.2186,-8.2186,-8.2186,-8.2186,-8.2186,-8.2186,-8.2186,-8.2186,-8.2186,-8.2186,-8.2186,-8.2186,-8.2627,-8.4242,-8.4609,-8.5049,-8.6664,-8.6995,-8.6995,-8.6995,-8.6995,-8.6995,-8.6995,-8.7618,-8.819,-8.8446,-8.9069,-8.9763,-9.0447,-9.0528,0.0,0.0,0.0,0.0,0.0,0.0,0.0,0.0,-9.6288,-9.6288,-9.6288,-9.6288,-9.6288,-9.6288,-9.6288,-9.6288,-9.6288,-9.6288,-9.6288,-9.6288,-9.6288,-9.6288,-9.6288,0.0,0.0,0.0,-9.3364,-9.2402,-9.121,-9.121,-9.121,-9.121,-9.121,-9.121,-9.121,0.0,0.0,0.0,0.0,0.0,0.0,0.0,0.0,0.0,0.0,0.0,0.0,0.0,0.0,0.0,0.0,0.0,0.0,0.0,0.0,0.0,0.0,0.0,0.0,0.0,0.0,0.0,0.0,0.0,0.0,0.0,0.0,0.0,0.0,0.0,0.0,0.0,0.0,0.0,0.0,0.0,0.0,0.0,0.0,0.0,0.0,0.0,0.0,0.0,0.0,0.0,-8.2186,-8.2186,-8.2186,-8.2186,-8.2186,-8.2186,-8.2186,-8.2186,-8.2186,-8.2186,-8.2186,-8.2186,-8.2553,-8.3948,-8.4425,-8.4976,-8.6371,-8.6848,-8.6995,-8.6995,-8.6995,-8.6995,-8.6995,-8.746,-8.7836,-8.8046,-8.8503,-8.9122,-8.999,0.0,0.0,0.0,0.0,0.0,0.0,0.0,0.0,0.0,-9.5903,-9.6019,-9.6288,-9.6288,-9.6288,-9.6288,-9.6288,-9.6288,-9.6288,-9.6288,-9.6288,-9.6288,-9.6288,-9.6288,-9.6288,0.0,0.0,0.0,-9.3441,-9.2518,-9.121,-9.121,-9.121,-9.121,-9.121,-9.121,-9.121,0.0,0.0,0.0,0.0,0.0,0.0,0.0,0.0,0.0,0.0,0.0,0.0,0.0,0.0,0.0,0.0,0.0,0.0,0.0,0.0,0.0,0.0,0.0,0.0,0.0,0.0,0.0,0.0,0.0,0.0,0.0,0.0,0.0,0.0,0.0,0.0,0.0,0.0,0.0,0.0,0.0,0.0,0.0,0.0,0.0,0.0,0.0,0.0,0.0,0.0,0.0,0.0,0.0,-8.2186,-8.2186,-8.2186,-8.2186,-8.2186,-8.2186,-8.2186,-8.2186,-8.2186,-8.2186,-8.2406,-8.3251,-8.4022,-8.4829,-8.5637,-8.6444,-8.6995,-8.6995,-8.6995,-8.6995,-8.6995,-8.7031,-8.7298,-8.7985,-8.8107,-8.8617,0.0,0.0,0.0,0.0,0.0,0.0,0.0,0.0,0.0,0.0,0.0,-9.5403,-9.6288,-9.6288,-9.6288,-9.6288,-9.6288,-9.6288,-9.6288,-9.6288,-9.6288,-9.6288,-9.6288,-9.6288,0.0,0.0,0.0,0.0,-9.2826,-9.1979,-9.121,-9.121,-9.121,-9.121,-9.121,-9.121,-9.121,0.0,0.0,0.0,0.0,0.0,0.0,0.0,0.0,0.0,0.0,0.0,0.0,0.0,0.0,0.0,0.0,0.0,0.0,0.0,0.0,0.0,0.0,0.0,0.0,0.0,0.0,0.0,0.0,0.0,0.0,0.0,0.0,0.0,0.0,0.0,0.0,0.0,0.0,0.0,0.0,0.0,0.0,0.0,0.0,0.0,0.0,0.0,0.0,0.0,0.0,0.0,0.0,0.0,0.0,0.0,-8.2186,-8.2186,-8.2186,-8.2186,-8.2186,-8.2186,-8.2186,-8.2186,-8.2406,-8.3214,-8.3618,-8.4168,-8.5527,-8.6004,-8.6334,-8.6921,-8.6995,-8.6995,-8.6995,-8.6995,-8.7064,-8.7365,-8.7773,0.0,0.0,0.0,0.0,0.0,0.0,0.0,0.0,0.0,0.0,0.0,0.0,-9.4788,-9.6249,-9.6288,-9.6288,-9.6288,-9.6288,-9.6288,-9.6288,-9.6288,-9.6288,-9.6288,-9.5672,0.0,0.0,0.0,0.0,0.0,-9.2595,-9.1979,-9.121,-9.121,-9.121,-9.121,-9.121,-9.121,-9.121,0.0,0.0,0.0,0.0,0.0,0.0,0.0,0.0,0.0,0.0,0.0,0.0,0.0,0.0,0.0,0.0,0.0,0.0,0.0,0.0,0.0,0.0,0.0,0.0,0.0,0.0,0.0,0.0,0.0,0.0,0.0,0.0,0.0,0.0,0.0,0.0,0.0,0.0,0.0,0.0,0.0,0.0,0.0,0.0,0.0,0.0,0.0,0.0,0.0,0.0,0.0,0.0,0.0,0.0,0.0,0.0,-8.2186,-8.2186,-8.2186,-8.2186,-8.2186,-8.2186,-8.2186,-8.2333,-8.2847,-8.3177,-8.3691,-8.4682,-8.538,-8.593,-8.6444,-8.6811,-8.6995,-8.6995,-8.6995,-8.6995,-8.6995,0.0,0.0,0.0,0.0,0.0,0.0,0.0,0.0,0.0,0.0,0.0,0.0,0.0,-9.3864,-9.5288,-9.5326,-9.5326,-9.5326,-9.5326,-9.5326,-9.5326,-9.5326,-9.5326,-9.5288,-9.4749,0.0,0.0,0.0,0.0,0.0,-9.2133,-9.171,-9.121,-9.121,-9.121,-9.121,-9.121,-9.121,-9.121,0.0,0.0,0.0,0.0,0.0,0.0,0.0,0.0,0.0,0.0,0.0,0.0,0.0,0.0,0.0,0.0,0.0,0.0,0.0,0.0,0.0,0.0,0.0,0.0,0.0,0.0,0.0,0.0,-7.3597,-7.4037,-7.4845,0.0,0.0,0.0,0.0,0.0,0.0,0.0,0.0,0.0,0.0,0.0,0.0,0.0,0.0,0.0,0.0,0.0,0.0,0.0,0.0,0.0,0.0,0.0,0.0,0.0,0.0,0.0,0.0,-8.2186,-8.2186,-8.2186,-8.2186,-8.2186,-8.2186,-8.2774,0.0,-8.3398,-8.4646,-8.571,-8.5783,-8.6444,-8.6995,-8.6995,-8.6995,-8.6995,-8.6995,-8.7683,0.0,0.0,0.0,0.0,0.0,0.0,0.0,0.0,0.0,0.0,0.0,0.0,0.0,-9.348,-9.3518,-9.3595,-9.371,-9.371,-9.371,-9.371,-9.371,-9.371,-9.371,-9.3633,0.0,0.0,0.0,0.0,0.0,-9.1518,-9.121,-9.121,-9.121,-9.121,-9.121,-9.121,-9.121,-9.121,0.0,0.0,0.0,0.0,0.0,0.0,0.0,0.0,0.0,0.0,0.0,0.0,0.0,0.0,0.0,0.0,0.0,0.0,0.0,0.0,0.0,0.0,0.0,0.0,0.0,0.0,0.0,-7.2789,-7.2789,-7.3193,-7.4001,-7.4184,0.0,0.0,0.0,0.0,0.0,0.0,0.0,0.0,0.0,0.0,0.0,0.0,0.0,0.0,-7.98,-8.0608,0.0,0.0,0.0,0.0,0.0,0.0,0.0,0.0,-8.2186,0.0,-8.2186,0.0,-8.2186,-8.2186,-8.2186,-8.2186,0.0,-8.2333,-8.2663,-8.3287,-8.4205,-8.5086,-8.5673,-8.6444,-8.6995,-8.6995,-8.6995,-8.6995,-8.6995,0.0,0.0,0.0,0.0,0.0,0.0,0.0,0.0,0.0,0.0,0.0,0.0,0.0,0.0,-9.1787,-9.1787,-9.2402,-9.3672,-9.371,-9.371,-9.371,-9.371,-9.371,-9.3672,-9.3056,0.0,0.0,0.0,0.0,-9.1479,-9.1287,-9.121,-9.121,-9.121,-9.121,-9.121,-9.121,-9.121,-9.121,0.0,0.0,0.0,0.0,0.0,0.0,0.0,0.0,0.0,0.0,0.0,0.0,0.0,0.0,0.0,0.0,0.0,0.0,0.0,0.0,0.0,0.0,0.0,0.0,0.0,0.0,0.0,0.0,0.0,-7.2716,0.0,0.0,0.0,0.0,0.0,0.0,0.0,0.0,0.0,0.0,0.0,0.0,0.0,0.0,0.0,0.0,-7.9066,-7.9984,0.0,-8.1489,-8.1893,-8.2186,0.0,0.0,0.0,0.0,-8.2186,0.0,0.0,-8.2186,-8.2186,-8.2186,-8.2186,-8.2186,-8.2186,-8.2186,-8.2333,-8.2774,-8.3508,-8.4315,-8.5086,-8.5894,-8.6591,-8.6958,-8.6995,-8.7132,0.0,0.0,0.0,0.0,0.0,0.0,0.0,0.0,0.0,0.0,0.0,0.0,0.0,0.0,0.0,0.0,-9.121,-9.1633,-9.2556,-9.2556,-9.2556,-9.2556,-9.2556,-9.2556,-9.2556,-9.2095,0.0,0.0,0.0,0.0,-9.121,-9.121,-9.121,-9.121,-9.121,-9.121,-9.121,-9.121,-9.121,-9.121,0.0,0.0,0.0,0.0,0.0,0.0,0.0,0.0,0.0,0.0,0.0,0.0,0.0,0.0,0.0,0.0,0.0,0.0,0.0,0.0,0.0,0.0,0.0,0.0,0.0,0.0,0.0,0.0,0.0,0.0,0.0,0.0,-7.4001,0.0,0.0,0.0,0.0,0.0,0.0,0.0,0.0,0.0,0.0,0.0,0.0,0.0,0.0,0.0,0.0,-8.0975,-8.1525,-8.2186,-8.2186,0.0,0.0,0.0,0.0,0.0,-8.2186,-8.2186,-8.2186,-8.2186,-8.2186,-8.2186,-8.2186,-8.2186,-8.2186,-8.2186,-8.2847,-8.3618,-8.4278,-8.5159,-8.6004,-8.6701,0.0,0.0,0.0,0.0,0.0,0.0,0.0,0.0,0.0,0.0,0.0,0.0,0.0,0.0,0.0,0.0,0.0,0.0,-9.121,-9.121,-9.121,-9.121,-9.121,-9.121,-9.121,-9.121,-9.121,-9.121,-9.121,0.0,0.0,0.0,-9.121,-9.121,-9.121,-9.121,-9.121,-9.121,-9.121,-9.121,-9.121,-9.121,0.0,0.0,0.0,0.0,0.0,0.0,0.0,0.0,0.0,0.0,0.0,0.0,0.0,0.0,0.0,0.0,0.0,0.0,0.0,0.0,0.0,0.0,0.0,0.0,0.0,0.0,0.0,0.0,0.0,0.0,-7.2496,-7.2642,-7.3487,-7.4992,0.0,0.0,0.0,0.0,0.0,0.0,0.0,0.0,0.0,0.0,0.0,0.0,0.0,0.0,0.0,-8.0755,-8.1525,-8.2186,-8.2186,0.0,0.0,0.0,0.0,0.0,-8.2186,-8.2186,-8.2186,-8.2186,-8.2186,-8.2186,-8.2186,-8.2186,-8.2186,-8.2186,-8.2847,-8.3471,-8.3581,-8.4792,-8.582,0.0,0.0,0.0,0.0,0.0,0.0,0.0,0.0,0.0,0.0,0.0,0.0,0.0,0.0,0.0,0.0,0.0,0.0,-9.121,-9.121,-9.121,-9.121,-9.121,-9.121,-9.121,-9.121,-9.121,-9.121,-9.121,-9.121,0.0,0.0,-9.121,-9.121,-9.121,-9.121,-9.121,-9.121,-9.121,-9.121,-9.121,-9.121,-9.121,0.0,0.0,0.0,0.0,0.0,0.0,0.0,0.0,0.0,0.0,0.0,0.0,0.0,0.0,0.0,0.0,0.0,0.0,0.0,0.0,0.0,0.0,0.0,0.0,0.0,0.0,0.0,0.0,0.0,-7.2496,-7.2496,-7.2936,-7.3523,-7.4331,0.0,0.0,0.0,0.0,0.0,0.0,0.0,0.0,0.0,0.0,0.0,0.0,0.0,0.0,0.0,0.0,-8.0901,-8.1636,-8.2039,0.0,0.0,0.0,0.0,0.0,-8.2186,-8.2186,-8.2186,-8.2186,-8.2186,-8.2186,-8.2186,-8.2186,-8.2186,-8.2186,-8.248,-8.2884,-8.3324,0.0,-8.4792,-8.5637,0.0,0.0,0.0,0.0,0.0,0.0,0.0,0.0,0.0,0.0,0.0,0.0,0.0,0.0,0.0,0.0,0.0,0.0,-9.121,-9.121,-9.121,-9.121,-9.121,-9.121,-9.121,-9.121,-9.121,-9.121,-9.121,-9.121,0.0,-9.121,-9.121,-9.121,-9.121,-9.121,-9.121,-9.121,-9.121,-9.121,-9.121,-9.121,0.0,0.0,0.0,0.0,0.0,0.0,0.0,0.0,0.0,0.0,0.0,0.0,0.0,0.0,0.0,0.0,0.0,0.0,0.0,0.0,0.0,0.0,0.0,0.0,0.0,0.0,-7.2496,-7.2496,-7.2496,-7.2496,-7.2532,-7.3303,-7.378,0.0,0.0,0.0,0.0,-7.7047,-7.7304,0.0,0.0,0.0,0.0,0.0,0.0,0.0,0.0,0.0,0.0,0.0,0.0,0.0,0.0,0.0,0.0,-8.2186,-8.2186,-8.2186,-8.2186,-8.2186,-8.2186,-8.2186,-8.2186,-8.2186,-8.2186,-8.2186,-8.2186,-8.2186,-8.2186,-8.237,0.0,-8.3434,0.0,0.0,0.0,0.0,0.0,0.0,0.0,0.0,0.0,0.0,0.0,0.0,0.0,0.0,0.0,0.0,0.0,0.0,0.0,0.0,-9.121,-9.121,-9.121,-9.121,-9.121,-9.121,-9.121,-9.121,-9.121,-9.121,-9.121,-9.121,-9.121,-9.121,-9.121,-9.121,-9.121,-9.121,-9.121,-9.121,-9.121,-9.121,-9.121,-9.121,0.0,0.0,0.0,0.0,0.0,0.0,0.0,0.0,0.0,0.0,0.0,0.0,0.0,0.0,0.0,0.0,0.0,0.0,0.0,0.0,0.0,0.0,0.0,0.0,0.0,-7.2496,-7.2496,-7.2496,-7.2496,-7.2496,-7.2532,-7.3303,-7.4111,-7.4845,0.0,-7.6533,-7.7231,-7.7304,-7.7304,-7.7304,0.0,0.0,0.0,0.0,0.0,0.0,0.0,0.0,0.0,0.0,0.0,0.0,0.0,0.0,-8.2186,-8.2186,-8.2186,-8.2186,-8.2186,-8.2186,-8.2186,-8.2186,-8.2186,-8.2186,-8.2186,-8.2186,-8.2186,-8.2186,-8.2186,-8.2223,-8.226,-8.3508,0.0,0.0,0.0,0.0,0.0,0.0,0.0,0.0,0.0,0.0,0.0,0.0,0.0,0.0,0.0,0.0,0.0,0.0,0.0,0.0,0.0,-9.121,-9.121,-9.121,-9.121,-9.121,-9.121,-9.121,-9.121,-9.121,-9.121,-9.121,-9.121,-9.121,-9.121,-9.121,-9.121,-9.121,-9.121,-9.121,-9.121,-9.121,-9.121,-9.121,0.0,0.0,0.0,0.0,0.0,0.0,0.0,0.0,0.0,0.0,0.0,0.0,0.0,0.0,0.0,0.0,0.0,0.0,0.0,0.0,0.0,0.0,0.0,-7.2496,-7.2496,-7.2496,-7.2496,-7.2496,-7.2496,-7.2496,-7.2532,-7.3303,0.0,0.0,0.0,-7.657,-7.7304,-7.7304,-7.7304,-7.7304,-7.7304,0.0,0.0,0.0,0.0,0.0,0.0,0.0,0.0,0.0,-7.9984,-8.0461,-8.1782,-8.2186,-8.2186,-8.2186,-8.2186,-8.2186,-8.2186,-8.2186,-8.2186,-8.2186,-8.2186,-8.2186,-8.2186,-8.2186,-8.2186,-8.2186,-8.2186,-8.2186,-8.2186,0.0,0.0,0.0,0.0,0.0,0.0,0.0,0.0,0.0,0.0,0.0,0.0,0.0,0.0,0.0,0.0,0.0,0.0,0.0,0.0,0.0,0.0,-9.121,-9.121,-9.121,-9.121,-9.121,-9.121,-9.121,-9.121,-9.121,-9.121,-9.121,-9.121,-9.121,-9.121,-9.121,-9.121,-9.121,-9.121,-9.121,-9.121,-9.121,-9.121,-9.121,0.0,0.0,0.0,0.0,0.0,0.0,0.0,0.0,0.0,0.0,0.0,0.0,0.0,0.0,0.0,0.0,0.0,0.0,0.0,0.0,0.0,0.0,0.0,-7.2496,-7.2496,-7.2496,-7.2496,-7.2496,-7.2496,-7.2496,-7.2532,0.0,0.0,0.0,-7.5726,-7.657,-7.7304,-7.7304,-7.7304,-7.7304,-7.7304,-7.7304,0.0,0.0,0.0,0.0,0.0,0.0,0.0,0.0,-7.98,-8.0057,-8.1672,-8.2186,-8.2186,-8.2186,-8.2186,-8.2186,-8.2186,-8.2186,-8.2186,-8.2186,-8.2186,-8.2186,-8.2186,-8.2186,-8.2186,-8.2186,-8.2186,-8.2186,-8.2186,-8.2847,0.0,0.0,0.0,0.0,0.0,0.0,0.0,0.0,0.0,0.0,0.0,0.0,0.0,0.0,0.0,0.0,0.0,0.0,0.0,0.0,0.0,0.0,-9.121,-9.121,-9.121,-9.121,-9.121,-9.121,-9.121,-9.121,-9.121,-9.121,-9.121,-9.121,-9.121,-9.121,-9.121,-9.121,-9.121,-9.121,-9.121,-9.121,-9.121,-9.121,0.0,0.0,0.0,0.0,0.0,0.0,0.0,0.0,0.0,0.0,0.0,0.0,0.0,0.0,0.0,0.0,0.0,0.0,0.0,0.0,0.0,0.0,0.0,-7.2496,-7.2496,-7.2496,-7.2496,-7.2496,-7.2496,-7.2496,-7.2532,-7.334,0.0,-7.4955,-7.5763,-7.657,-7.7304,-7.7304,-7.7304,-7.7304,-7.7304,-7.7304,0.0,0.0,0.0,0.0,0.0,0.0,0.0,0.0,-7.98,-8.0057,-8.1672,-8.2186,-8.2186,-8.2186,-8.2186,-8.2186,-8.2186,-8.2186,-8.2186,-8.2186,-8.2186,-8.2186,-8.2186,-8.2186,-8.2186,-8.2186,-8.2186,-8.2186,-8.2186,-8.2847,0.0,0.0,0.0,0.0,0.0,0.0,0.0,0.0,0.0,0.0,0.0,0.0,0.0,0.0,0.0,0.0,0.0,0.0,0.0,0.0,0.0,0.0,-9.121,-9.121,-9.121,-9.121,-9.121,-9.121,-9.121,-9.121,-9.121,-9.121,-9.121,-9.121,-9.121,-9.121,-9.121,-9.121,-9.121,-9.121,-9.121,-9.121,-9.121,-9.121,0.0,0.0,0.0,0.0,0.0,0.0,0.0,0.0,0.0,0.0,0.0,0.0,0.0,0.0,0.0,0.0,0.0,0.0,0.0,0.0,0.0,0.0,0.0,0.0,0.0,0.0,-7.2496,-7.2496,-7.2496,-7.2496,0.0,0.0,-7.4661,-7.4955,-7.635,-7.7084,-7.7304,-7.7304,-7.7304,-7.7304,-7.7304,-7.7304,0.0,0.0,0.0,0.0,0.0,0.0,0.0,0.0,0.0,0.0,-8.1672,-8.2186,-8.2186,-8.2186,-8.2186,-8.2186,-8.2186,-8.2186,0.0,-8.2186,-8.2186,-8.2186,-8.2186,-8.2186,-8.2186,-8.2186,-8.2186,-8.2186,-8.2186,-8.2406,0.0,0.0,0.0,0.0,0.0,0.0,0.0,0.0,0.0,0.0,0.0,0.0,0.0,0.0,0.0,0.0,0.0,0.0,0.0,0.0,0.0,0.0,-9.121,-9.121,-9.121,-9.121,-9.121,-9.121,-9.121,-9.121,-9.121,-9.121,-9.121,-9.121,-9.121,-9.121,-9.121,-9.121,-9.121,-9.121,-9.121,-9.121,-9.121,-9.121,0.0,0.0,0.0,0.0,0.0,0.0,0.0,0.0,0.0,0.0,-6.7291,-6.7787,0.0,0.0,0.0,0.0,0.0,0.0,0.0,0.0,0.0,0.0,0.0,0.0,0.0,-7.2496,-7.2496,0.0,0.0,0.0,0.0,0.0,-7.5065,-7.5432,-7.6754,-7.7304,-7.7304,-7.7304,-7.7304,-7.7304,-7.7304,-7.7304,0.0,0.0,0.0,0.0,0.0,0.0,0.0,0.0,0.0,0.0,-8.1782,-8.2186,-8.2186,-8.2186,-8.2186,-8.2186,-8.2186,-8.2186,0.0,-8.2186,-8.2186,-8.2186,-8.2186,-8.2186,-8.2186,-8.2186,-8.2186,-8.2186,-8.2186,-8.2186,0.0,0.0,0.0,0.0,0.0,0.0,0.0,0.0,0.0,0.0,0.0,0.0,0.0,0.0,0.0,0.0,0.0,0.0,0.0,0.0,0.0,0.0,-9.121,-9.121,-9.121,-9.121,-9.121,-9.121,-9.121,-9.121,-9.121,-9.121,-9.121,-9.121,-9.121,-9.121,-9.121,-9.121,-9.121,-9.121,-9.121,-9.121,-9.121,-9.121,0.0,0.0,0.0,0.0,0.0,0.0,0.0,0.0,0.0,0.0,-6.6812,-6.7078,0.0,0.0,0.0,0.0,0.0,0.0,0.0,0.0,0.0,0.0,0.0,0.0,0.0,0.0,0.0,0.0,0.0,0.0,0.0,-7.4515,-7.5322,-7.613,-7.6937,-7.7304,-7.7304,-7.7304,-7.7304,-7.7304,-7.7304,-7.7304,-7.7304,0.0,0.0,0.0,0.0,0.0,0.0,0.0,0.0,0.0,-8.1929,-8.2186,-8.2186,-8.2186,-8.2186,-8.2186,-8.2186,-8.2186,0.0,-8.2186,-8.2186,0.0,-8.2186,-8.2186,-8.2186,-8.2186,0.0,-8.2186,-8.2186,0.0,0.0,0.0,0.0,0.0,0.0,0.0,0.0,0.0,0.0,0.0,0.0,0.0,0.0,0.0,0.0,0.0,0.0,0.0,0.0,0.0,0.0,0.0,-9.121,-9.121,-9.121,0.0,-9.121,-9.121,-9.121,-9.121,-9.121,-9.121,-9.121,-9.121,-9.121,-9.121,-9.121,-9.121,-9.121,-9.121,-9.121,-9.121,-9.121,-9.121,0.0,0.0,0.0,0.0,0.0,0.0,0.0,0.0,0.0,0.0,0.0,0.0,0.0,0.0,0.0,0.0,0.0,0.0,0.0,0.0,0.0,0.0,0.0,0.0,0.0,0.0,0.0,0.0,0.0,0.0,-7.3707,-7.4515,-7.5322,-7.613,-7.6937,-7.7304,-7.7304,-7.7304,-7.7304,-7.7304,-7.7304,-7.7304,-7.7304,-7.7304,0.0,0.0,0.0,0.0,0.0,0.0,0.0,0.0,-8.1929,-8.2186,-8.2186,-8.2186,-8.2186,-8.2186,-8.2186,-8.2186,0.0,0.0,-8.2186,-8.2186,-8.2186,-8.2186,-8.2186,-8.2186,-8.2186,-8.2186,0.0,0.0,0.0,0.0,0.0,0.0,0.0,0.0,0.0,0.0,0.0,0.0,0.0,0.0,0.0,0.0,0.0,0.0,0.0,0.0,0.0,0.0,0.0,-9.121,-9.121,-9.121,-9.121,0.0,-9.121,-9.121,-9.121,-9.121,-9.121,-9.121,-9.121,-9.121,-9.121,-9.121,-9.121,-9.121,-9.121,-9.121,-9.121,-9.121,-9.121,-9.121,0.0,0.0,0.0,0.0,0.0,0.0,0.0,0.0,0.0,0.0,0.0,0.0,0.0,0.0,0.0,0.0,0.0,0.0,0.0,0.0,0.0,0.0,0.0,0.0,0.0,0.0,0.0,0.0,0.0,0.0,-7.4294,-7.4698,-7.5542,-7.6717,-7.7121,-7.7304,-7.7304,-7.7304,-7.7304,-7.7304,-7.7304,-7.7304,-7.7378,-7.7781,-7.8222,-7.8662,-7.9029,0.0,0.0,0.0,0.0,0.0,0.0,0.0,-8.2186,-8.2186,-8.2186,-8.2186,0.0,0.0,0.0,-8.2186,0.0,-8.2186,-8.2186,-8.2186,-8.2186,-8.2186,0.0,0.0,0.0,0.0,0.0,0.0,0.0,0.0,0.0,0.0,0.0,0.0,0.0,0.0,0.0,0.0,0.0,0.0,0.0,0.0,0.0,0.0,0.0,0.0,-9.121,-9.121,-9.121,-9.121,-9.121,-9.121,-9.121,-9.121,-9.121,-9.121,-9.121,-9.121,-9.121,-9.121,-9.121,-9.121,-9.121,-9.121,-9.121,-9.121,-9.121,-9.121,-9.121,-9.121,0.0,0.0,0.0,0.0,0.0,0.0,0.0,0.0,0.0,0.0,0.0,0.0,0.0,0.0,0.0,0.0,0.0,0.0,0.0,0.0,0.0,0.0,0.0,0.0,0.0,0.0,0.0,0.0,0.0,0.0,-7.4918,-7.5065,-7.5909,-7.7304,-7.7304,-7.7304,-7.7304,-7.7304,-7.7304,-7.7341,-7.7488,-7.7524,-7.7635,-7.8479,-7.8883,-7.9103,-7.9764,-8.0498,-8.1232,-8.1232,0.0,0.0,0.0,0.0,-8.2186,-8.2186,-8.2186,0.0,0.0,0.0,-8.2186,-8.2186,-8.2186,0.0,-8.2186,-8.2186,-8.2186,0.0,0.0,0.0,0.0,0.0,0.0,0.0,0.0,0.0,0.0,0.0,0.0,0.0,0.0,0.0,0.0,0.0,0.0,0.0,0.0,0.0,0.0,0.0,-9.0952,-9.121,-9.121,-9.121,-9.121,-9.121,-9.121,-9.121,-9.121,-9.121,-9.121,-9.121,-9.121,-9.121,-9.121,-9.121,-9.121,-9.121,-9.121,-9.121,-9.121,-9.121,-9.121,-9.121,-9.121,-9.121,0.0,0.0,0.0,0.0,0.0,0.0,0.0,0.0,0.0,0.0,-6.6812,-6.6896,0.0,0.0,0.0,0.0,0.0,0.0,0.0,0.0,0.0,0.0,0.0,0.0,0.0,0.0,0.0,0.0,0.0,0.0,-7.4918,-7.5616,-7.6423,-7.7304,-7.7304,-7.7304,-7.7304,-7.7304,-7.7304,-7.7378,-7.8112,-7.8442,-7.8516,-7.9323,-8.0057,-8.0681,-8.0791,-8.1342,-8.2039,-8.2039,-8.2113,0.0,0.0,0.0,-8.2186,-8.2186,-8.2186,0.0,0.0,0.0,-8.2186,0.0,-8.2186,-8.2186,0.0,0.0,0.0,0.0,0.0,0.0,0.0,0.0,0.0,0.0,0.0,0.0,0.0,0.0,0.0,0.0,0.0,0.0,0.0,0.0,0.0,0.0,0.0,0.0,0.0,-8.9276,-8.9939,-9.1136,-9.121,-9.121,-9.121,-9.121,-9.121,-9.121,-9.121,-9.121,-9.121,-9.121,-9.121,-9.121,-9.121,-9.121,-9.121,-9.121,-9.121,-9.121,-9.121,-9.121,-9.121,-9.121,-9.121,-9.121,0.0,0.0,0.0,0.0,0.0,0.0,0.0,0.0,0.0,0.0,0.0,-6.7029,0.0,0.0,0.0,0.0,0.0,0.0,0.0,0.0,0.0,0.0,0.0,0.0,0.0,0.0,0.0,0.0,0.0,0.0,0.0,-7.6423,-7.6974,-7.7304,-7.7304,-7.7304,-7.7304,-7.7304,-7.7598,-7.8075,-7.8442,-7.8883,-7.936,-8.0167,-8.0681,-8.1048,-8.1525,-8.1893,-8.2186,-8.2186,-8.2186,-8.2186,-8.2186,0.0,0.0,0.0,-8.2186,0.0,-8.2186,-8.2186,-8.2186,0.0,-8.2186,-8.2186,-8.2186,0.0,0.0,0.0,0.0,0.0,0.0,0.0,0.0,0.0,0.0,0.0,0.0,0.0,0.0,0.0,0.0,0.0,0.0,0.0,0.0,0.0,0.0,0.0,-8.9069,-8.9476,-9.0116,-9.1175,-9.121,-9.121,-9.121,-9.121,-9.121,-9.121,-9.121,-9.121,-9.121,-9.121,-9.121,-9.121,-9.121,-9.121,-9.121,-9.121,-9.121,-9.121,-9.121,-9.121,-9.121,-9.121,-9.121,-9.121,0.0,0.0,0.0,0.0,0.0,0.0,0.0,0.0,0.0,0.0,0.0,0.0,0.0,0.0,0.0,0.0,0.0,0.0,0.0,0.0,0.0,0.0,0.0,0.0,0.0,0.0,0.0,0.0,0.0,0.0,-7.613,-7.6937,-7.7304,-7.7304,-7.7304,-7.7304,-7.7341,-7.7561,-7.8002,-7.8626,-7.9066,-7.958,-8.0167,-8.1012,-8.1305,-8.1379,-8.1966,-8.2186,-8.2186,-8.2186,-8.2186,-8.2186,-8.2186,-8.2186,0.0,0.0,0.0,-8.2186,0.0,0.0,-8.2186,-8.2186,-8.2186,-8.2186,0.0,0.0,0.0,0.0,0.0,0.0,0.0,0.0,0.0,0.0,0.0,0.0,0.0,0.0,0.0,0.0,0.0,0.0,0.0,0.0,0.0,0.0,0.0,0.0,-8.9069,-8.9535,-9.0284,-9.1175,-9.121,-9.121,-9.121,-9.121,-9.121,-9.121,-9.121,-9.121,-9.121,-9.121,-9.121,-9.121,-9.121,-9.121,-9.121,-9.121,-9.121,-9.121,-9.121,-9.121,-9.121,-9.121,-9.121,-9.121,0.0,0.0,0.0,0.0,0.0,0.0,0.0,0.0,0.0,0.0,0.0,0.0,-6.6896,-6.6812,-6.6812,-6.6896,0.0,0.0,0.0,0.0,0.0,0.0,0.0,0.0,0.0,0.0,0.0,0.0,0.0,0.0,-7.613,-7.6937,-7.7304,-7.7304,-7.7304,-7.7304,-7.7378,-7.8185,-7.8552,-7.8736,-8.0277,-8.0901,-8.1048,-8.1819,-8.215,-8.215,-8.2186,-8.2186,-8.2186,-8.2186,-8.2186,-8.2186,-8.2186,-8.2186,-8.2186,0.0,0.0,0.0,-8.2186,-8.2186,0.0,-8.2186,-8.2186,0.0,0.0,0.0,0.0,0.0,0.0,0.0,0.0,0.0,0.0,0.0,0.0,0.0,0.0,0.0,0.0,0.0,0.0,0.0,0.0,0.0,0.0,0.0,0.0,0.0,-8.9016,-8.9136,-8.9801,-9.1175,-9.121,-9.121,-9.121,-9.121,-9.121,-9.121,-9.121,-9.121,-9.121,-9.121,-9.121,-9.121,-9.121,-9.121,-9.121,-9.121,-9.121,-9.121,-9.121,-9.121,-9.121,-9.121,-9.121,-9.121,0.0,0.0,0.0,0.0,0.0,0.0,0.0,0.0,0.0,0.0,0.0,0.0,0.0,-6.6812,-6.6812,-6.6812,-6.6812,0.0,0.0,0.0,0.0,0.0,0.0,0.0,0.0,0.0,0.0,0.0,0.0,-7.5717,-7.69,-7.7194,-7.7304,-7.7304,-7.7304,-7.7635,-7.8148,-7.8479,-7.9213,-8.0204,-8.0791,-8.1305,-8.1782,-8.2076,-8.2186,-8.2186,-8.2186,-8.2186,-8.2186,-8.2186,-8.2186,-8.2186,-8.2186,-8.2186,-8.2186,-8.2186,-8.2186,-8.2186,-8.2186,-8.2186,0.0,-8.2186,-8.2186,0.0,0.0,0.0,0.0,0.0,0.0,0.0,0.0,0.0,0.0,0.0,0.0,0.0,0.0,0.0,0.0,0.0,0.0,0.0,0.0,0.0,0.0,0.0,0.0,0.0,-8.8979,-8.9122,-8.9754,-9.1175,-9.121,-9.121,-9.121,-9.121,-9.121,-9.121,-9.121,-9.121,-9.121,-9.121,-9.121,-9.121,-9.121,-9.121,-9.121,-9.121,-9.121,-9.121,-9.121,-9.121,-9.121,-9.121,-9.121,-9.121,0.0,0.0,0.0,0.0,0.0,0.0,0.0,0.0,0.0,-6.6812,0.0,0.0,0.0,0.0,-6.6812,-6.6812,-6.7078,-6.7501,-6.8111,0.0,0.0,0.0,0.0,0.0,0.0,0.0,0.0,0.0,0.0,0.0,-7.6793,-7.7181,-7.7304,-7.7341,-7.7635,-7.8075,-7.8626,-7.8883,-7.9764,-8.1012,-8.1305,-8.1709,-8.2186,-8.2186,-8.2186,-8.2186,0.0,0.0,-8.2186,-8.2186,-8.2186,-8.2186,-8.2186,-8.2186,-8.2186,-8.2186,-8.2186,-8.2186,-8.2186,-8.2186,-8.2186,0.0,0.0,0.0,0.0,0.0,0.0,0.0,0.0,0.0,0.0,0.0,0.0,0.0,0.0,0.0,0.0,0.0,0.0,0.0,0.0,0.0,0.0,0.0,0.0,0.0,0.0,0.0,-8.8617,-8.8933,-8.9754,-9.1175,-9.121,-9.121,-9.121,-9.121,-9.121,-9.121,-9.121,-9.121,-9.121,-9.121,-9.121,-9.121,-9.121,-9.121,-9.121,-9.121,-9.121,-9.121,-9.121,-9.121,-9.121,-9.121,-9.121,-9.121,0.0,0.0,0.0,0.0,0.0,0.0,0.0,0.0,-6.6812,-6.6812,0.0,0.0,0.0,0.0,0.0,-6.6812,-6.7662,-6.8146,-6.8146,-6.818,0.0,0.0,0.0,0.0,0.0,-7.058,-7.1368,0.0,0.0,0.0,-7.5787,-7.6793,-7.7279,-7.7378,-7.816,-7.8563,-7.8699,-7.9507,-8.0277,-8.1122,-8.1893,-8.2186,-8.2186,-8.2186,-8.2186,0.0,-8.2186,-8.2186,0.0,-8.2186,-8.2186,-8.2186,-8.2186,-8.2186,-8.2186,-8.2186,-8.2186,-8.2186,0.0,0.0,0.0,-8.2186,0.0,0.0,0.0,0.0,0.0,0.0,0.0,0.0,0.0,0.0,0.0,0.0,0.0,0.0,0.0,0.0,0.0,0.0,0.0,0.0,0.0,0.0,0.0,0.0,0.0,-8.6349,-8.7787,-8.8683,-8.9763,-9.1175,-9.121,-9.121,-9.121,-9.121,-9.121,-9.121,-9.121,-9.121,-9.121,-9.121,-9.121,-9.121,-9.121,-9.121,-9.121,-9.121,-9.121,-9.121,-9.121,-9.121,-9.121,-9.121,-9.121,-9.121,0.0,0.0,0.0,0.0,0.0,0.0,-6.6812,-6.6812,-6.6812,0.0,0.0,0.0,-6.6812,-6.6812,-6.6812,-6.6812,-6.7505,-6.7944,-6.7944,-6.8489,-6.8931,-6.9135,-6.8913,-6.9252,-7.0225,-7.0345,-7.1129,-7.2858,-7.3177,0.0,0.0,-7.5369,-7.6216,-7.816,-7.6836,-7.7803,-8.0351,-8.0571,-8.1122,-8.1893,-8.2113,-8.2186,0.0,0.0,0.0,0.0,0.0,-8.2186,-8.2186,0.0,-8.2186,-8.2186,-8.2186,-8.2186,-8.2186,-8.2186,-8.2186,-8.2186,-8.2186,0.0,0.0,0.0,0.0,0.0,0.0,0.0,0.0,0.0,0.0,0.0,0.0,0.0,0.0,0.0,0.0,0.0,0.0,0.0,0.0,0.0,0.0,0.0,0.0,0.0,0.0,0.0,-8.3838,-8.4941,-8.6882,-8.8657,-9.0148,-9.1171,-9.121,-9.121,-9.121,-9.121,-9.121,-9.121,-9.121,-9.121,-9.121,-9.121,-9.121,-9.121,-9.121,-9.121,-9.121,-9.121,-9.121,-9.121,-9.121,-9.121,-9.121,-9.121,-9.121,-9.121,0.0,0.0,0.0,0.0,0.0,0.0,-6.6812,-6.6812,-6.6812,0.0,0.0,0.0,-6.7252,-6.7557,-6.776,-6.776,-6.8166,-6.8402,-6.8402,-6.8842,-6.9248,-6.9553,-6.9553,-6.9891,-7.0635,-7.0364,-7.0852,-7.2193,-7.2271,-7.3273,-7.4997,-7.5294,-7.6267,-7.7764,-7.7702,-7.8671,-8.0375,-8.1212,-8.1782,0.0,-8.2186,0.0,0.0,-8.2186,-8.2186,0.0,0.0,0.0,-8.2186,-8.2186,-8.2186,-8.2186,-8.2186,-8.2186,-8.2186,-8.2186,-8.2186,-8.2186,-8.2186,-8.2186,-8.2186,-8.2186,0.0,0.0,0.0,-8.2186,0.0,0.0,0.0,0.0,0.0,0.0,0.0,0.0,0.0,0.0,0.0,0.0,0.0,0.0,0.0,0.0,0.0,0.0,0.0,0.0,-8.3214,-8.4349,-8.6505,-8.84,-8.984,-9.0633,-9.1018,-9.121,-9.121,-9.121,-9.121,-9.121,-9.121,-9.121,-9.121,-9.121,-9.121,-9.121,-9.121,-9.121,-9.121,-9.121,-9.121,-9.121,-9.121,-9.121,-9.121,-9.121,-9.121,-9.121,0.0,0.0,0.0,0.0,0.0,0.0,0.0,-6.6812,-6.6846,0.0,-6.7015,-6.732,-6.7963,-6.8673,-6.9113,-6.9113,-6.918,-6.9214,-6.9214,-6.9316,-6.962,-7.0297,-7.0297,-7.0635,-7.1312,-7.0669,-7.0635,-7.1312,-7.1644,-7.2541,-7.3906,-7.5743,-7.6581,-7.6753,-7.932,0.0,-7.9648,-8.1182,0.0,-8.2018,-8.2186,-8.2121,0.0,0.0,-8.2186,-8.2186,-8.2186,-8.2186,-8.2186,-8.2186,-8.2186,-8.2186,-8.2186,-8.2186,-8.2186,-8.2186,-8.2186,-8.2186,-8.2186,-8.2186,-8.2186,-8.2186,-8.2186,0.0,-8.2186,-8.2186,0.0,0.0,0.0,0.0,0.0,0.0,0.0,0.0,0.0,0.0,0.0,0.0,0.0,0.0,0.0,0.0,0.0,0.0,-8.2186,-8.2186,-8.2913,-8.4262,-8.6252,-8.7825,-8.8993,-8.9758,-9.0598,-9.1095,-9.121,-9.121,-9.121,-9.121,-9.121,-9.121,-9.121,-9.121,-9.121,-9.121,-9.121,-9.121,-9.121,-9.121,-9.121,-9.121,-9.121,-9.121,-9.121,-9.121,-9.121,-9.121,0.0,0.0,0.0,0.0,0.0,0.0,0.0,-6.6812,-6.7015,-6.7624,-6.8267,-6.8707,-6.8842,-6.9011,-6.9113,-6.9113,-6.962,-6.9992,-6.9992,-7.0534,0.0,-7.1075,-7.1109,-7.1176,-7.1312,-7.1176,-7.1176,-7.1312,-7.1987,-7.279,-7.3941,-7.4084,-7.5427,-7.7523,-7.7263,-7.8292,-8.0297,0.0,0.0,-8.1018,-8.1885,0.0,-8.1018,-8.1885,-8.2186,-8.2186,-8.2186,-8.2186,-8.2186,-8.2186,-8.2186,-8.2186,-8.2186,-8.2186,-8.2186,-8.2186,-8.2186,-8.2186,-8.2186,-8.2186,-8.2186,-8.2186,-8.2186,0.0,-8.2186,-8.2186,0.0,0.0,0.0,0.0,0.0,0.0,0.0,0.0,0.0,0.0,0.0,0.0,0.0,0.0,0.0,0.0,0.0,0.0,-8.2186,-8.2186,-8.2856,-8.3727,-8.476,-8.6142,-8.7569,-8.9068,-8.98,-9.0479,-9.121,-9.121,-9.121,-9.121,-9.121,-9.121,-9.121,-9.121,-9.121,-9.121,-9.121,-9.121,-9.121,-9.121,-9.121,-9.121,-9.121,-9.121,-9.121,-9.121,-9.121,-9.121,0.0,-6.6812,0.0,0.0,0.0,0.0,0.0,-6.7117,-6.7489,-6.7861,-6.891,-6.9654,-6.9654,-6.9992,-7.0195,-7.0195,-7.0534,-7.0737,-7.0737,-7.1109,0.0,-7.1312,-7.1312,-7.1481,-7.1853,-7.1853,-7.2022,-7.2394,-7.2766,-7.3345,-7.4282,-7.4659,-7.5564,-7.6782,-7.7348,-7.8107,-7.8983,0.0,-7.9302,-7.988,-8.0982,0.0,-8.0695,-8.1782,-8.2186,-8.2186,-8.2186,-8.2186,-8.2186,-8.2186,-8.2186,0.0,-8.2186,-8.2186,-8.2186,-8.2186,-8.2186,-8.2186,-8.2186,-8.2186,-8.2186,-8.2186,-8.2186,0.0,0.0,-8.2186,0.0,0.0,0.0,0.0,0.0,0.0,0.0,0.0,0.0,0.0,0.0,0.0,0.0,0.0,0.0,0.0,0.0,0.0,-8.2186,-8.2186,-8.2497,-8.3001,-8.3748,-8.4801,-8.6104,-8.7599,-8.8804,-8.9764,-9.0556,-9.0979,-9.121,-9.121,-9.121,-9.121,-9.121,-9.121,-9.121,-9.121,-9.121,-9.121,-9.121,-9.121,-9.121,-9.121,-9.121,-9.121,-9.121,-9.121,-9.121,-9.121,-6.6812,-6.6812,-6.6812,0.0,0.0,0.0,0.0,0.0,-6.8166,-6.8335,-6.9553,-7.0398,-7.0398,-7.0939,-7.1312,-7.1312,-7.1447,-7.1515,-7.1515,-7.165,-7.1718,-7.1718,-7.1718,-7.1988,-7.2597,-7.2597,-7.2902,-7.3477,-7.3612,-7.4018,-7.4627,-7.5605,-7.5926,-7.5771,-7.7736,-7.8161,-7.7336,0.0,0.0,-7.874,0.0,-8.0182,-8.0695,-8.1542,-8.2018,-8.2186,-8.2186,-8.2186,-8.2186,-8.2186,-8.2186,-8.2186,-8.2186,-8.2186,-8.2186,-8.2186,-8.2186,-8.2186,-8.2186,-8.2186,-8.2186,-8.2186,-8.2186,-8.2186,0.0,0.0,0.0,0.0,0.0,0.0,0.0,0.0,0.0,0.0,0.0,0.0,0.0,0.0,0.0,0.0,0.0,0.0,0.0,0.0,-8.2186,-8.2186,-8.2186,-8.2434,-8.2994,-8.3765,-8.4824,-8.6171,-8.7786,-8.9072,-8.9902,-9.0748,-9.121,-9.121,-9.121,-9.121,-9.121,-9.121,-9.121,-9.121,-9.121,-9.121,-9.121,-9.121,-9.121,-9.121,-9.121,-9.121,-9.121,-9.121,-9.121,-9.121,-6.6812,-6.6812,-6.6812,0.0,0.0,0.0,0.0,0.0,-6.9214,-6.9857,-7.0669,-7.1176,-7.1176,-7.1278,-7.1312,-7.1312,-7.1921,-7.2293,-7.2293,0.0,-7.324,-7.324,-7.324,-7.3274,-7.3341,-7.3375,-7.3409,-7.3477,-7.4153,-7.4525,-7.4627,-7.5425,-7.5703,-7.5771,-7.6927,-7.7389,0.0,0.0,-7.7546,0.0,-7.765,-7.8867,0.0,-8.0768,-8.1405,-8.2186,-8.2186,-8.2186,-8.2186,0.0,-8.2186,-8.2186,0.0,-8.2186,-8.2186,-8.2186,-8.2186,-8.2186,-8.2186,-8.2186,-8.2186,-8.2186,-8.2186,-8.2186,0.0,0.0,-8.2186,0.0,0.0,0.0,0.0,0.0,0.0,0.0,0.0,0.0,0.0,0.0,0.0,0.0,0.0,0.0,0.0,0.0,0.0,-8.2186,-8.2186,-8.2251,-8.2279,-8.2987,-8.3992,-8.5447,-8.704,-8.8498,-8.9902,-9.0748,-9.121,-9.121,-9.121,-9.121,-9.121,-9.121,-9.121,-9.121,-9.121,-9.121,-9.121,-9.121,-9.121,-9.121,-9.121,-9.121,-9.121,-9.121,-9.121,-9.121,-6.6981,-6.7151,-6.7455,-6.7455,0.0,0.0,0.0,-6.9248,-6.9992,-7.0737,-7.1109,-7.1481,-7.1887,-7.1954,-7.2124,-7.2529,0.0,-7.3037,0.0,0.0,-7.3477,-7.3477,-7.3477,-7.368,-7.4119,-7.4153,-7.4356,-7.4762,-7.51,-7.5236,-7.5236,-7.5574,-7.5709,-7.5709,-7.6173,0.0,-7.6358,0.0,-7.7105,0.0,0.0,0.0,0.0,-8.084,-8.123,-8.2186,-8.2186,-8.2186,-8.2186,0.0,-8.2186,0.0,0.0,0.0,-8.2186,-8.2186,-8.2186,-8.2186,-8.2186,-8.2186,-8.2186,0.0,0.0,0.0,-8.2186,0.0,-8.2186,0.0,0.0,0.0,0.0,0.0,0.0,0.0,0.0,0.0,0.0,0.0,0.0,0.0,0.0,0.0,0.0,0.0,0.0,0.0,0.0,-8.2186,-8.2186,-8.2434,-8.3084,-8.4084,-8.5561,-8.7078,-8.8615,-8.9837,-9.071,-9.121,-9.121,-9.121,-9.121,-9.121,-9.121,-9.121,-9.121,-9.121,-9.121,-9.121,-9.121,-9.121,-9.121,-9.121,-9.121,-9.121,-9.121,-9.121,-6.7658,-6.7861,-6.8233,-6.8233,0.0,0.0,0.0,0.0,-7.077,-7.1515,-7.1616,0.0,-7.2631,-7.2699,0.0,-7.3443,-7.368,-7.3781,0.0,0.0,-7.4086,0.0,0.0,0.0,-7.4897,-7.4897,-7.5168,-7.5709,-7.5709,-7.5709,-7.5709,-7.5709,-7.5709,-7.5709,0.0,-7.5709,-7.5709,0.0,-7.6781,-7.8494,-7.765,-7.9108,-8.1715,-8.123,-8.1542,-8.2186,-8.2186,-8.2186,-8.2186,-8.2186,-8.2186,0.0,-8.2186,-8.2186,-8.2186,-8.2186,-8.2186,-8.2186,-8.2186,0.0,0.0,0.0,0.0,0.0,0.0,0.0,0.0,0.0,0.0,0.0,0.0,0.0,0.0,-8.2186,0.0,0.0,0.0,0.0,0.0,0.0,0.0,0.0,0.0,0.0,0.0,0.0,-8.2186,-8.2186,-8.2186,-8.2186,-8.2497,-8.3189,-8.4613,-8.6029,-8.7294,-8.9036,-9.021,-9.0864,-9.1095,-9.121,-9.121,-9.121,-9.121,-9.121,-9.121,-9.121,-9.121,-9.121,-9.121,-9.121,-9.121,-9.121,-9.121,-9.121,-9.121,-9.121,-6.9045,-6.9045,-6.9079,-6.9079,0.0,0.0,0.0,0.0,0.0,0.0,0.0,0.0,0.0,0.0,0.0,0.0,0.0,-7.4559,-7.4559,0.0,-7.5642,0.0,0.0,-7.5642,-7.5676,-7.5676,-7.5676,-7.5709,-7.5709,-7.5709,-7.5709,-7.5709,-7.5709,-7.5709,-7.5709,-7.5709,-7.5709,-7.5709,-7.6358,-7.7336,-7.7336,-7.8623,-8.0768,0.0,-8.2186,-8.2186,-8.2186,0.0,0.0,-8.2186,-8.2186,0.0,0.0,0.0,0.0,0.0,0.0,0.0,0.0,0.0,0.0,-8.2186,0.0,0.0,0.0,0.0,-8.2186,0.0,0.0,0.0,0.0,-8.2186,-8.2186,-8.2186,-8.2186,0.0,0.0,0.0,0.0,0.0,0.0,0.0,0.0,0.0,0.0,-8.2186,-8.2186,-8.2186,-8.2186,-8.2186,-8.2497,-8.3189,-8.4613,-8.5763,-8.6417,-8.8729,-8.9902,-8.994,-9.0787,-9.121,-9.121,-9.121,-9.121,-9.121,-9.121,-9.121,-9.121,-9.121,-9.121,-9.121,-9.121,-9.121,-9.121,-9.121,-9.121,-9.121,-7.0567,-7.0567,-7.0398,-6.9891,0.0,0.0,0.0,-7.1718,0.0,0.0,0.0,0.0,0.0,-7.4221,-7.4424,0.0,0.0,-7.5337,-7.5337,-7.5574,0.0,0.0,0.0,-7.5709,-7.5709,-7.5709,-7.5709,-7.5709,-7.5709,-7.5709,-7.5709,-7.5709,-7.5709,-7.5709,-7.5709,-7.5709,0.0,0.0,0.0,0.0,0.0,-8.0982,-8.1715,0.0,0.0,-8.2186,-8.2186,-8.2186,0.0,-8.2186,-8.2186,-8.2186,-8.2186,-8.2186,-8.2186,-8.2186,-8.2186,0.0,0.0,0.0,-8.2186,-8.2186,0.0,0.0,0.0,0.0,0.0,0.0,0.0,0.0,-8.2186,-8.2186,-8.2186,-8.2186,-8.2186,-8.2186,0.0,0.0,0.0,0.0,0.0,0.0,0.0,0.0,0.0,-8.2186,-8.2186,-8.2186,0.0,-8.2186,-8.2279,-8.256,-8.345,-8.4553,-8.5726,-8.7565,-8.8922,-8.9902,-9.0787,-9.121,-9.121,-9.121,-9.121,-9.121,-9.121,-9.121,-9.121,-9.121,-9.121,-9.121,-9.121,-9.121,-9.121,-9.121,-9.121,-9.121,-7.1312,-7.1312,-7.1142,0.0,0.0,0.0,0.0,0.0,0.0,0.0,-7.3612,0.0,-7.4931,0.0,-7.5202,0.0,-7.5709,-7.5709,-7.5709,-7.5709,0.0,-7.5709,-7.5709,-7.5709,-7.5709,-7.5709,-7.5709,-7.5709,-7.5709,-7.5709,-7.5709,-7.5709,-7.5709,-7.5709,-7.5709,-7.5709,-7.5709,0.0,-7.7016,0.0,0.0,-8.2186,0.0,0.0,-8.2186,-8.2186,0.0,-8.2186,-8.2186,-8.2186,-8.2186,-8.2186,-8.2186,-8.2186,-8.2186,-8.2186,-8.2186,-8.2186,-8.2186,-8.2186,0.0,-8.2186,-8.2186,0.0,-8.2186,0.0,-8.2186,0.0,0.0,0.0,-8.2186,-8.2186,-8.2186,-8.2186,-8.2186,-8.2186,0.0,-8.2186,0.0,0.0,0.0,0.0,0.0,0.0,-8.2186,-8.2186,-8.2186,-8.2186,0.0,0.0,-8.2186,-8.2186,-8.2853,-8.3639,-8.4613,-8.6374,-8.7883,-8.9112,-9.0216,-9.0902,-9.121,-9.121,-9.121,-9.121,-9.121,-9.121,-9.121,-9.121,-9.121,-9.121,-9.121,-9.121,-9.121,-9.121,-9.121,-9.121,-7.1379,0.0,0.0,0.0,-7.1954,0.0,0.0,0.0,-7.3815,0.0,-7.4661,-7.4931,-7.5608,-7.5709,-7.5709,-7.5709,-7.5709,-7.5709,-7.5709,-7.5709,0.0,0.0,-7.5709,-7.5709,-7.5709,-7.5709,-7.5709,-7.5709,-7.5709,-7.5709,-7.5709,-7.5709,-7.5709,-7.5709,-7.5709,0.0,-7.5709,-7.5709,-7.7016,-7.9222,-8.1299,-8.2186,-8.2186,-8.2186,-8.2186,-8.2186,-8.2186,-8.2186,-8.2186,-8.2186,-8.2186,-8.2186,-8.2186,-8.2186,-8.2186,-8.2186,-8.2186,-8.2186,-8.2186,-8.2186,-8.2186,-8.2186,0.0,0.0,0.0,0.0,-8.2186,0.0,0.0,0.0,0.0,-8.2186,-8.2186,-8.2186,-8.2186,-8.2186,-8.2186,-8.2186,0.0,0.0,0.0,0.0,0.0,-8.2186,-8.2186,-8.2186,-8.2186,-8.2186,0.0,0.0,-8.2186,-8.2186,-8.2853,-8.3189,-8.3189,-8.53,-8.6799,-8.7642,-8.9188,-9.0325,-9.1133,-9.1171,-9.121,-9.121,-9.121,-9.121,-9.121,-9.121,-9.121,-9.121,-9.121,-9.121,-9.121,-9.121,-9.121,-9.121,-7.2022,-7.2563,-7.2935,0.0,-7.2631,-7.2563,0.0,0.0,0.0,0.0,-7.51,-7.5506,-7.5676,-7.5709,-7.5709,-7.5709,-7.5709,0.0,0.0,0.0,0.0,-7.5709,-7.5709,-7.5709,-7.5709,-7.5709,-7.5709,-7.5709,-7.5709,-7.5709,-7.5709,-7.5709,-7.5709,-7.5709,-7.5709,0.0,-7.5709,-7.5709,-7.7016,-7.9222,-8.1299,-8.2186,0.0,0.0,-8.2186,-8.2186,-8.2186,-8.2186,-8.2186,-8.2186,-8.2186,-8.2186,-8.2186,-8.2186,-8.2186,-8.2186,-8.2186,-8.2186,-8.2186,-8.2186,-8.2186,-8.2186,-8.2186,-8.2186,0.0,0.0,0.0,0.0,0.0,0.0,0.0,0.0,-8.2186,-8.2186,-8.2186,-8.2186,-8.2186,-8.2186,0.0,-8.2186,0.0,0.0,-8.2186,-8.2186,-8.2186,-8.2186,-8.2186,0.0,0.0,0.0,0.0,-8.2186,-8.2343,-8.2708,-8.3189,-8.482,-8.6024,-8.6764,-8.8919,-9.0017,-9.0248,-9.0902,-9.121,-9.121,-9.121,-9.121,-9.121,-9.121,-9.121,-9.121,-9.121,-9.121,-9.121,-9.121,-9.121,-9.121,-7.28,0.0,0.0,-7.3916,0.0,0.0,-7.3916,0.0,0.0,-7.51,-7.5439,0.0,-7.5709,-7.5709,-7.5709,-7.5709,-7.5709,0.0,-7.5709,0.0,0.0,-7.5709,-7.5709,-7.5709,-7.5709,-7.5709,-7.5709,-7.5709,-7.5709,-7.5709,-7.5709,-7.5709,-7.5709,-7.5709,-7.5709,-7.5709,-7.5676,-7.6173,-7.7424,-7.9143,-8.084,0.0,0.0,-8.2186,-8.2186,-8.2186,-8.2186,-8.2186,-8.2186,-8.2186,-8.2186,-8.2186,-8.2186,-8.2186,-8.2186,-8.2186,-8.2186,-8.2186,-8.2186,-8.2186,-8.2186,-8.2186,-8.2186,-8.2186,-8.2186,-8.2186,-8.2186,0.0,0.0,0.0,0.0,0.0,0.0,-8.2186,-8.2186,-8.2186,-8.2186,-8.2186,0.0,0.0,-8.2186,0.0,-8.2186,-8.2186,-8.2186,-8.2186,0.0,0.0,0.0,0.0,0.0,-8.2186,-8.2186,-8.2407,-8.2732,-8.3882,-8.4793,-8.5534,-8.7877,-8.9151,-8.9497,-9.0642,-9.121,-9.121,-9.121,-9.121,-9.121,-9.121,-9.121,-9.121,-9.121,-9.121,-9.121,-9.121,-9.121,-9.121,-7.3612,0.0,0.0,0.0,0.0,0.0,0.0,-7.5303,0.0,-7.5709,0.0,-7.5709,-7.5709,-7.5709,-7.5709,-7.5709,0.0,-7.5709,-7.5709,-7.5709,-7.5709,-7.5709,-7.5709,-7.5709,-7.5709,-7.5709,-7.5709,-7.5709,-7.5709,-7.5709,-7.5709,-7.5709,-7.5709,-7.5709,-7.5709,0.0,0.0,-7.7016,-7.8077,-7.9143,-8.0366,-8.1405,-8.2186,-8.2333,-8.237,-8.237,-8.248,-8.237,-8.2223,-8.2333,-8.237,-8.237,-8.248,-8.2517,-8.2517,-8.2517,-8.2517,-8.2517,-8.2517,-8.2517,-8.2517,-8.2517,-8.2517,-8.2517,-8.2517,-8.2443,-8.237,-8.237,-8.226,-8.2186,0.0,0.0,0.0,-8.2186,-8.2186,-8.2186,0.0,0.0,-8.2186,-8.2186,0.0,0.0,0.0,-8.2186,-8.2186,0.0,0.0,0.0,0.0,0.0,0.0,-8.2186,-8.2186,0.0,-8.2186,0.0,-8.3525,-8.429,-8.6606,-8.8061,-8.8786,-9.0454,-9.121,-9.121,-9.121,-9.121,-9.121,-9.121,-9.121,-9.121,-9.121,-9.121,-9.121,-9.121,-9.121,-9.121,-7.4289,0.0,0.0,0.0,0.0,-7.5506,-7.5506,-7.5608,-7.5709,-7.5709,-7.5709,-7.5709,-7.5709,-7.5709,-7.5709,-7.5709,-7.5709,0.0,0.0,0.0,0.0,-7.5709,-7.5709,-7.5709,-7.5709,-7.5709,-7.5709,-7.5709,-7.5709,-7.5709,-7.5709,-7.5709,-7.5709,-7.5709,0.0,0.0,-7.5865,-7.7822,0.0,-7.9143,-8.116,-8.2018,-8.226,-8.2957,-8.3214,-8.3287,-8.3948,-8.3324,-8.2296,-8.2994,-8.3214,-8.3324,-8.3985,-8.4168,-8.4168,-8.4168,-8.4168,-8.4168,-8.4168,-8.4168,-8.4168,-8.4168,-8.4168,-8.4168,-8.4168,-8.3691,-8.3214,-8.3214,-8.2663,-8.2186,-8.2186,0.0,0.0,0.0,0.0,0.0,0.0,0.0,-8.2186,-8.2186,-8.2186,-8.2186,0.0,0.0,0.0,0.0,0.0,0.0,0.0,0.0,0.0,0.0,-8.2186,0.0,0.0,0.0,-8.3264,-8.347,-8.6341,-8.7794,-8.7985,-9.0186,-9.121,-9.121,-9.121,-9.121,-9.121,-9.121,-9.121,-9.121,-9.121,-9.121,-9.121,-9.121,-9.121,-9.121,0.0,0.0,0.0,0.0,0.0,0.0,0.0,-7.5709,0.0,-7.5709,-7.5709,-7.5709,-7.5709,-7.5709,-7.5709,-7.5709,-7.5709,-7.5709,-7.5709,-7.5709,-7.5709,-7.5709,-7.5709,-7.5709,-7.5709,-7.5709,-7.5709,-7.5709,-7.5709,-7.5709,-7.5709,-7.5709,-7.5709,-7.5709,0.0,-7.5709,0.0,0.0,0.0,-7.9099,-8.0573,-8.1847,-8.292,-8.3728,-8.4022,-8.4058,-8.4462,-8.4095,-8.3508,-8.3911,-8.4022,-8.4095,-8.4499,-8.4609,-8.4609,-8.4609,-8.4609,-8.4609,-8.4609,-8.4609,-8.4609,-8.4609,-8.4609,-8.4609,-8.4609,-8.4315,-8.4022,-8.4022,-8.3398,-8.27,-8.226,-8.2186,0.0,0.0,0.0,0.0,0.0,0.0,-8.2186,-8.2186,-8.2186,-8.2186,0.0,0.0,0.0,0.0,0.0,0.0,0.0,0.0,0.0,0.0,0.0,0.0,0.0,0.0,0.0,-8.2708,-8.5738,-8.7201,-8.7239,-8.9957,-9.121,-9.121,-9.121,-9.121,-9.121,-9.121,-9.121,-9.121,-9.121,-9.121,-9.121,-9.121,-9.121,-9.121,0.0,-7.5709,0.0,0.0,-7.5709,0.0,0.0,-7.5709,-7.5709,-7.5709,-7.5709,-7.5709,-7.5709,-7.5709,-7.5709,-7.5709,-7.5709,-7.5709,-7.5709,-7.5709,-7.5709,-7.5709,-7.5709,-7.5709,-7.5709,-7.5709,-7.5709,-7.5709,-7.5879,-7.5946,-7.5946,-7.5946,-7.5845,0.0,0.0,0.0,0.0,0.0,-7.7505,-7.9514,-8.0394,-8.1956,-8.3765,-8.4535,-8.4866,-8.4866,-8.5049,-8.5123,-8.5123,-8.5123,-8.5013,-8.4866,-8.5049,-8.5123,-8.5123,-8.5123,-8.5123,-8.5123,-8.5123,-8.5123,-8.5123,-8.5123,-8.5123,-8.5123,-8.5123,-8.4976,-8.4866,-8.4866,-8.4242,-8.3434,-8.259,-8.2443,0.0,0.0,0.0,0.0,0.0,0.0,-8.2186,-8.2186,-8.2186,-8.2186,-8.2186,0.0,0.0,0.0,0.0,0.0,0.0,0.0,0.0,0.0,0.0,-8.2186,-8.2186,0.0,-8.2296,0.0,-8.532,-8.6795,-8.7034,-8.9877,-9.121,-9.121,-9.121,-9.121,-9.121,-9.121,-9.121,-9.121,-9.121,-9.121,-9.121,-9.121,-9.121,-9.121,0.0,0.0,0.0,0.0,0.0,0.0,0.0,-7.5709,-7.5709,-7.5709,-7.5709,-7.5709,-7.5709,-7.5709,-7.5709,-7.5709,-7.5709,-7.5709,-7.5709,-7.5709,-7.5709,-7.5709,-7.5709,-7.5709,-7.5709,-7.5709,-7.5709,-7.5709,-7.642,-7.6792,-7.6792,-7.6792,0.0,0.0,0.0,0.0,0.0,-7.7846,-7.9374,-8.1154,-8.2219,-8.3411,-8.4572,-8.538,-8.5673,-8.5783,-8.6518,-8.6775,-8.6775,-8.6775,-8.6297,-8.582,-8.6554,-8.6775,-8.6775,-8.6775,-8.6775,-8.6775,-8.6775,-8.6775,-8.6775,-8.6775,-8.6775,-8.6775,-8.6775,-8.6224,-8.5673,-8.5673,-8.5049,-8.4242,-8.3434,-8.3287,-8.3067,0.0,0.0,0.0,0.0,0.0,-8.2186,-8.2186,-8.2186,-8.2186,0.0,0.0,0.0,0.0,0.0,0.0,0.0,0.0,0.0,-8.2186,0.0,-8.2186,-8.2186,-8.2186,-8.2553,-8.3324,-8.5619,-8.7097,-8.7903,-9.0145,-9.121,-9.121,-9.121,-9.121,-9.121,-9.121,-9.121,-9.121,-9.121,-9.121,-9.121,-9.121,-9.121,-9.121,0.0,0.0,0.0,0.0,0.0,0.0,0.0,-7.7063,-7.7063,-7.7063,-7.6251,-7.5879,-7.6352,-7.642,-7.6589,-7.7029,-7.7063,-7.7063,-7.7063,-7.7063,-7.7063,-7.7063,-7.7063,-7.7063,-7.7063,-7.7063,-7.7063,-7.7063,-7.7401,-7.7536,-7.7536,-7.7536,0.0,0.0,0.0,-7.7232,-7.7634,-7.8695,-8.0054,-8.1438,-8.3056,-8.4319,-8.5416,-8.6224,-8.6518,-8.6554,-8.6885,-8.6995,-8.6995,-8.6995,-8.6811,-8.6591,-8.6921,-8.6995,-8.6995,-8.6995,-8.6995,-8.6995,-8.6995,-8.6995,-8.6995,-8.6995,-8.6995,-8.6995,-8.6995,-8.6775,-8.6518,-8.6518,-8.5894,-8.5086,-8.4278,-8.4132,-8.4022,0.0,0.0,0.0,0.0,0.0,0.0,-8.2186,-8.2186,-8.2186,-8.2186,0.0,0.0,0.0,0.0,0.0,0.0,0.0,0.0,-8.2186,0.0,-8.2186,-8.2186,-8.2186,-8.259,-8.3434,-8.5657,-8.7135,-8.7978,-9.0183,-9.121,-9.121,-9.121,-9.121,-9.121,-9.121,-9.121,-9.121,-9.121,-9.121,-9.121,-9.121,-9.121,-9.121,-7.7096,0.0,-7.7401,0.0,-7.7976,-7.7976,-7.7976,-7.7976,-7.7976,-7.7976,-7.7029,-7.6589,-7.7164,-7.7232,-7.7435,-7.7942,-7.7976,-7.7976,-7.7976,-7.7976,-7.7976,-7.7976,-7.7976,0.0,-7.7976,-7.7976,-7.7976,-7.7976,-7.8213,-7.8314,-7.8314,0.0,0.0,0.0,-7.7976,-7.8111,-7.8413,-7.9145,-8.0434,-8.2111,-8.3495,-8.4897,-8.6224,-8.6775,-8.6995,-8.6995,-8.6995,-8.6995,-8.6995,-8.6995,-8.6995,-8.6995,-8.6995,-8.6995,-8.6995,-8.6995,-8.6995,-8.6995,-8.6995,-8.6995,-8.6995,-8.6995,-8.6995,-8.6995,-8.6995,-8.6995,-8.6995,-8.6995,-8.6554,-8.5894,-8.5086,-8.4939,-8.4866,-8.4646,0.0,0.0,0.0,-8.3067,0.0,-8.2553,-8.2333,-8.2186,-8.2186,0.0,0.0,0.0,0.0,0.0,0.0,0.0,0.0,0.0,0.0,0.0,0.0,-8.2553,-8.3067,-8.4132,-8.5918,-8.7268,-8.8305,-9.0298,-9.121,-9.121,-9.121,-9.121,-9.121,-9.121,-9.121,-9.121,-9.121,-9.121,-9.121,-9.121,-9.121,-9.121,-7.7976,-7.7976,-7.7976,-7.7976,-7.7976,-7.7976,-7.7976,-7.7976,-7.7976,-7.7976,-7.7976,-7.7976,-7.7976,-7.7976,-7.7976,-7.7976,-7.7976,-7.7976,-7.7976,-7.7976,-7.7976,0.0,0.0,-7.7976,-7.7976,-7.7976,-7.7976,-7.7976,-7.872,0.0,-7.9092,0.0,-7.8686,-7.7976,-7.7976,-7.8382,-7.9092,-7.9092,-8.0879,-8.3585,-8.3585,-8.4931,-8.6995,-8.6995,-8.6995,-8.6995,-8.6995,-8.6995,-8.6995,-8.6995,-8.6995,-8.6995,-8.6995,-8.6995,-8.6995,-8.6995,-8.6995,-8.6995,-8.6995,-8.6995,-8.6995,-8.6995,-8.6995,-8.6995,-8.6995,-8.6995,-8.6995,-8.6995,-8.6995,-8.6738,-8.593,-8.5783,-8.5527,-8.4719,0.0,0.0,0.0,-8.3911,0.0,-8.3398,-8.27,-8.2186,-8.2186,0.0,0.0,0.0,0.0,0.0,0.0,0.0,0.0,-8.2186,-8.2186,0.0,-8.3398,-8.3398,-8.4205,-8.5747,-8.6549,-8.7679,-8.9136,-9.0566,-9.121,-9.121,-9.121,-9.121,-9.121,-9.121,-9.121,-9.121,-9.121,-9.121,-9.121,-9.121,-9.121,-9.121,-7.8653,-7.8754,-7.8923,-7.9397,-7.9498,-7.9498,-7.9498,-7.9498,-7.9498,-7.9498,-7.9498,-7.9498,-7.9498,-7.9058,-7.8957,0.0,-7.9498,-7.9498,0.0,-7.9498,-7.9498,-7.9498,-7.9498,-7.9498,-7.9498,-7.9498,-7.9498,-7.9498,0.0,0.0,0.0,-7.987,-7.9735,-7.9498,-7.9498,-7.9634,-7.9937,-8.147,-8.2717,-8.379,-8.5314,-8.632,-8.6995,-8.6995,-8.6995,-8.6995,-8.6995,-8.6995,-8.6995,-8.6995,-8.6995,-8.6995,-8.6995,-8.6995,-8.6995,-8.6995,-8.6995,-8.6995,-8.6995,-8.6995,-8.6995,-8.6995,-8.6995,-8.6995,-8.6995,-8.6995,-8.6995,-8.6995,-8.6995,-8.6921,-8.6664,-8.6628,-8.6518,-8.6297,-8.5783,0.0,-8.5416,0.0,-8.4242,-8.4242,-8.3508,-8.303,0.0,-8.2517,0.0,0.0,0.0,0.0,0.0,0.0,0.0,0.0,-8.2737,0.0,-8.3398,-8.3948,-8.4756,-8.5783,-8.6549,-8.7903,-8.9809,-9.0762,-9.121,-9.121,-9.121,-9.121,-9.121,-9.121,-9.121,-9.121,-9.121,-9.121,-9.121,-9.121,-9.121,-9.121,-7.9431,-7.9532,-7.9667,-8.0107,-8.0209,-8.0209,-8.0209,-8.0209,-8.0209,-8.0209,-8.0209,-8.0209,-8.0209,-7.9803,0.0,-8.0175,-8.0209,-8.0209,-8.0209,-8.0209,-8.0209,-8.0209,-8.0209,-8.0209,-8.0209,0.0,0.0,-8.0209,-8.0209,-8.0209,-8.0209,-8.0209,-8.0209,-8.0209,-8.0209,-8.0442,-8.0966,-8.2335,-8.3415,-8.437,-8.5806,-8.6608,-8.6995,-8.6995,-8.6995,-8.6995,-8.6995,-8.6995,-8.6995,-8.6995,-8.6995,-8.6995,-8.6995,-8.6995,-8.6995,-8.6995,-8.6995,-8.6995,-8.6995,-8.6995,-8.6995,-8.6995,-8.6995,-8.6995,-8.6995,-8.6995,-8.6995,-8.6995,-8.6995,-8.6995,-8.6995,-8.6995,-8.6995,-8.6995,-8.6591,-8.6261,-8.6261,0.0,-8.5049,-8.5049,0.0,0.0,0.0,-8.3398,0.0,0.0,0.0,0.0,0.0,0.0,0.0,-8.2627,-8.3141,0.0,-8.4315,-8.4792,-8.5453,-8.6224,-8.7264,-8.842,-8.9763,-9.0762,-9.121,-9.121,-9.121,-9.121,-9.121,-9.121,-9.121,-9.121,-9.121,-9.121,-9.121,-9.121,-9.121,-9.121,-8.0209,-8.0209,0.0,0.0,-8.0276,0.0,-8.0344,-8.0344,-8.0344,-8.0344,-8.0344,-8.0344,-8.0344,-8.0344,-8.0344,-8.0276,0.0,0.0,0.0,-8.0209,-8.0209,-8.0209,-8.0209,-8.0209,-8.0209,-8.0209,-8.0209,-8.0209,-8.0209,-8.0209,-8.0209,-8.0209,-8.0209,-8.0209,-8.0209,-8.0804,-8.1816,-8.1968,-8.3242,-8.5201,-8.5355,-8.6064,-8.6995,-8.6995,-8.6995,-8.6995,-8.6995,-8.6995,-8.6995,-8.6995,-8.6995,-8.6995,-8.6995,-8.6995,-8.6995,-8.6995,-8.6995,-8.6995,-8.6995,-8.6995,-8.6995,-8.6995,-8.6995,-8.6995,-8.6995,-8.6995,-8.6995,-8.6995,-8.6995,-8.6995,-8.6995,-8.6995,-8.6995,-8.6995,-8.6995,-8.6995,-8.6995,-8.6371,-8.5857,0.0,0.0,0.0,0.0,-8.4646,-8.4609,0.0,0.0,0.0,0.0,0.0,-8.27,-8.3471,-8.3544,-8.4278,-8.5783,-8.5857,-8.6261,-8.6995,-8.8388,-8.9069,-8.9173,-9.0526,-9.1136,-9.121,-9.121,-9.121,-9.121,-9.121,-9.121,-9.121,-9.121,-9.121,-9.121,-9.121,-9.121,-9.121,0.0,0.0,-8.0378,-8.0919,-8.1021,-8.1224,-8.1799,-8.19,-8.19,-8.19,-8.19,-8.19,-8.19,-8.19,-8.1663,-8.1088,-8.0513,-8.0209,-8.0209,-8.0209,-8.0209,-8.0209,-8.0209,-8.0209,-8.0209,-8.0209,-8.0209,-8.0209,-8.0209,-8.0209,-8.0209,-8.0209,-8.0209,-8.0209,-8.0209,-8.0376,-8.0706,-8.2516,-8.35,-8.4124,-8.5917,-8.6749,-8.6995,-8.6995,-8.6995,-8.6995,-8.6995,-8.6995,-8.6995,-8.6995,-8.6995,-8.6995,-8.6995,-8.6995,-8.6995,-8.6995,-8.6995,-8.6995,-8.6995,-8.6995,-8.6995,-8.6995,-8.6995,-8.6995,-8.6995,-8.6995,-8.6995,-8.6995,-8.6995,-8.6995,-8.6995,-8.6995,-8.6995,-8.6995,-8.6995,-8.6995,-8.6995,-8.6848,-8.6738,0.0,-8.6004,-8.5527,-8.5527,-8.4976,-8.4609,0.0,0.0,0.0,0.0,-8.4242,-8.4132,-8.4315,-8.4903,-8.5416,-8.5783,-8.6407,-8.6811,-8.6995,-8.7923,-8.8617,-8.9122,-8.9984,-9.0646,-9.121,-9.121,-9.121,-9.121,-9.121,-9.121,-9.121,-9.121,-9.121,-9.121,-9.121,-9.121,-9.121,-8.1224,-8.1224,-8.1325,-8.1731,-8.1799,-8.1934,-8.234,-8.2408,-8.2408,-8.2408,-8.2408,-8.2408,-8.2408,-8.2408,-8.2238,-8.1832,-8.1122,-8.0547,-8.0209,-8.0209,-8.0209,-8.0209,-8.0209,-8.0209,-8.0209,-8.0209,-8.0209,-8.0209,-8.0209,-8.0209,-8.0209,-8.0209,-8.0209,-8.0209,-8.0209,-8.0442,-8.1029,-8.2335,-8.3415,-8.4452,-8.5731,-8.65,-8.6995,-8.6995,-8.6995,-8.6995,-8.6995,-8.6995,-8.7068,-8.7435,-8.7545,-8.7619,-8.7986,-8.8096,-8.8096,-8.8096,-8.7582,-8.6995,-8.6995,-8.6995,-8.6995,-8.6995,-8.6995,-8.6995,-8.6995,-8.6995,-8.6995,-8.6995,-8.6995,-8.6995,-8.6995,-8.6995,-8.6995,-8.6995,-8.6995,-8.6995,-8.6995,-8.6995,0.0,-8.6995,-8.6628,-8.6334,-8.6334,-8.5967,-8.571,-8.571,-8.571,0.0,-8.571,-8.571,-8.5527,-8.5159,-8.5563,-8.5967,-8.6334,-8.6775,-8.6995,-8.6995,-8.7709,-8.8446,-8.9084,-8.9809,-9.0488,-9.121,-9.121,-9.121,-9.121,-9.121,-9.121,-9.121,-9.121,-9.121,-9.121,-9.121,-9.121,-9.121,-8.2408,-8.2408,-8.2441,-8.2543,-8.2577,-8.2611,-8.2746,-8.2746,-8.2746,-8.2746,-8.2746,-8.2746,-8.2746,-8.2746,-8.2712,-8.2577,-8.2002,-8.1325,-8.0581,-8.0547,-8.0547,-8.0547,-8.0412,-8.0378,-8.0378,-8.0242,-8.0209,-8.0209,-8.0209,-8.0209,-8.0209,-8.0209,-8.0209,-8.0209,-8.0209,-8.0706,-8.1629,-8.1816,-8.3068,-8.5045,-8.5201,-8.5991,-8.6995,-8.6995,-8.7105,-8.7178,-8.7178,-8.7252,-8.7472,-8.8169,-8.839,-8.85,-8.9197,-8.9417,-8.9417,-8.9417,-8.8463,-8.7362,-8.7215,-8.7105,-8.6995,-8.6995,-8.6995,-8.6995,-8.6995,-8.6995,-8.6995,-8.6995,-8.6995,-8.6995,-8.6995,-8.6995,-8.6995,-8.6995,-8.6995,-8.6995,-8.6995,0.0,-8.6995,-8.6995,-8.6995,-8.6995,-8.6995,-8.6995,-8.6995,-8.6995,-8.6995,-8.6995,0.0,-8.6995,-8.6701,-8.6004,-8.5967,-8.6297,-8.6995,-8.6995,-8.6995,-8.6995,-8.7618,-8.833,-8.9122,-8.9716,-9.0406,-9.121,-9.121,-9.121,-9.121,-9.121,-9.121,-9.121,-9.121,-9.121,-9.121,-9.121,-9.121,-9.121,-8.2408,-8.2408,-8.2611,-8.3219,-8.3321,-8.3558,-8.4167,-8.4268,-8.4268,-8.4268,-8.4268,-8.4268,-8.4268,-8.4268,-8.4031,-8.3389,-8.3219,-8.2847,-8.2103,-8.2069,-8.2069,-8.2069,-8.146,-8.1122,-8.1122,-8.0513,-8.0209,-8.0209,-8.0209,-8.0209,-8.0209,-8.0209,-8.0209,-8.0209,-8.0209,-8.0276,-8.0542,-8.1474,-8.2661,-8.3958,-8.4931,-8.5991,-8.6995,-8.6995,-8.7435,-8.8023,-8.8023,-8.8463,-8.905,-8.9197,-8.9234,-8.9271,-8.9381,-8.9417,-8.9417,-8.9417,-8.9234,-8.8904,-8.8206,-8.7509,-8.6995,-8.6995,-8.6995,-8.6995,-8.6995,-8.6995,-8.6995,-8.6995,-8.6995,-8.6995,-8.6995,-8.6995,-8.6995,-8.6995,-8.6995,-8.6995,-8.6995,0.0,-8.6995,-8.6995,-8.6995,-8.6995,-8.6995,-8.6995,-8.6995,-8.6995,-8.6995,-8.6995,-8.6995,-8.6995,-8.6958,-8.6811,-8.6811,-8.6885,-8.6995,-8.6995,-8.6995,-8.6995,-8.7132,-8.7861,-8.9122,-8.9225,-8.9984,-9.121,-9.121,-9.121,-9.121,-9.121,-9.121,-9.121,-9.121,-9.121,-9.121,-9.121,-9.121,-9.121,-8.3592,-8.3592,-8.3693,-8.4031,-8.4099,-8.4234,-8.4573,-8.464,-8.464,-8.464,-8.464,-8.464,-8.464,-8.464,-8.4471,-8.4133,-8.4099,-8.3964,-8.3625,-8.2847,-8.2408,-8.2408,-8.2069,-8.19,-8.19,-8.1156,-8.0784,-8.0784,-8.0378,-8.0209,-8.0209,-8.0209,-8.0209,-8.0209,-8.0209,-8.0209,-8.0175,-8.0804,-8.2003,-8.3621,-8.4634,-8.6082,-8.7692,-8.8133,-8.8536,-8.8867,-8.8867,-8.9087,-8.9491,-8.9931,-9.0078,-9.0115,-9.0555,-9.0702,-9.0702,-9.0702,-9.0078,-8.9234,-8.8426,-8.7949,-8.7545,-8.7105,-8.6995,-8.6995,-8.6995,-8.6995,-8.6995,-8.6995,-8.6995,-8.6995,-8.6995,-8.6995,-8.6995,-8.6995,-8.6995,0.0,0.0,-8.6995,-8.6995,-8.6995,-8.6995,-8.6995,-8.6995,-8.6995,-8.6995,-8.6995,-8.6995,-8.6995,-8.6995,-8.6995,-8.6995,-8.6995,-8.6995,-8.6995,-8.6995,-8.6995,-8.6995,-8.6995,-8.6995,-8.7736,-8.9122,-8.9122,-8.9893,-9.121,-9.121,-9.121,-9.121,-9.121,-9.121,-9.121,-9.121,-9.121,-9.121,-9.121,-9.121,-9.121,-8.464,-8.464,-8.464,-8.464,-8.464,-8.464,-8.464,-8.464,-8.464,-8.464,-8.464,-8.464,-8.464,-8.464,-8.464,-8.464,-8.464,-8.464,-8.464,-8.3558,-8.2915,-8.2915,-8.2746,-8.2577,-8.2408,-8.1832,-8.1562,-8.1562,-8.0987,-8.0716,-8.0716,-8.0716,-8.0716,-8.0716,-8.0716,-8.0716,-8.0716,-8.0951,-8.2241,-8.4187,-8.5131,-8.6643,-8.8536,-8.916,-8.9528,-8.9711,-8.9711,-8.9821,-9.0078,-9.0665,-9.0886,-9.0996,-9.162,-9.1803,-9.1803,-9.1803,-9.0922,-8.9748,-8.8757,-8.8353,-8.8059,-8.7435,-8.7142,-8.6995,-8.6995,-8.6995,-8.6995,-8.6995,-8.6995,-8.6995,-8.6995,-8.6995,-8.6995,-8.6995,0.0,0.0,0.0,-8.6995,-8.6995,-8.6995,-8.6995,-8.6995,-8.6995,-8.6995,-8.6995,-8.6995,-8.6995,-8.6995,-8.6995,-8.6995,-8.6995,-8.6995,-8.6995,-8.6995,-8.6995,-8.6995,-8.6995,-8.6995,-8.6995,-8.7736,-8.9122,-8.9122,-8.9893,-9.121,-9.121,-9.121,-9.121,-9.121,-9.121,-9.121,-9.121,-9.121,-9.121,-9.121,-9.121,-9.121,-8.464,-8.464,-8.464,-8.464,-8.464,-8.464,-8.464,-8.464,-8.464,-8.464,-8.464,-8.464,-8.464,-8.464,-8.464,-8.464,-8.464,-8.464,-8.464,-8.4539,-8.4471,-8.4471,-8.3795,-8.3084,-8.2408,-8.2374,-8.234,-8.234,-8.2272,-8.2238,-8.2238,-8.2238,-8.2238,-8.2238,-8.2238,-8.2238,-8.2342,-8.3478,-8.4612,-8.5832,-8.7034,-8.8204,-8.9344,-8.9381,-8.9858,-9.0519,-9.0519,-9.0996,-9.162,-9.1693,-9.1693,-9.173,-9.1767,-9.1803,-9.1803,-9.1803,-9.173,-9.1289,-8.9748,-8.8793,-8.8206,-8.8133,-8.7545,-8.6995,-8.6995,-8.6995,-8.6995,-8.6995,-8.6995,-8.6995,-8.6995,-8.6995,-8.6995,-8.6995,0.0,0.0,-8.6995,-8.6995,-8.6995,-8.6995,-8.6995,-8.6995,-8.6995,-8.6995,-8.6995,-8.6995,-8.6995,-8.6995,-8.6995,-8.6995,-8.6995,-8.6995,-8.6995,-8.6995,-8.6995,-8.6995,-8.6995,-8.6995,-8.6995,-8.7736,-8.9122,-8.9122,-8.9893,-9.121,-9.121,-9.121,-9.121,-9.121,-9.121,-9.121,-9.121,-9.121,-9.121,-9.121,-9.121,-9.121,-8.464,-8.464,-8.464,-8.464,-8.464,-8.464,-8.464,-8.464,-8.464,-8.464,-8.464,-8.464,-8.464,-8.464,-8.464,-8.464,-8.464,-8.464,-8.464,-8.464,-8.464,-8.464,-8.4336,-8.4065,-8.3795,-8.3321,-8.3084,-8.3084,-8.2644,-8.2408,-8.2408,-8.2408,-8.2408,-8.2408,-8.2408,-8.2408,-8.2511,-8.3713,-8.4844,-8.6045,-8.7726,-8.908,-9.0225,-9.0702,-9.1069,-9.1326,-9.1326,-9.1546,-9.1803,-9.1803,-9.1803,-9.1803,-9.1803,-9.1803,-9.1803,-9.1803,-9.1803,-9.1657,-9.1069,-9.0298,-8.9454,-8.8463,-8.7986,-8.7619,-8.7105,-8.6995,-8.6995,-8.6995,-8.6995,-8.6995,-8.6995,-8.6995,-8.6995,-8.6995,0.0,-8.6995,-8.6995,-8.6995,-8.6995,-8.6995,-8.6995,-8.6995,-8.6995,-8.6995,-8.6995,-8.6995,-8.6995,-8.6995,-8.6995,-8.6995,-8.6995,-8.6995,-8.6995,-8.6995,-8.6995,-8.6995,-8.6995,-8.6995,-8.6995,-8.7736,-8.9122,-8.9122,-8.9893,-9.121,-9.121,-9.121,-9.121,-9.121,-9.121,-9.121,-9.121,-9.121,-9.121,-9.121,-9.121,-9.121,-8.464,-8.464,-8.464,-8.464,-8.464,-8.464,-8.464,-8.464,-8.464,-8.464,-8.464,-8.464,-8.464,-8.464,-8.464,-8.464,-8.464,-8.464,-8.464,-8.464,-8.464,-8.464,-8.464,-8.464,-8.464,-8.4099,-8.3862,-8.3862,-8.3355,-8.3118,-8.3118,-8.3118,-8.3118,-8.3118,-8.3118,-8.3118,-8.3189,-8.4793,-8.5947,-8.6789,-8.8959,-9.0258,-9.1033,-9.1583,-9.1803,-9.1803,-9.1803,-9.1803,-9.1803,-9.1803,-9.1803,-9.1803,-9.1803,-9.1803,-9.1803,-9.1803,-9.1803,-9.1803,-9.1803,-9.14,-9.0592,-8.8977,-8.839,-8.7986,-8.7178,-8.6995,-8.6995,-8.6995,-8.6995,-8.6995,-8.6995,-8.6995,-8.6995,-8.6995,-8.6995,-8.6995,-8.6995,-8.6995,-8.6995,-8.6995,-8.6995,-8.6995,-8.6995,-8.6995,-8.6995,-8.6995,-8.6995,-8.6995,-8.6995,-8.6995,-8.6995,-8.6995,-8.6995,-8.6995,-8.6995,-8.6995,-8.6995,-8.6995,-8.6995,-8.7646,-8.8801,-8.9016,-8.9716,-9.0876,-9.11,-9.121,-9.121,-9.121,-9.121,-9.121,-9.121,-9.121,-9.121,-9.121,-9.121,-9.121,-8.464,-8.464,-8.464,-8.464,-8.464,-8.464,-8.464,-8.464,-8.464,-8.464,-8.464,-8.464,-8.464,-8.464,-8.464,-8.464,-8.464,-8.464,-8.464,-8.464,-8.464,-8.464,-8.464,-8.464,-8.464,-8.464,-8.464,-8.464,-8.464,-8.464,-8.464,-8.464,-8.464,-8.464,-8.464,-8.464,-8.4819,-8.7151,-8.8223,-8.8402,-9.083,-9.1803,-9.1803,-9.1803,-9.1803,-9.1803,-9.1803,-9.1803,-9.1803,-9.1803,-9.1803,-9.1803,-9.1803,-9.1803,-9.1803,-9.1803,-9.1803,-9.1803,-9.1803,-9.1803,-9.1436,-8.9821,-8.8793,-8.7986,-8.7215,-8.6995,-8.6995,-8.6995,-8.6995,-8.6995,-8.6995,-8.6995,-8.6995,-8.6995,-8.6995,-8.6995,-8.6995,-8.6995,-8.6995,-8.6995,-8.6995,-8.6995,-8.6995,-8.6995,-8.6995,-8.6995,-8.6995,-8.6995,-8.6995,-8.6995,-8.6995,-8.6995,-8.6995,-8.6995,-8.6995,-8.6995,-8.6995,-8.6995,-8.6995,-8.7394,-8.8167,-8.8801,-8.9438,-9.016,-9.0876,-9.121,-9.121,-9.121,-9.121,-9.121,-9.121,-9.121,-9.121,-9.121,-9.121,-9.121,-8.5452,-8.5012,-8.464,-8.464,-8.464,-8.464,-8.464,-8.464,-8.464,-8.464,-8.464,-8.464,-8.464,-8.464,-8.464,-8.464,-8.464,-8.464,-8.464,-8.464,-8.464,-8.464,-8.464,-8.464,-8.464,-8.464,-8.464,-8.464,-8.464,-8.464,-8.464,-8.464,-8.464,-8.464,-8.464,-8.464,-8.4819,-8.7151,-8.8223,-8.8402,-9.083,-9.1803,-9.1803,-9.1803,-9.1803,-9.1803,-9.1803,-9.1803,-9.1803,-9.1803,-9.1803,-9.1803,-9.1803,-9.1803,-9.1803,-9.1803,-9.1803,-9.1803,-9.1803,-9.1803,-9.1546,-9.0519,-8.9638,-8.883,-8.8023,-8.7435,-8.6995,-8.6995,-8.6995,-8.6995,-8.6995,-8.6995,-8.6995,-8.6995,-8.6995,-8.6995,-8.6995,-8.6995,-8.6995,-8.6995,-8.6995,-8.6995,-8.6995,-8.6995,-8.6995,-8.6995,-8.6995,-8.6995,-8.6995,-8.6995,-8.6995,-8.6995,-8.6995,-8.6995,-8.6995,-8.6995,-8.6995,-8.6995,-8.6995,-8.7646,-8.8801,-8.9016,-8.9716,-9.0876,-9.11,-9.121,-9.121,-9.121,-9.121,-9.121,-9.121,-9.121,-9.121,-9.121,-9.121,-9.121,-8.623,-8.5621,-8.508,-8.508,-8.4843,-8.464,-8.464,-8.464,-8.464,-8.464,-8.464,-8.464,-8.464,-8.464,-8.464,-8.464,-8.464,-8.464,-8.464,-8.464,-8.464,-8.464,-8.464,-8.464,-8.464,-8.464,-8.464,-8.464,-8.464,-8.464,-8.464,-8.464,-8.464,-8.464,-8.464,-8.464,-8.4713,-8.6707,-8.7769,-8.8402,-9.032,-9.136,-9.1803,-9.1803,-9.1803,-9.1803,-9.1803,-9.1803,-9.1803,-9.1803,-9.1803,-9.1803,-9.1803,-9.1803,-9.1803,-9.1803,-9.1803,-9.1803,-9.1803,-9.1803,-9.1693,-9.1216,-9.0225,-8.9197,-8.839,-8.7582,-8.6995,-8.6995,-8.6995,-8.6995,-8.6995,-8.6995,-8.6995,-8.6995,-8.6995,-8.6995,-8.6995,-8.6995,-8.6995,-8.6995,-8.6995,-8.6995,-8.6995,-8.6995,-8.6995,-8.6995,-8.6995,-8.6995,-8.6995,-8.6995,-8.6995,-8.6995,-8.6995,-8.6995,-8.6995,-8.6995,-8.6995,-8.6995,-8.6995,-8.7423,-8.8271,-8.8856,-8.9573,-9.0406,-9.0952,-9.121,-9.121,-9.121,-9.121,-9.121,-9.121,-9.121,-9.121,-9.121,-9.121,-9.121,-8.7008,-8.6399,-8.5858,-8.579,-8.5182,-8.4708,-8.464,-8.464,-8.464,-8.464,-8.464,-8.464,-8.464,-8.464,-8.464,-8.464,-8.464,-8.464,-8.464,-8.464,-8.464,-8.464,-8.464,-8.464,-8.464,-8.464,-8.464,-8.464,-8.464,-8.464,-8.464,-8.464,-8.464,-8.464,-8.464,-8.464,-8.4713,-8.5887,-8.7151,-8.8313,-8.963,-9.0752,-9.1803,-9.1803,-9.1803,-9.1803,-9.1803,-9.1803,-9.1803,-9.1803,-9.1803,-9.1803,-9.1803,-9.1803,-9.1803,-9.1803,-9.1803,-9.1803,-9.1803,-9.1803,-9.1803,-9.1803,-9.0629,-8.9307,-8.85,-8.7692,-8.7105,-8.7031,-8.6995,-8.6995,-8.6995,-8.6995,-8.6995,-8.6995,-8.6995,-8.6995,-8.6995,-8.6995,-8.6995,-8.6995,-8.6995,-8.6995,-8.6995,-8.6995,-8.6995,-8.6995,-8.6995,-8.6995,-8.6995,-8.6995,-8.6995,-8.6995,-8.6995,-8.6995,-8.6995,-8.6995,-8.6995,-8.6995,-8.6995,-8.6995,-8.7095,-8.8466,-8.9136,-8.9238,-9.0606,-9.121,-9.121,-9.121,-9.121,-9.121,-9.121,-9.121,-9.121,-9.121,-9.121,-9.121,-8.7753,-8.7177,-8.6467,-8.5892,-8.5655,-8.5317,-8.4708,-8.464,-8.464,-8.464,-8.464,-8.464,-8.464,-8.464,-8.464,-8.464,-8.464,-8.464,-8.464,-8.464,-8.464,-8.464,-8.464,-8.464,-8.464,-8.464,-8.464,-8.464,-8.464,-8.464,-8.464,-8.464,-8.464,-8.464,-8.464,-8.464,-8.4713,-8.5887,-8.7151,-8.8313,-8.9474,-9.0752,-9.1803,-9.1803,-9.1803,-9.1803,-9.1803,-9.1803,-9.1803,-9.1803,-9.1803,-9.1803,-9.1803,-9.1803,-9.1803,-9.1803,-9.1803,-9.1803,-9.1803,-9.1803,-9.1803,-9.1803,-9.1069,-9.0152,-8.9344,-8.8536,-8.7766,-8.7142,-8.6995,-8.6995,-8.6995,-8.6995,-8.6995,-8.6995,-8.6995,-8.6995,-8.6995,-8.6995,-8.6995,-8.6995,-8.6995,-8.6995,-8.6995,-8.6995,-8.6995,-8.6995,-8.6995,-8.6995,-8.6995,-8.6995,-8.6995,-8.6995,-8.6995,-8.6995,-8.6995,-8.6995,-8.6995,-8.6995,-8.6995,-8.7261,-8.7898,-8.8691,-8.9426,-8.9901,-9.0839,-9.121,-9.121,-9.121,-9.121,-9.121,-9.121,-9.121,-9.121,-9.121,-9.121,-9.121,-8.8497,-8.7922,-8.7211,-8.6433,-8.6027,-8.552,-8.4742,-8.464,-8.464,-8.464,-8.464,-8.464,-8.464,-8.464,-8.464,-8.464,-8.464,-8.464,-8.464,-8.464,-8.464,-8.464,-8.464,-8.464,-8.464,-8.464,-8.464,-8.464,-8.464,-8.464,-8.464,-8.464,-8.464,-8.464,-8.464,-8.464,-8.4606,-8.524,-8.6252,-8.7398,-8.8667,-8.9842,-9.0984,-9.162,-9.1803,-9.1803,-9.1803,-9.1803,-9.1803,-9.1803,-9.1803,-9.1803,-9.1803,-9.1803,-9.1803,-9.1803,-9.1803,-9.1803,-9.1803,-9.1803,-9.1803,-9.1803,-9.1473,-9.0849,-8.9674,-8.8793,-8.7986,-8.7178,-8.6995,-8.6995,-8.6995,-8.6995,-8.6995,-8.6995,-8.6995,-8.6995,-8.6995,-8.6995,-8.6995,-8.6995,-8.6995,-8.6995,-8.6995,-8.6995,-8.6995,-8.6995,-8.6995,-8.6995,-8.6995,-8.6995,-8.6995,-8.6995,-8.6995,-8.6995,-8.6995,-8.6995,-8.6995,-8.6995,-8.6995,-8.7231,-8.7618,-8.8636,-8.9289,-8.9669,-9.0723,-9.121,-9.121,-9.121,-9.121,-9.121,-9.121,-9.121,-9.121,-9.121,-9.121,-9.121,-8.9072,-8.8598,-8.7922,-8.7076,-8.6399,-8.5655,-8.4776,-8.464,-8.464,-8.464,-8.464,-8.464,-8.464,-8.464,-8.464,-8.464,-8.464,-8.464,-8.464,-8.464,-8.464,-8.464,-8.464,-8.464,-8.464,-8.464,-8.464,-8.464,-8.464,-8.464,-8.464,-8.464,-8.464,-8.464,-8.464,-8.464,-8.464,-8.464,-8.5344,-8.6512,-8.7677,-8.8928,-9.0087,-9.136,-9.1803,-9.1803,-9.1803,-9.1803,-9.1803,-9.1803,-9.1803,-9.1803,-9.1803,-9.1803,-9.1803,-9.1803,-9.1803,-9.1803,-9.1803,-9.1803,-9.1803,-9.1803,-9.1803,-9.1363,-8.9784,-8.8904,-8.8133,-8.7215,-8.6995,-8.6995,-8.6995,-8.6995,-8.6995,-8.6995,-8.6995,-8.6995,-8.6995,-8.6995,-8.6995,-8.6995,-8.6995,-8.6995,-8.6995,-8.6995,-8.6995,-8.6995,-8.6995,-8.6995,-8.6995,-8.6995,-8.6995,-8.6995,-8.6995,-8.6995,-8.6995,-8.6995,-8.6995,-8.6995,-8.6995,-8.6995,-8.7064,-8.8466,-8.9122,-8.9173,-9.0566,-9.121,-9.121,-9.121,-9.121,-9.121,-9.121,-9.121,-9.121,-9.121,-9.121,-9.121,-8.9072,-8.9004,-8.8497,-8.7144,-8.6839,-8.6264,-8.4843,-8.464,-8.464,-8.464,-8.464,-8.464,-8.464,-8.464,-8.464,-8.464,-8.464,-8.464,-8.464,-8.464,-8.464,-8.464,-8.464,-8.464,-8.464,-8.464,-8.464,-8.464,-8.464,-8.464,-8.464,-8.464,-8.464,-8.464,-8.464,-8.464,-8.464,-8.464,-8.5344,-8.6512,-8.7677,-8.8928,-9.0087,-9.136,-9.1803,-9.1803,-9.1803,-9.1803,-9.1803,-9.1803,-9.1803,-9.1803,-9.1803,-9.1803,-9.1803,-9.1803,-9.1803,-9.1803,-9.1803,-9.1803,-9.1803,-9.1803,-9.1803,-9.1363,-8.9784,-8.9344,-8.883,-8.7325,-8.6995,-8.6995,-8.6995,-8.6995,-8.6995,-8.6995,-8.6995,-8.6995,-8.6995,-8.6995,-8.6995,-8.6995,-8.6995,-8.6995,-8.6995,-8.6995,-8.6995,-8.6995,-8.6995,-8.6995,-8.6995,-8.6995,-8.6995,-8.6995,-8.6995,-8.6995,-8.6995,-8.6995,-8.6995,-8.6995,-8.6995,-8.6995,-8.7064,-8.8466,-8.9122,-8.9173,-9.0566,-9.121,-9.121,-9.121,-9.121,-9.121,-9.121,-9.121,-9.121,-9.121,-9.121,-9.121,-8.9072,-8.9072,-8.8632,-8.7177,-8.6907,-8.6399,-8.4877,-8.464,-8.464,-8.464,-8.464,-8.464,-8.464,-8.464,-8.464,-8.464,-8.464,-8.464,-8.464,-8.464,-8.464,-8.464,-8.464,-8.464,-8.464,-8.464,-8.464,-8.464,-8.464,-8.464,-8.464,-8.464,-8.464,-8.464,-8.464,-8.464,-8.464,-8.464,-8.489,-8.5515,-8.7398,-8.8491,-8.9221,-9.106,-9.1803,-9.1803,-9.1803,-9.1803,-9.1803,-9.1803,-9.1803,-9.1803,-9.1803,-9.1803,-9.1803,-9.1803,-9.1803,-9.1803,-9.1803,-9.1803,-9.1803,-9.1803,-9.1473,-9.0849,-8.9674,-8.905,-8.839,-8.7252,-8.6995,-8.6995,-8.6995,-8.6995,-8.6995,-8.6995,-8.6995,-8.6995,-8.6995,-8.6995,-8.6995,-8.6995,-8.6995,-8.6995,-8.6995,-8.6995,-8.6995,-8.6995,-8.6995,-8.6995,-8.6995,-8.6995,-8.6995,-8.6995,-8.6995,-8.6995,-8.6995,-8.6995,-8.6995,-8.6995,-8.6995,-8.6995,-8.7064,-8.807,-8.8746,-8.9173,-9.0116,-9.0839,-9.121,-9.121,-9.121,-9.121,-9.121,-9.121,-9.121,-9.121,-9.121,-9.121]}]]